[[{"header":{"parameterUnit":"m.s-1","parameterCategory":1,"la1":30.6,"la2":28.766,"lo1":-90.7593,"lo2":-88.6598,"dy":0.0162,"dx":0.0183,"nx":116,"ny":114,"refTime":"2023-08-10T06:00:00:Z","depth":0,"parameterNumber":2,"parameterNumberName":"U-component_of_WINDS"},"data":[0.0,0.0,0.0,0.0,0.0,0.0,0.0,0.0,0.0,0.0,0.0,0.0,0.0,0.0,0.0,0.0,0.0,0.0,0.0,0.0,0.0,0.0,0.0,0.0,0.0,0.0,0.0,0.0,0.0,0.0,0.0,0.0,0.0,0.0,0.0,0.0,0.0,0.0,0.0,0.0,0.0,0.0,0.0,0.0,0.0,0.0,0.0,0.0,0.0,0.0,0.0,0.0,0.0,0.0,0.0,0.0,0.0,0.0,0.0,0.0,0.0,0.0,0.0,0.0,0.0,0.0,0.0,0.0,0.0,0.0,0.0,0.0,0.0,0.0,0.0,0.0,0.0,0.0,0.0,0.0,0.0,0.0,0.0,0.0,0.0,0.0,0.0,0.0,0.0,0.0,0.0,0.0,0.0,0.0,0.0,0.0,0.0,0.0,0.0,0.0,0.0,0.0,0.0,0.0,0.0,0.0,0.0,0.0,0.0,0.0,0.0,0.0,0.0,0.0,0.0,0.0,0.0,0.0,0.0,0.0,0.0,0.0,0.0,0.0,0.0,0.0,0.0,0.0,0.0,0.0,0.0,0.0,0.0,0.0,0.0,0.0,0.0,0.0,0.0,0.0,0.0,0.0,0.0,0.0,0.0,0.0,0.0,0.0,0.0,0.0,0.0,0.0,0.0,0.0,0.0,0.0,0.0,0.0,0.0,0.0,0.0,0.0,0.0,0.0,0.0,0.0,0.0,0.0,0.0,0.0,0.0,0.0,0.0,0.0,0.0,0.0,0.0,0.0,0.0,0.0,0.0,0.0,0.0,0.0,0.0,0.0,0.0,0.0,0.0,0.0,0.0,0.0,0.0,0.0,0.0,0.0,0.0,0.0,0.0,0.0,0.0,0.0,0.0,0.0,0.0,0.0,0.0,0.0,0.0,0.0,0.0,0.0,0.0,0.0,0.0,0.0,0.0,0.0,0.0,0.0,0.0,0.0,0.0,0.0,0.0,0.0,0.0,0.0,0.0,0.0,0.0,0.0,0.0,0.0,0.0,0.0,0.0,0.0,0.0,0.0,0.0,0.0,0.0,0.0,0.0,0.0,0.0,0.0,0.0,0.0,0.0,0.0,0.0,0.0,0.0,0.0,0.0,0.0,0.0,0.0,0.0,0.0,0.0,0.0,0.0,0.0,0.0,0.0,0.0,0.0,0.0,0.0,0.0,0.0,0.0,0.0,0.0,0.0,0.0,0.0,0.0,0.0,0.0,0.0,0.0,0.0,0.0,0.0,0.0,0.0,0.0,0.0,0.0,0.0,0.0,0.0,0.0,0.0,0.0,0.0,0.0,0.0,0.0,0.0,0.0,0.0,0.0,0.0,0.0,0.0,0.0,0.0,0.0,0.0,0.0,0.0,0.0,0.0,0.0,0.0,0.0,0.0,0.0,0.0,0.0,0.0,0.0,0.0,0.0,0.0,0.0,0.0,0.0,0.0,0.0,0.0,0.0,0.0,0.0,0.0,0.0,0.0,0.0,0.0,0.0,0.0,0.0,0.0,0.0,0.0,0.0,0.0,0.0,0.0,0.0,0.0,0.0,0.0,0.0,0.0,0.0,0.0,0.0,0.0,0.0,0.0,0.0,0.0,0.0,0.0,0.0,0.0,0.0,0.0,0.0,0.0,0.0,0.0,0.0,0.0,0.0,0.0,0.0,0.0,0.0,0.0,0.0,0.0,0.0,0.0,0.0,0.0,0.0,0.0,0.0,0.0,0.0,0.0,0.0,0.0,0.0,0.0,0.0,0.0,0.0,0.0,0.0,0.0,0.0,0.0,0.0,0.0,0.0,0.0,0.0,0.0,0.0,0.0,0.0,0.0,0.0,0.0,0.0,0.0,0.0,0.0,0.0,0.0,0.0,0.0,0.0,0.0,0.0,0.0,0.0,0.0,0.0,0.0,0.0,0.0,0.0,0.0,0.0,0.0,0.0,0.0,0.0,0.0,0.0,0.0,0.0,0.0,0.0,0.0,0.0,0.0,0.0,0.0,0.0,0.0,0.0,0.0,0.0,0.0,0.0,0.0,0.0,0.0,0.0,0.0,0.0,0.0,0.0,0.0,0.0,0.0,0.0,0.0,0.0,0.0,0.0,0.0,0.0,0.0,0.0,0.0,0.0,0.0,0.0,0.0,0.0,0.0,0.0,0.0,0.0,0.0,0.0,0.0,0.0,0.0,0.0,0.0,0.0,0.0,0.0,0.0,0.0,0.0,0.0,0.0,0.0,0.0,0.0,0.0,0.0,0.0,0.0,0.0,0.0,0.0,0.0,0.0,0.0,0.0,0.0,0.0,0.0,0.0,0.0,0.0,0.0,0.0,0.0,0.0,0.0,0.0,0.0,0.0,0.0,0.0,0.0,0.0,0.0,0.0,0.0,0.0,0.0,0.0,0.0,0.0,0.0,0.0,0.0,0.0,0.0,0.0,0.0,0.0,0.0,0.0,0.0,0.0,0.0,0.0,0.0,0.0,0.0,0.0,0.0,0.0,0.0,0.0,0.0,0.0,0.0,0.0,0.0,0.0,0.0,0.0,0.0,0.0,0.0,0.0,0.0,0.0,0.0,0.0,0.0,0.0,0.0,0.0,0.0,0.0,0.0,0.0,0.0,0.0,0.0,0.0,0.0,0.0,0.0,0.0,0.0,0.0,0.0,0.0,0.0,0.0,0.0,0.0,0.0,0.0,0.0,0.0,0.0,0.0,0.0,0.0,0.0,0.0,0.0,0.0,0.0,0.0,0.0,0.0,0.0,0.0,0.0,0.0,0.0,0.0,0.0,0.0,0.0,0.0,0.0,0.0,0.0,0.0,0.0,0.0,0.0,0.0,0.0,0.0,0.0,0.0,0.0,0.0,0.0,0.0,0.0,0.0,0.0,0.0,0.0,0.0,0.0,0.0,0.0,0.0,0.0,0.0,0.0,0.0,0.0,0.0,0.0,0.0,0.0,0.0,0.0,0.0,0.0,0.0,0.0,0.0,0.0,0.0,0.0,0.0,0.0,0.0,0.0,0.0,0.0,0.0,0.0,0.0,0.0,0.0,0.0,0.0,0.0,0.0,0.0,0.0,0.0,0.0,0.0,0.0,0.0,0.0,0.0,0.0,0.0,0.0,0.0,0.0,0.0,0.0,0.0,0.0,0.0,0.0,0.0,0.0,0.0,0.0,0.0,0.0,0.0,0.0,0.0,0.0,0.0,0.0,0.0,0.0,0.0,0.0,0.0,0.0,0.0,0.0,0.0,0.0,0.0,0.0,0.0,0.0,0.0,0.0,0.0,0.0,0.0,0.0,0.0,0.0,0.0,0.0,0.0,0.0,0.0,0.0,0.0,0.0,0.0,0.0,0.0,0.0,0.0,0.0,0.0,0.0,0.0,0.0,0.0,0.0,0.0,0.0,0.0,0.0,0.0,0.0,0.0,0.0,0.0,0.0,0.0,0.0,0.0,0.0,0.0,0.0,0.0,0.0,0.0,0.0,0.0,0.0,0.0,0.0,0.0,0.0,0.0,0.0,0.0,0.0,0.0,0.0,0.0,0.0,0.0,0.0,0.0,0.0,0.0,0.0,0.0,0.0,0.0,0.0,0.0,0.0,0.0,0.0,0.0,0.0,0.0,0.0,0.0,0.0,0.0,0.0,0.0,0.0,0.0,0.0,0.0,0.0,0.0,0.0,0.0,0.0,0.0,0.0,0.0,0.0,0.0,0.0,0.0,0.0,0.0,0.0,0.0,0.0,0.0,0.0,0.0,0.0,0.0,0.0,0.0,0.0,0.0,0.0,0.0,0.0,0.0,0.0,0.0,0.0,0.0,0.0,0.0,0.0,0.0,0.0,0.0,0.0,0.0,0.0,0.0,0.0,0.0,0.0,0.0,0.0,0.0,0.0,0.0,0.0,0.0,0.0,0.0,0.0,0.0,0.0,0.0,0.0,0.0,0.0,0.0,0.0,0.0,0.0,0.0,0.0,0.0,0.0,0.0,0.0,0.0,0.0,0.0,0.0,0.0,0.0,0.0,0.0,0.0,0.0,0.0,0.0,0.0,0.0,0.0,0.0,0.0,0.0,0.0,0.0,0.0,0.0,0.0,0.0,0.0,0.0,0.0,0.0,0.0,0.0,0.0,0.0,0.0,0.0,0.0,0.0,0.0,0.0,0.0,0.0,0.0,0.0,0.0,0.0,0.0,0.0,0.0,0.0,0.0,0.0,0.0,0.0,0.0,0.0,0.0,0.0,0.0,0.0,0.0,0.0,0.0,0.0,0.0,0.0,0.0,0.0,0.0,0.0,0.0,0.0,0.0,0.0,0.0,0.0,0.0,0.0,0.0,0.0,0.0,0.0,0.0,0.0,0.0,0.0,0.0,0.0,0.0,0.0,0.0,0.0,0.0,0.0,0.0,0.0,0.0,0.0,0.0,0.0,0.0,0.0,0.0,0.0,0.0,0.0,0.0,0.0,0.0,0.0,0.0,0.0,0.0,0.0,0.0,0.0,0.0,0.0,0.0,0.0,0.0,0.0,0.0,0.0,0.0,0.0,0.0,0.0,0.0,0.0,0.0,0.0,0.0,0.0,0.0,0.0,0.0,0.0,0.0,0.0,0.0,0.0,0.0,0.0,0.0,0.0,0.0,0.0,0.0,0.0,0.0,0.0,0.0,0.0,0.0,0.0,0.0,0.0,0.0,0.0,0.0,0.0,0.0,0.0,0.0,0.0,0.0,0.0,0.0,0.0,0.0,0.0,0.0,0.0,0.0,0.0,0.0,0.0,0.0,0.0,0.0,0.0,0.0,0.0,0.0,0.0,0.0,0.0,0.0,0.0,0.0,0.0,0.0,0.0,0.0,0.0,0.0,0.0,0.0,0.0,0.0,0.0,0.0,0.0,0.0,0.0,0.0,0.0,0.0,0.0,0.0,0.0,0.0,0.0,0.0,0.0,0.0,0.0,0.0,0.0,0.0,0.0,0.0,0.0,0.0,0.0,0.0,0.0,0.0,0.0,0.0,0.0,0.0,0.0,0.0,0.0,0.0,0.0,0.0,0.0,0.0,0.0,0.0,0.0,0.0,0.0,0.0,0.0,0.0,0.0,0.0,0.0,0.0,0.0,0.0,0.0,0.0,0.0,0.0,0.0,0.0,0.0,0.0,0.0,0.0,0.0,0.0,0.0,0.0,0.0,0.0,0.0,0.0,0.0,0.0,0.0,0.0,0.0,0.0,0.0,0.0,0.0,0.0,0.0,0.0,0.0,0.0,0.0,0.0,0.0,0.0,0.0,0.0,0.0,0.0,0.0,0.0,0.0,0.0,0.0,0.0,0.0,0.0,0.0,0.0,0.0,0.0,0.0,0.0,0.0,0.0,0.0,0.0,0.0,0.0,0.0,0.0,0.0,0.0,0.0,0.0,0.0,0.0,0.0,0.0,0.0,0.0,0.0,0.0,0.0,0.0,0.0,0.0,0.0,0.0,0.0,0.0,0.0,0.0,0.0,0.0,0.0,0.0,0.0,0.0,0.0,0.0,0.0,0.0,0.0,0.0,0.0,0.0,0.0,0.0,0.0,0.0,0.0,0.0,0.0,0.0,0.0,0.0,0.0,0.0,0.0,0.0,0.0,0.0,0.0,0.0,0.0,0.0,0.0,0.0,0.0,0.0,0.0,0.0,0.0,0.0,0.0,0.0,0.0,0.0,0.0,0.0,0.0,0.0,0.0,0.0,0.0,0.0,0.0,0.0,0.0,0.0,0.0,0.0,0.0,0.0,0.0,0.0,0.0,0.0,0.0,0.0,0.0,0.0,0.0,0.0,0.0,0.0,0.0,0.0,0.0,0.0,0.0,0.0,0.0,0.0,0.0,0.0,0.0,0.0,0.0,0.0,0.0,0.0,0.0,0.0,0.0,0.0,0.0,0.0,0.0,0.0,0.0,0.0,0.0,0.0,0.0,0.0,0.0,0.0,0.0,0.0,0.0,0.0,0.0,0.0,0.0,0.0,0.0,0.0,0.0,0.0,0.0,0.0,0.0,0.0,0.0,0.0,0.0,0.0,0.0,0.0,0.0,0.0,0.0,0.0,0.0,0.0,0.0,0.0,0.0,-4.0713,0.0,0.0,0.0,0.0,0.0,0.0,0.0,0.0,0.0,0.0,0.0,0.0,0.0,0.0,0.0,0.0,0.0,0.0,0.0,0.0,0.0,0.0,0.0,0.0,0.0,0.0,0.0,0.0,0.0,0.0,0.0,0.0,0.0,0.0,0.0,0.0,0.0,0.0,0.0,0.0,0.0,0.0,0.0,0.0,0.0,0.0,0.0,0.0,0.0,0.0,0.0,0.0,0.0,0.0,0.0,0.0,0.0,0.0,0.0,0.0,0.0,0.0,0.0,0.0,0.0,0.0,0.0,0.0,0.0,0.0,0.0,0.0,0.0,0.0,0.0,0.0,0.0,0.0,0.0,0.0,0.0,0.0,0.0,0.0,0.0,0.0,0.0,0.0,0.0,0.0,0.0,0.0,0.0,0.0,0.0,0.0,0.0,0.0,0.0,0.0,0.0,0.0,0.0,0.0,0.0,0.0,0.0,0.0,0.0,0.0,0.0,0.0,0.0,0.0,0.0,0.0,-4.0687,0.0,0.0,0.0,0.0,0.0,0.0,0.0,0.0,0.0,0.0,0.0,0.0,0.0,0.0,0.0,0.0,0.0,0.0,0.0,0.0,0.0,0.0,0.0,0.0,0.0,0.0,0.0,0.0,0.0,0.0,0.0,0.0,0.0,0.0,0.0,0.0,0.0,0.0,0.0,0.0,0.0,0.0,0.0,0.0,0.0,0.0,0.0,0.0,0.0,0.0,0.0,0.0,0.0,0.0,0.0,0.0,0.0,0.0,0.0,0.0,0.0,0.0,0.0,0.0,0.0,0.0,0.0,0.0,0.0,0.0,0.0,0.0,0.0,0.0,0.0,0.0,0.0,0.0,0.0,0.0,0.0,0.0,0.0,0.0,0.0,0.0,0.0,0.0,0.0,0.0,0.0,0.0,0.0,0.0,0.0,0.0,0.0,0.0,0.0,0.0,0.0,0.0,0.0,0.0,0.0,0.0,0.0,0.0,0.0,-4.1242,-4.1242,-4.1242,-4.1197,-4.1145,-4.1138,-4.0924,-4.0595,0.0,0.0,0.0,0.0,0.0,0.0,0.0,0.0,0.0,0.0,0.0,0.0,0.0,0.0,0.0,0.0,0.0,0.0,0.0,0.0,0.0,0.0,0.0,0.0,0.0,0.0,0.0,0.0,0.0,0.0,0.0,0.0,0.0,0.0,0.0,0.0,0.0,0.0,0.0,-4.057,-4.057,-4.057,-4.057,-4.0559,0.0,0.0,0.0,0.0,0.0,0.0,0.0,0.0,0.0,0.0,0.0,0.0,0.0,0.0,0.0,0.0,0.0,0.0,0.0,0.0,0.0,0.0,0.0,0.0,0.0,0.0,0.0,0.0,0.0,0.0,0.0,0.0,0.0,0.0,0.0,0.0,0.0,0.0,0.0,0.0,0.0,0.0,0.0,-4.0981,-4.0911,0.0,0.0,0.0,0.0,0.0,0.0,0.0,0.0,0.0,0.0,0.0,0.0,0.0,0.0,-4.1835,-4.2589,-4.2976,-4.2976,-4.2976,-4.2976,-4.2976,-4.2976,-4.2937,-4.2871,-4.2874,0.0,-4.0607,-4.0617,0.0,0.0,0.0,0.0,0.0,0.0,0.0,0.0,0.0,0.0,0.0,0.0,0.0,0.0,0.0,0.0,0.0,0.0,0.0,0.0,0.0,0.0,0.0,0.0,0.0,0.0,0.0,0.0,0.0,0.0,0.0,0.0,0.0,0.0,0.0,0.0,-4.1833,-4.2118,-4.2118,-4.1616,-4.1403,-4.1421,-4.0925,-4.0668,-4.0589,-4.0629,0.0,0.0,0.0,0.0,0.0,0.0,0.0,0.0,0.0,0.0,0.0,0.0,0.0,0.0,0.0,0.0,0.0,0.0,0.0,0.0,0.0,0.0,0.0,0.0,0.0,0.0,0.0,0.0,0.0,0.0,0.0,0.0,0.0,0.0,0.0,0.0,0.0,0.0,0.0,-4.0992,-4.098,-4.0908,-4.0925,-4.0924,0.0,0.0,0.0,0.0,0.0,0.0,0.0,0.0,0.0,-4.2202,-4.255,-4.2725,-4.2725,-4.3595,-4.404,-4.404,-4.4485,-4.4717,-4.4717,-4.4717,-4.4413,-4.3933,-4.3928,-4.3204,-4.2005,-4.2002,-4.174,-4.133,0.0,0.0,0.0,0.0,0.0,-4.0496,0.0,0.0,0.0,0.0,0.0,0.0,0.0,0.0,0.0,0.0,0.0,0.0,0.0,0.0,0.0,-4.0797,0.0,0.0,0.0,0.0,0.0,0.0,0.0,0.0,0.0,0.0,0.0,0.0,-4.2976,-4.3305,-4.3285,-4.2647,-4.2363,-4.2387,-4.1734,-4.1125,-4.061,-4.0662,-4.0712,0.0,0.0,0.0,0.0,0.0,0.0,0.0,0.0,0.0,0.0,0.0,0.0,0.0,0.0,0.0,0.0,0.0,0.0,0.0,0.0,0.0,0.0,0.0,0.0,0.0,0.0,0.0,0.0,0.0,0.0,0.0,0.0,0.0,0.0,0.0,0.0,0.0,0.0,-4.1651,-4.1608,-4.1548,-4.1548,-4.1543,0.0,0.0,0.0,0.0,0.0,0.0,-4.2647,-4.3285,-4.373,-4.3924,-4.4156,-4.4272,-4.4272,-4.5142,-4.5568,-4.5587,-4.6187,-4.6464,-4.6464,-4.6464,-4.6121,-4.5493,-4.5468,-4.509,-4.4357,-4.3477,-4.2749,-4.221,-4.221,-4.1805,-4.122,-4.1178,-4.117,-4.117,0.0,0.0,0.0,0.0,0.0,0.0,0.0,0.0,0.0,0.0,0.0,0.0,0.0,0.0,-4.0797,-4.0797,-4.0797,-4.0797,0.0,0.0,0.0,0.0,0.0,0.0,0.0,0.0,0.0,-4.3227,-4.3285,-4.3305,-4.3305,-4.3266,-4.3247,-4.3227,-4.3189,-4.2329,-4.0874,-4.0874,-4.0926,-4.098,0.0,0.0,0.0,0.0,0.0,0.0,0.0,0.0,0.0,0.0,0.0,0.0,0.0,0.0,0.0,0.0,0.0,0.0,0.0,0.0,0.0,0.0,0.0,0.0,0.0,0.0,0.0,0.0,0.0,0.0,0.0,0.0,0.0,0.0,0.0,0.0,0.0,0.0,0.0,-4.3283,-4.3331,0.0,0.0,0.0,0.0,-4.3176,-4.3208,-4.3595,-4.442,-4.4516,-4.4891,-4.5652,-4.6477,-4.6902,-4.6902,-4.7773,-4.8217,-4.8217,-4.8256,-4.8275,-4.8275,-4.8275,-4.8256,-4.8191,-4.8133,-4.8079,-4.7782,-4.4471,-4.3085,-4.3028,-4.3028,-4.3008,-4.297,-4.297,-4.297,-4.297,0.0,0.0,0.0,0.0,0.0,0.0,0.0,0.0,0.0,0.0,0.0,0.0,0.0,-4.0797,-4.0797,-4.0797,-4.0797,-4.0797,-4.0797,0.0,0.0,0.0,0.0,0.0,0.0,0.0,-4.413,-4.413,-4.4659,-4.4944,-4.5023,-4.4461,-4.4213,-4.4243,-4.3679,-4.3112,-4.2533,-4.1932,-4.1718,-4.1723,-4.1145,-4.0926,0.0,0.0,0.0,0.0,0.0,0.0,0.0,0.0,0.0,0.0,0.0,0.0,0.0,0.0,0.0,0.0,0.0,0.0,0.0,0.0,0.0,0.0,0.0,0.0,0.0,0.0,0.0,0.0,0.0,0.0,0.0,0.0,0.0,0.0,0.0,0.0,0.0,-4.3528,-4.3447,0.0,0.0,-4.3852,-4.4163,-4.4136,-4.5142,-4.5877,-4.6187,-4.6748,-4.7173,-4.7463,-4.7773,-4.8217,-4.8778,-4.9591,-5.0287,-5.0848,-5.1409,-5.1389,-5.0848,-5.0848,-5.0268,-4.9243,-4.9158,-4.8813,-4.8195,-4.6965,-4.6086,-4.5483,-4.4983,-4.4408,-4.3816,-4.3297,-4.3104,-4.3104,0.0,0.0,0.0,0.0,0.0,0.0,0.0,0.0,0.0,0.0,0.0,-4.0862,-4.0843,-4.0837,-4.082,-4.0797,-4.0797,-4.0913,-4.1184,0.0,0.0,0.0,0.0,0.0,0.0,-4.4717,-4.5007,-4.5007,-4.5529,-4.588,-4.5982,-4.5691,-4.5594,-4.566,-4.5368,-4.5076,-4.4757,-4.3816,-4.2966,-4.2178,-4.1552,-4.1209,-4.1029,0.0,0.0,0.0,0.0,0.0,0.0,0.0,0.0,0.0,0.0,0.0,0.0,0.0,0.0,0.0,0.0,0.0,0.0,0.0,0.0,0.0,0.0,0.0,0.0,0.0,0.0,0.0,0.0,0.0,0.0,0.0,0.0,0.0,0.0,0.0,-4.4518,-4.4802,-4.4708,-4.4743,-4.5064,-4.5577,-4.5877,-4.5877,-4.7173,-4.8101,-4.8372,-4.9204,-4.9823,-5.0113,-5.0113,-5.0403,-5.0983,-5.1505,-5.2066,-5.2655,-5.3207,-5.3188,-5.2635,-5.2635,-5.2028,-5.0983,-5.094,-5.0422,-4.9629,-4.9625,-4.9082,-4.8133,-4.7017,-4.6174,-4.5554,-4.5015,-4.4814,-4.4759,0.0,0.0,0.0,0.0,0.0,0.0,0.0,0.0,0.0,0.0,-4.099,-4.0967,-4.0906,-4.0893,-4.0868,-4.0815,-4.0797,-4.1145,-4.1951,-4.2028,0.0,0.0,0.0,0.0,-4.5787,-4.5807,-4.5807,-4.5833,-4.5833,-4.5925,-4.6109,-4.6892,-4.7319,-4.7476,-4.8259,-4.8181,-4.7395,-4.6459,-4.4643,-4.2405,-4.2225,-4.1731,-4.1122,0.0,0.0,0.0,0.0,0.0,0.0,0.0,0.0,0.0,0.0,0.0,0.0,0.0,0.0,0.0,0.0,0.0,0.0,0.0,0.0,0.0,0.0,0.0,0.0,0.0,0.0,0.0,0.0,0.0,0.0,0.0,0.0,0.0,-4.6341,-4.6289,-4.6506,-4.724,-4.727,-4.7557,-4.8375,-4.8476,-4.8496,-4.8515,-4.9327,-5.0152,-5.0937,-5.1776,-5.2635,-5.3459,-5.3498,-5.3517,-5.3536,-5.3536,-5.3556,-5.3575,-5.3575,-5.3556,-5.3536,-5.3536,-5.3536,-5.3498,-5.3498,-5.3014,-5.2248,-5.2248,-5.1733,-5.0803,-4.9024,-4.8307,-4.8244,-4.8206,-4.8151,-4.799,0.0,0.0,0.0,0.0,0.0,0.0,0.0,0.0,0.0,0.0,-4.0961,-4.0974,-4.0905,-4.089,-4.0864,-4.082,-4.0804,-4.1145,-4.1951,0.0,0.0,0.0,0.0,0.0,-4.5807,-4.5807,-4.6132,-4.6818,-4.6818,-4.7228,-4.8042,-4.8257,-4.842,-4.8507,-4.8722,-4.8683,-4.8429,-4.7544,-4.6395,-4.5072,-4.3679,-4.2638,-4.1903,0.0,0.0,0.0,0.0,0.0,0.0,0.0,0.0,0.0,0.0,0.0,0.0,0.0,0.0,0.0,0.0,0.0,0.0,0.0,0.0,0.0,0.0,0.0,0.0,0.0,0.0,0.0,0.0,0.0,0.0,0.0,0.0,-4.7238,-4.7247,-4.7187,-4.7422,-4.8145,-4.818,-4.8477,-4.9328,-4.9982,-5.0622,-5.1257,-5.2052,-5.2607,-5.279,-5.3014,-5.3246,-5.3478,-5.3498,-5.3807,-5.4445,-5.4445,-5.4735,-5.5316,-5.5316,-5.5006,-5.4445,-5.4445,-5.4097,-5.3498,-5.3498,-5.3362,-5.313,-5.313,-5.2995,-5.2553,-5.0165,-4.9191,-4.9064,-4.8437,-4.8151,-4.8067,0.0,0.0,0.0,0.0,0.0,0.0,0.0,0.0,0.0,0.0,-4.1015,-4.101,-4.0948,-4.0936,-4.089,-4.0816,-4.1139,-4.1692,-4.2492,0.0,0.0,0.0,0.0,-4.5807,-4.5807,-4.6197,-4.6659,-4.7197,-4.7592,-4.8132,-4.8802,-4.9134,-4.9345,-4.9453,-4.9805,-4.9766,-4.9414,-4.8845,-4.7905,-4.6712,-4.5605,-4.4231,-4.2794,-4.2481,-4.2034,-4.1557,-4.122,-4.1106,-4.1107,-4.1107,0.0,0.0,0.0,0.0,0.0,0.0,0.0,0.0,0.0,0.0,0.0,0.0,0.0,0.0,0.0,0.0,0.0,0.0,0.0,0.0,0.0,0.0,0.0,0.0,-4.7549,-4.8353,-4.9085,-4.8552,-4.8489,-4.9562,-4.9683,-5.0129,-5.1289,-5.191,-5.2436,-5.2942,-5.3735,-5.4171,-5.4079,-5.442,-5.4603,-5.4542,-5.4542,-5.4793,-5.5296,-5.5296,-5.5548,-5.6012,-5.6012,-5.576,-5.5296,-5.5296,-5.5026,0.0,-5.4542,-5.4368,-5.4039,-5.4039,-5.3826,0.0,0.0,0.0,0.0,0.0,-4.9229,-4.9144,0.0,0.0,0.0,0.0,0.0,0.0,0.0,0.0,0.0,0.0,0.0,-4.1072,-4.1014,-4.0996,-4.0952,-4.0824,-4.1602,-4.2484,0.0,0.0,0.0,-4.5821,-4.5827,-4.5866,-4.597,-4.6785,-4.732,-4.7529,-4.8351,-4.8864,-4.9101,-4.9824,-5.0226,-5.0371,-5.1074,-5.0996,-5.0312,-5.0106,-4.916,-4.7793,-4.7588,-4.6022,-4.3739,-4.2915,-4.2479,-4.2211,-4.1486,-4.1184,-4.1107,-4.1107,0.0,0.0,0.0,0.0,0.0,0.0,0.0,0.0,0.0,0.0,0.0,0.0,0.0,0.0,0.0,0.0,0.0,0.0,0.0,0.0,0.0,0.0,0.0,0.0,-4.8564,-4.9661,-5.131,-5.0359,-4.998,-5.1346,-5.1567,-5.2177,-5.3646,-5.389,-5.3993,-5.4091,-5.4769,-5.5136,-5.5065,0.0,0.0,0.0,0.0,-5.6018,-5.6018,-5.6018,-5.6018,-5.6018,-5.6018,-5.6018,-5.6018,-5.602,-5.6012,-5.6012,-5.6012,-5.5586,-5.4948,-5.4948,-5.4484,-5.3749,-5.3575,-5.2981,-5.2119,-5.12,-5.0846,0.0,0.0,0.0,0.0,0.0,0.0,0.0,0.0,0.0,0.0,-4.11,-4.1104,-4.1106,-4.1082,-4.103,-4.0994,-4.0953,-4.1652,-4.2759,0.0,0.0,-4.5873,-4.5873,-4.5922,-4.6261,-4.6932,-4.7207,-4.8045,-4.9462,-4.9647,-5.0137,-5.0897,-5.1053,-5.1132,-5.1172,-5.1328,-5.1308,-5.1113,-5.0449,-4.9979,-4.9569,-4.8143,-4.6413,-4.4647,-4.4473,-4.3567,-4.2347,-4.2145,-4.1643,-4.1107,-4.1107,-4.1107,-4.1107,-4.1107,0.0,0.0,0.0,0.0,0.0,0.0,0.0,0.0,0.0,0.0,0.0,0.0,0.0,0.0,0.0,0.0,0.0,0.0,0.0,0.0,-4.9499,-5.034,-5.1261,-5.2305,-5.2776,-5.3102,-5.3359,-5.3389,-5.3791,-5.4789,-5.4914,-5.5211,-5.5928,-5.6123,-5.6156,-5.6037,-5.6183,0.0,-5.6232,-5.6194,-5.6154,-5.6154,-5.6154,-5.6154,-5.6154,0.0,0.0,-5.6167,-5.6059,-5.6012,-5.6012,-5.6012,-5.5915,-5.578,-5.578,-5.5664,-5.5384,-5.3978,-5.3303,-5.3026,-5.2087,-5.1751,-5.1626,0.0,0.0,0.0,0.0,0.0,0.0,0.0,0.0,0.0,0.0,-4.1098,-4.1098,-4.109,-4.1465,-4.1693,-4.1651,-4.275,0.0,0.0,-4.5726,-4.5944,-4.5944,-4.6,-4.6438,-4.7291,-4.783,-4.8728,-4.9994,-5.0477,-5.0935,-5.1406,-5.1406,-5.1406,-5.1406,-5.1406,-5.1406,-5.1367,-5.0976,-5.0566,-5.0098,-4.8789,-4.7459,-4.6156,-4.5244,-4.4377,-4.3589,-4.3119,-4.2688,-4.2354,-4.2354,-4.2354,-4.2354,-4.2354,-4.2354,-4.2354,0.0,0.0,0.0,0.0,0.0,0.0,0.0,0.0,0.0,0.0,0.0,0.0,0.0,0.0,-4.8193,0.0,0.0,-5.0243,-5.0672,-5.1843,-5.3016,-5.3881,-5.4374,-5.4624,-5.4557,-5.4581,-5.4933,-5.5771,-5.5884,-5.6086,-5.6515,-5.6554,-5.6502,-5.641,-5.6407,-5.637,-5.6292,-5.6261,-5.625,-5.625,-5.625,-5.625,-5.625,-5.625,-5.625,-5.625,-5.6187,-5.6135,-5.6102,-5.6102,-5.6056,-5.6012,-5.6012,-5.6012,-5.5907,-5.5039,-5.4433,-5.3932,-5.3029,-5.2712,-5.2569,0.0,0.0,0.0,0.0,0.0,0.0,0.0,0.0,0.0,0.0,0.0,-4.1109,-4.1109,-4.173,-4.2265,0.0,0.0,0.0,0.0,-4.6014,-4.601,-4.6022,-4.6072,-4.6601,-4.7635,-4.8418,-4.9308,-5.0261,-5.1034,-5.1406,-5.1406,-5.1406,-5.1406,-5.1406,-5.1406,-5.1406,-5.1406,-5.1406,-5.0937,-5.0117,-4.9254,-4.8377,-4.7421,-4.5797,-4.5063,-4.4803,-4.4096,-4.3738,-4.3601,-4.3601,-4.3601,-4.3601,-4.3601,-4.3601,-4.3601,-4.3601,-4.3718,0.0,0.0,0.0,0.0,0.0,0.0,0.0,0.0,0.0,-4.782,-4.782,-4.8623,-4.9306,-4.9306,-5.0731,-5.196,-5.2136,-5.3346,-5.4556,-5.5435,-5.554,-5.5539,-5.5483,-5.5527,-5.5801,-5.6465,-5.6579,-5.6601,-5.6601,-5.6601,-5.658,-5.6522,-5.652,-5.6465,-5.6358,-5.6344,-5.6336,-5.6336,-5.6336,-5.6336,-5.6336,-5.6336,-5.6336,-5.6332,-5.6316,-5.6266,-5.6212,-5.6212,-5.6149,-5.6052,-5.6052,-5.6056,-5.6043,-5.6043,-5.5595,-5.4838,-5.398,-5.3644,-5.3531,0.0,0.0,0.0,0.0,0.0,0.0,0.0,0.0,0.0,0.0,0.0,0.0,0.0,0.0,0.0,0.0,0.0,0.0,-4.604,-4.6092,-4.6088,-4.6099,-4.615,-4.6921,-4.8523,-4.8769,-4.9664,-5.1246,-5.1346,-5.1405,-5.1405,-5.1405,-5.1406,-5.1406,-5.1406,-5.1406,-5.1406,-5.1406,-5.0937,-5.0117,-4.9254,-4.8373,-4.7496,-4.6522,-4.562,-4.4881,-4.4784,-4.427,-4.3601,-4.3601,-4.3601,-4.3601,-4.3601,-4.3601,-4.3601,-4.3601,0.0,-4.4757,-4.4757,-4.5384,-4.6289,-4.7229,-4.745,-4.7645,0.0,0.0,-4.8662,-4.8662,-4.9969,-5.1102,-5.1102,-5.2526,-5.3951,-5.4732,-5.5025,-5.5454,-5.6333,-5.645,-5.6458,-5.6432,-5.6459,-5.6483,-5.6582,-5.6601,-5.6601,-5.6601,-5.6601,-5.6601,-5.6582,-5.6581,-5.6581,-5.6561,-5.6501,-5.648,-5.648,-5.648,-5.648,-5.648,-5.648,-5.648,-5.6477,-5.6344,-5.6303,-5.6294,-5.6294,-5.629,-5.6276,-5.6276,-5.6239,-5.6168,-5.6168,-5.6044,-5.5743,-5.4886,-5.4559,-5.4434,0.0,0.0,0.0,0.0,0.0,0.0,0.0,0.0,0.0,0.0,0.0,0.0,0.0,0.0,0.0,0.0,0.0,0.0,-4.6133,-4.6153,-4.6164,-4.6161,-4.622,-4.6815,-4.8026,-4.8118,-4.8954,-5.0637,-5.0639,-5.0894,-5.1402,-5.1402,-5.1402,-5.1404,-5.1402,-5.1402,-5.1365,-5.0857,-5.0446,-5.0016,-4.8683,-4.7938,-4.7509,-4.6637,-4.6034,-4.5664,-4.5668,-4.5421,0.0,0.0,-4.5105,-4.5105,-4.5105,-4.5105,-4.5105,-4.5105,-4.5377,0.0,-4.6281,-4.7042,0.0,0.0,-4.8679,-4.9148,-4.948,-5.034,-5.1063,-5.1063,-5.2058,-5.2917,-5.2917,-5.3912,-5.4888,0.0,-5.5728,-5.6177,-5.6547,-5.6606,-5.661,-5.66,-5.6592,-5.6597,-5.6601,-5.6601,-5.6601,-5.6601,-5.6601,-5.6601,-5.6601,-5.6601,-5.6601,-5.6601,-5.6579,-5.6556,-5.6556,-5.6556,-5.6556,-5.6556,-5.6556,-5.6556,-5.6556,-5.6506,-5.6448,-5.6413,-5.6332,-5.6292,-5.6292,-5.6292,-5.6285,-5.6266,-5.6266,-5.6214,-5.611,-5.5625,-5.5512,-5.5447,0.0,0.0,0.0,0.0,0.0,0.0,0.0,0.0,0.0,0.0,0.0,0.0,0.0,0.0,0.0,0.0,0.0,0.0,0.0,-4.6204,-4.6193,-4.6203,-4.6249,-4.6697,-4.758,-4.7598,-4.8304,-4.9733,-4.9755,-5.0088,-5.0713,-5.0713,-5.0714,-5.0715,-5.0713,-5.0714,-5.0676,-5.0031,-4.9621,-4.9308,-4.8093,-4.7465,-4.7174,-4.6539,-4.6269,-4.6202,-4.6199,-4.6201,0.0,0.0,-4.6199,-4.6199,-4.6199,-4.6199,-4.6199,-4.6199,-4.6378,-4.6797,-4.7917,0.0,0.0,-4.9753,-5.036,-5.0885,-5.1119,-5.2156,-5.3053,-5.3053,-5.3756,-5.4361,-5.4361,-5.5064,-5.5669,-5.5669,-5.6196,-5.6606,-5.6606,-5.6606,-5.6608,-5.6596,-5.6605,-5.6593,-5.6597,-5.6601,-5.6601,-5.6601,-5.6601,-5.6601,-5.6601,-5.6601,-5.6601,-5.6601,-5.6601,-5.6601,-5.6601,-5.6601,-5.6601,-5.6601,-5.6601,-5.6601,-5.6601,-5.6601,-5.6579,-5.6523,-5.6414,-5.6374,-5.6374,-5.6374,-5.6365,-5.6363,-5.6363,-5.6332,-5.6275,-5.6136,-5.6142,-5.6115,0.0,0.0,0.0,0.0,0.0,0.0,0.0,0.0,0.0,0.0,0.0,0.0,0.0,0.0,0.0,0.0,0.0,0.0,0.0,-4.6192,-4.6203,-4.6203,-4.6205,-4.6641,-4.7588,-4.7608,-4.8017,-4.8839,-4.8904,-4.8948,-4.8987,-4.8987,-4.8971,-4.8978,-4.8971,-4.8971,-4.8978,-4.8958,-4.845,-4.7668,-4.7624,-4.7094,-4.6333,-4.6305,-4.6269,-4.6202,-4.6199,0.0,0.0,0.0,-4.6199,-4.6199,-4.6199,-4.6199,0.0,-4.6199,-4.6794,-4.7843,0.0,0.0,-5.0462,-5.2154,-5.2607,-5.2839,-5.3698,-5.3912,-5.3951,-5.3951,-5.4654,-5.5259,-5.5259,-5.5962,-5.6567,-5.6567,-5.6586,-5.6606,-5.6606,-5.6606,-5.6606,-5.6606,-5.6596,-5.6605,0.0,-5.66,-5.6601,-5.6601,-5.6601,-5.6601,-5.6601,-5.6601,-5.6601,-5.6601,-5.6601,-5.6601,-5.6601,-5.6601,-5.6601,-5.6601,-5.6601,-5.6601,-5.6601,-5.6601,-5.6601,-5.6601,-5.6582,-5.6582,-5.6582,-5.6582,-5.6556,-5.6487,-5.6487,-5.6413,-5.6308,-5.6284,-5.6284,-5.6288,0.0,0.0,0.0,0.0,0.0,0.0,0.0,0.0,0.0,0.0,0.0,0.0,0.0,0.0,0.0,0.0,0.0,0.0,0.0,-4.5877,-4.6216,-4.6269,-4.6228,-4.6367,-4.6731,-4.6749,-4.7159,-4.7998,-4.8039,-4.8314,-4.8823,-4.8823,-4.8825,-4.8828,-4.8825,-4.8825,-4.8808,-4.826,-4.787,-4.7559,-4.6964,-4.6558,-4.6305,-4.6245,-4.621,-4.6199,0.0,0.0,0.0,-4.6199,-4.6199,-4.6199,-4.6199,0.0,-4.6316,-4.6895,-4.8509,-5.0224,-5.0803,0.0,-5.2835,-5.3424,-5.399,-5.45,-5.4791,-5.5318,-5.5728,-5.5728,-5.5962,-5.6157,-5.6157,-5.6391,-5.6606,-5.6606,-5.6606,-5.6606,-5.6606,-5.6606,-5.6606,-5.6606,-5.6595,0.0,0.0,0.0,0.0,-5.6601,-5.6601,-5.6601,-5.6601,-5.6601,-5.6601,-5.6601,-5.6601,-5.6601,-5.6601,-5.6601,-5.6601,-5.6601,-5.6601,-5.6601,-5.6601,-5.6601,-5.6601,-5.6601,-5.6601,-5.6601,-5.6601,-5.6601,-5.6581,-5.6578,-5.6578,-5.6535,-5.6508,-5.6508,-5.6508,-5.6483,0.0,0.0,0.0,0.0,0.0,0.0,0.0,0.0,0.0,0.0,0.0,0.0,0.0,0.0,0.0,0.0,0.0,0.0,0.0,0.0,-4.5902,-4.6288,-4.6269,-4.6269,-4.6302,-4.63,-4.6573,-4.7139,-4.7139,-4.7393,-4.79,-4.79,-4.79,-4.79,-4.79,-4.79,-4.7861,-4.7354,-4.7144,-4.7094,-4.6539,-4.6288,-4.6269,-4.6225,-4.6206,0.0,0.0,0.0,0.0,-4.6199,-4.6199,-4.6199,-4.6199,-4.6417,-4.695,-4.8422,-5.0062,-5.1603,-5.2508,-5.3591,-5.4537,-5.4849,-5.5357,-5.5767,-5.5767,-5.6196,-5.6508,-5.6196,-5.6138,-5.604,-5.5728,-5.5923,-5.6138,-5.6138,-5.6391,-5.6606,-5.6606,-5.6606,-5.6606,-5.6606,-5.6593,0.0,0.0,0.0,0.0,-5.6601,-5.6601,-5.6601,-5.6601,-5.6601,-5.6601,-5.6601,-5.6601,-5.6601,-5.6601,-5.6601,-5.6601,-5.6601,-5.6601,-5.6601,-5.6601,-5.6601,-5.6601,-5.6601,-5.6601,-5.6601,-5.6601,-5.6601,-5.6601,-5.6601,-5.6601,-5.6601,-5.6601,-5.6601,-5.6601,-5.6581,0.0,0.0,0.0,0.0,0.0,0.0,0.0,0.0,0.0,0.0,0.0,0.0,0.0,0.0,0.0,0.0,0.0,0.0,0.0,0.0,0.0,-4.619,-4.6229,-4.6244,-4.6302,-4.63,-4.63,-4.63,-4.63,-4.63,-4.63,-4.63,-4.63,-4.63,-4.63,-4.63,-4.63,-4.63,-4.6274,-4.6228,-4.6229,-4.6172,-4.6085,-4.612,0.0,0.0,0.0,0.0,0.0,0.0,0.0,0.0,0.0,-4.6852,-4.8058,-5.0573,-5.1417,-5.2062,-5.454,-5.527,-5.5571,-5.6391,-5.6606,-5.6606,-5.6606,-5.6567,-5.6294,-5.5474,-5.5259,-5.4986,0.0,0.0,-5.524,-5.53,-5.5981,-5.6547,-5.6586,-5.6606,-5.6606,0.0,0.0,0.0,0.0,0.0,0.0,-5.6598,0.0,-5.6601,-5.6601,-5.6601,-5.6601,-5.6601,-5.6601,-5.6601,-5.6601,-5.6601,-5.6601,-5.6601,-5.6601,-5.6601,-5.6601,-5.6601,-5.6601,-5.6601,-5.6601,-5.6601,-5.6601,-5.6601,-5.6601,-5.6601,-5.6601,-5.6601,-5.6601,-5.6601,-5.6601,-5.6601,0.0,0.0,0.0,0.0,0.0,0.0,0.0,0.0,0.0,0.0,0.0,0.0,0.0,0.0,0.0,0.0,0.0,0.0,0.0,0.0,0.0,0.0,0.0,0.0,-4.6282,-4.63,-4.63,-4.63,-4.63,-4.63,-4.63,-4.63,-4.63,-4.63,-4.63,-4.63,-4.63,-4.63,-4.5932,-4.5336,0.0,-4.4898,-4.4403,0.0,0.0,0.0,0.0,0.0,0.0,0.0,0.0,0.0,0.0,-4.7768,-4.8853,-5.0798,-5.2311,-5.3626,-5.4921,-5.5765,-5.6313,-5.6547,-5.6606,-5.6606,-5.6606,-5.6098,-5.5571,-5.5357,-5.4771,-5.4264,0.0,0.0,0.0,-5.5181,-5.5493,0.0,-5.6508,-5.6606,0.0,-5.6606,0.0,-5.6606,-5.661,-5.6596,0.0,0.0,-5.6597,-5.6601,-5.6601,-5.6601,-5.6601,-5.6601,-5.6601,-5.6601,-5.6601,-5.6601,-5.6601,-5.6601,-5.6601,-5.6601,-5.6601,-5.6601,-5.6601,-5.6601,-5.6601,-5.6601,-5.6601,-5.6601,-5.6601,-5.6601,-5.6601,-5.6601,-5.6601,-5.6601,-5.6601,-5.6601,0.0,0.0,0.0,0.0,0.0,0.0,0.0,0.0,0.0,0.0,0.0,0.0,0.0,0.0,0.0,0.0,0.0,0.0,0.0,0.0,0.0,0.0,0.0,0.0,-4.5714,-4.5734,-4.5929,-4.63,0.0,0.0,0.0,-4.5909,-4.5734,-4.5714,-4.5324,-4.5168,-4.5168,-4.5168,0.0,0.0,0.0,0.0,0.0,0.0,0.0,0.0,0.0,0.0,0.0,0.0,0.0,-4.642,-4.7674,-4.8661,-4.9786,-5.1923,0.0,-5.4765,-5.5628,-5.6235,-5.6606,-5.6606,-5.6606,-5.6508,-5.6118,-5.565,-5.5086,-5.4324,-5.3776,0.0,0.0,0.0,0.0,0.0,0.0,0.0,-5.5962,-5.6352,-5.6606,0.0,-5.6606,0.0,-5.6606,-5.6591,-5.6596,0.0,-5.6595,-5.66,-5.6601,-5.6601,-5.6601,-5.6601,-5.6601,-5.6601,-5.6601,-5.6601,-5.6601,-5.6601,-5.6601,-5.6601,-5.6601,-5.6601,-5.6601,-5.6601,0.0,-5.6601,-5.6601,-5.6601,-5.6601,-5.6601,-5.6601,-5.6601,-5.6601,-5.6601,-5.6601,-5.6601,0.0,0.0,0.0,0.0,0.0,0.0,0.0,0.0,0.0,0.0,0.0,0.0,0.0,0.0,0.0,0.0,0.0,0.0,0.0,0.0,0.0,0.0,0.0,0.0,-4.4816,-4.4836,-4.5207,-4.5948,0.0,0.0,0.0,0.0,0.0,0.0,0.0,0.0,0.0,0.0,0.0,0.0,0.0,0.0,0.0,0.0,0.0,0.0,0.0,0.0,0.0,0.0,-4.6209,-4.6501,-4.8251,-4.9396,-5.0618,-5.3235,-5.4628,-5.5493,-5.6352,-5.6606,-5.6606,-5.6606,-5.6508,-5.6235,-5.5474,-5.5125,-5.45,-5.286,0.0,-5.2097,-5.1219,0.0,-5.2392,-5.2509,0.0,-5.5162,-5.5281,-5.6059,-5.6606,-5.6606,-5.6606,-5.6606,-5.6606,-5.6606,-5.661,-5.6598,-5.6593,-5.6598,-5.6599,-5.6601,-5.6601,-5.6601,-5.6601,-5.6601,-5.6601,-5.6601,-5.6601,-5.6601,-5.6601,-5.6601,-5.6601,-5.6601,-5.6601,-5.6601,0.0,0.0,-5.6601,-5.6601,-5.6601,-5.6601,-5.6601,-5.6601,-5.6601,-5.6601,-5.6601,-5.6601,0.0,0.0,0.0,0.0,0.0,0.0,0.0,0.0,0.0,0.0,-4.6256,-4.621,0.0,0.0,0.0,0.0,0.0,0.0,0.0,0.0,0.0,0.0,0.0,0.0,0.0,0.0,0.0,0.0,0.0,0.0,0.0,0.0,0.0,0.0,0.0,0.0,0.0,0.0,0.0,0.0,0.0,0.0,0.0,0.0,0.0,0.0,0.0,0.0,0.0,0.0,-4.6203,-4.6499,-4.8248,-4.9391,-5.061,-5.3225,-5.4615,-5.5493,-5.6352,-5.6606,-5.6606,-5.6606,-5.6059,-5.5493,-5.5337,-5.4188,0.0,0.0,0.0,-5.0282,-4.9403,-4.9969,0.0,-5.1511,0.0,0.0,0.0,0.0,-5.6606,0.0,0.0,0.0,0.0,0.0,0.0,0.0,0.0,0.0,-5.6599,-5.66,-5.6601,-5.6601,-5.6601,-5.6601,-5.6601,-5.6601,-5.6601,-5.6601,-5.6601,-5.6601,-5.6601,-5.6601,-5.6601,-5.6601,0.0,0.0,-5.6601,-5.6601,-5.6601,-5.6601,-5.6601,-5.6601,-5.6601,-5.6601,-5.6601,-5.6601,0.0,0.0,0.0,0.0,0.0,0.0,0.0,-4.6199,-4.6211,-4.6247,-4.6228,-4.6204,-4.6197,-4.6203,0.0,0.0,0.0,0.0,0.0,0.0,0.0,0.0,0.0,0.0,0.0,0.0,0.0,0.0,0.0,0.0,0.0,0.0,0.0,0.0,0.0,0.0,0.0,0.0,0.0,0.0,0.0,0.0,0.0,0.0,0.0,0.0,0.0,0.0,0.0,0.0,-4.5518,-4.5919,-4.8103,-4.9399,-5.0612,-5.3229,-5.4615,-5.5493,-5.6352,-5.6606,-5.6489,-5.604,-5.5611,-5.5066,-5.4149,0.0,0.0,0.0,-5.0028,-4.9306,-4.8876,0.0,0.0,0.0,0.0,0.0,0.0,0.0,0.0,0.0,0.0,0.0,0.0,0.0,0.0,0.0,0.0,0.0,-5.6592,-5.6597,-5.66,-5.6601,-5.6601,-5.6601,-5.6601,-5.6601,-5.6601,-5.6601,-5.6601,-5.6601,-5.6601,-5.6601,-5.6601,-5.6601,-5.6601,0.0,-5.6601,-5.6601,-5.6601,-5.6601,-5.6601,-5.6601,-5.6601,-5.6601,-5.6601,-5.6601,0.0,0.0,0.0,0.0,0.0,0.0,0.0,-4.6209,-4.6229,-4.6229,-4.6225,-4.6226,-4.6192,-4.619,-4.6199,0.0,0.0,0.0,0.0,0.0,0.0,0.0,0.0,0.0,0.0,0.0,0.0,0.0,0.0,0.0,0.0,0.0,0.0,0.0,0.0,0.0,0.0,0.0,0.0,0.0,0.0,0.0,0.0,0.0,0.0,0.0,0.0,0.0,0.0,0.0,-4.4908,-4.5311,-4.7752,-4.9243,-5.0534,-5.28,-5.4186,-5.5162,-5.5864,-5.604,-5.5884,-5.5181,-5.4888,-5.4344,-5.2782,-5.1746,0.0,0.0,-4.9013,-4.8486,-4.8291,0.0,-4.9616,0.0,0.0,0.0,0.0,0.0,0.0,0.0,0.0,0.0,0.0,0.0,0.0,0.0,0.0,0.0,0.0,-5.6595,-5.66,-5.6601,-5.6601,-5.6601,-5.6601,-5.6601,-5.6601,-5.6601,-5.6601,-5.6601,-5.6601,-5.6601,-5.6601,-5.6601,0.0,0.0,0.0,-5.6601,-5.6601,-5.6601,-5.6601,-5.6601,-5.6601,-5.6601,-5.6601,-5.6601,0.0,0.0,0.0,0.0,0.0,0.0,0.0,-4.6244,-4.6285,-4.6285,-4.6292,-4.6279,-4.6206,-4.62,-4.6199,0.0,0.0,0.0,0.0,0.0,0.0,0.0,0.0,0.0,0.0,0.0,0.0,0.0,0.0,0.0,0.0,0.0,0.0,0.0,0.0,0.0,0.0,0.0,0.0,0.0,0.0,0.0,0.0,0.0,0.0,0.0,0.0,0.0,0.0,0.0,0.0,-4.5217,-4.7045,-4.8762,-5.0299,-5.1336,0.0,0.0,-5.4225,-5.4244,-5.4225,-5.4147,-5.3522,-5.2685,-5.1746,0.0,0.0,-4.8152,-4.7762,-4.7471,-4.6671,-4.7237,-4.8074,0.0,0.0,0.0,0.0,0.0,0.0,0.0,0.0,0.0,0.0,0.0,0.0,0.0,0.0,0.0,0.0,-5.6595,-5.6599,-5.66,-5.6601,-5.6601,-5.6601,-5.6601,-5.6601,-5.6601,-5.6601,-5.6601,-5.6601,-5.6601,-5.6601,-5.6601,0.0,0.0,0.0,-5.6601,-5.6601,-5.6601,-5.6601,-5.6601,-5.6601,-5.6601,-5.6601,-5.6601,0.0,0.0,0.0,0.0,0.0,0.0,-4.6243,-4.629,-4.63,-4.63,-4.6292,-4.626,-4.6209,-4.6198,-4.6203,0.0,0.0,0.0,0.0,0.0,0.0,0.0,0.0,0.0,0.0,0.0,0.0,0.0,0.0,0.0,0.0,0.0,0.0,0.0,0.0,0.0,0.0,0.0,0.0,0.0,0.0,0.0,0.0,0.0,0.0,0.0,0.0,0.0,0.0,0.0,0.0,0.0,-4.5549,-4.7125,0.0,0.0,-5.1898,-5.2663,-5.3717,-5.401,-5.3873,-5.3346,-5.2565,-5.1687,-5.0828,0.0,-4.8406,-4.7742,-4.7178,-4.671,-4.6358,-4.7002,-4.7859,0.0,0.0,0.0,0.0,0.0,0.0,0.0,0.0,0.0,0.0,0.0,0.0,0.0,0.0,0.0,0.0,-5.6605,-5.6593,-5.6596,-5.6599,-5.6601,-5.6601,-5.6601,-5.6601,-5.6601,-5.6601,-5.6601,-5.6601,-5.6601,-5.6601,-5.6601,0.0,0.0,0.0,-5.6601,-5.6601,-5.6601,-5.6601,-5.6601,-5.6601,-5.6601,-5.6601,-5.6601,0.0,0.0,0.0,0.0,0.0,-4.6229,-4.6287,-4.63,-4.63,-4.63,-4.6294,-4.6286,-4.6233,-4.6233,-4.6223,-4.6196,0.0,0.0,0.0,0.0,0.0,0.0,0.0,0.0,0.0,0.0,0.0,-4.4056,0.0,0.0,0.0,0.0,0.0,0.0,0.0,0.0,0.0,0.0,0.0,0.0,0.0,0.0,0.0,0.0,0.0,0.0,0.0,0.0,0.0,0.0,0.0,0.0,0.0,0.0,0.0,0.0,-5.0428,-5.0902,-5.2134,-5.2468,-5.2312,-5.1707,-5.1082,-5.0418,0.0,0.0,-4.7528,-4.7276,-4.6729,-4.63,-4.63,-4.6807,-4.749,0.0,0.0,-5.0321,0.0,0.0,0.0,0.0,0.0,0.0,0.0,0.0,0.0,0.0,0.0,0.0,0.0,-5.6593,-5.6602,-5.6609,-5.6596,-5.6598,-5.6598,-5.66,-5.6601,-5.6601,-5.6601,-5.6601,-5.6601,-5.6601,-5.6601,0.0,0.0,0.0,0.0,-5.6601,-5.6601,-5.6601,-5.6601,-5.6601,-5.6601,-5.6601,-5.6601,-5.6601,0.0,0.0,0.0,0.0,0.0,0.0,-4.6287,-4.63,-4.63,-4.63,-4.63,-4.6296,-4.6306,-4.6303,-4.626,-4.6209,0.0,0.0,0.0,0.0,0.0,0.0,0.0,0.0,0.0,0.0,-4.5755,-4.4894,-4.4941,-4.4549,0.0,0.0,0.0,0.0,0.0,0.0,0.0,0.0,0.0,0.0,0.0,0.0,0.0,0.0,0.0,0.0,0.0,0.0,0.0,0.0,0.0,0.0,0.0,0.0,0.0,0.0,-4.8157,-4.8825,-4.8855,-4.8857,-4.8857,-4.8837,-4.8837,-4.8623,0.0,0.0,-4.7352,-4.6495,-4.63,-4.63,-4.63,-4.63,-4.6593,-4.7469,-4.8291,0.0,0.0,0.0,0.0,0.0,0.0,0.0,0.0,0.0,0.0,0.0,0.0,0.0,0.0,0.0,-5.6591,-5.6602,-5.6609,-5.6593,-5.6593,-5.6593,-5.6596,-5.6599,-5.6599,-5.6601,-5.6601,-5.6601,0.0,0.0,0.0,0.0,0.0,-5.6601,-5.6601,-5.6601,-5.6601,-5.6601,-5.6601,-5.6601,-5.6601,-5.6601,0.0,0.0,0.0,0.0,0.0,0.0,0.0,-4.63,-4.63,-4.63,-4.63,-4.6296,-4.6306,-4.6292,-4.6292,-4.626,0.0,0.0,0.0,0.0,0.0,0.0,0.0,0.0,0.0,0.0,-4.6067,-4.5793,-4.5859,-4.5722,-4.5408,-4.484,-4.4569,0.0,0.0,0.0,0.0,0.0,0.0,0.0,0.0,0.0,0.0,0.0,0.0,0.0,0.0,0.0,0.0,0.0,0.0,0.0,0.0,0.0,0.0,-4.6368,0.0,0.0,-4.8638,-4.8796,-4.8796,-4.8796,-4.8345,-4.784,-4.7594,-4.7108,-4.6622,-4.6368,-4.629,-4.6288,-4.624,-4.6238,-4.6514,-4.7398,-4.8242,0.0,0.0,0.0,0.0,0.0,0.0,0.0,0.0,0.0,0.0,0.0,0.0,0.0,0.0,0.0,-5.6606,-5.6591,-5.66,-5.6605,-5.6605,-5.6591,-5.6594,-5.6595,-5.6595,-5.6597,-5.66,-5.66,0.0,0.0,0.0,0.0,0.0,-5.6601,-5.6601,-5.6601,-5.6601,-5.6601,-5.6601,-5.6601,-5.6601,-5.6601,0.0,0.0,0.0,0.0,0.0,0.0,0.0,-4.63,-4.63,-4.63,-4.63,-4.6298,-4.6292,-4.6296,-4.6298,-4.6292,0.0,0.0,0.0,0.0,0.0,0.0,0.0,0.0,0.0,-4.494,-4.5223,-4.5223,-4.5266,-4.5269,-4.5242,-4.5078,-4.498,-4.492,-4.4417,0.0,0.0,0.0,0.0,0.0,0.0,0.0,-4.11,0.0,0.0,0.0,0.0,0.0,0.0,0.0,0.0,0.0,0.0,0.0,0.0,0.0,-4.6573,-4.7128,0.0,-4.7828,-4.7828,-4.7828,-4.7415,0.0,0.0,-4.6628,-4.6258,-4.6258,-4.6258,-4.6255,-4.6209,-4.6206,-4.6384,-4.6918,-4.8018,0.0,0.0,0.0,0.0,0.0,0.0,0.0,0.0,0.0,0.0,0.0,0.0,0.0,0.0,0.0,-5.6606,-5.6606,-5.6593,-5.6596,-5.6596,-5.6602,-5.6606,-5.6609,-5.6609,-5.6593,-5.6597,0.0,0.0,0.0,0.0,0.0,0.0,-5.6601,-5.6601,-5.6601,-5.6601,-5.6601,-5.6601,-5.6601,-5.6601,-5.6601,0.0,0.0,0.0,0.0,0.0,0.0,0.0,0.0,-4.63,-4.63,-4.63,-4.63,-4.63,-4.63,-4.63,-4.63,0.0,0.0,0.0,0.0,0.0,0.0,0.0,0.0,-4.3504,-4.3562,-4.3601,-4.3601,-4.3597,-4.3638,-4.3702,-4.4525,-4.4917,-4.4905,-4.4906,-4.4426,-4.3495,-4.1876,-4.1152,-4.1093,-4.1093,-4.1106,0.0,0.0,0.0,0.0,0.0,0.0,0.0,0.0,0.0,0.0,0.0,0.0,0.0,0.0,0.0,0.0,0.0,-4.6203,0.0,0.0,0.0,0.0,-4.6206,-4.6206,0.0,-4.6206,-4.6206,-4.6206,-4.6203,-4.6203,-4.6223,-4.6284,0.0,0.0,0.0,0.0,0.0,0.0,0.0,0.0,0.0,0.0,0.0,0.0,0.0,0.0,0.0,0.0,0.0,-5.6606,-5.6606,-5.6606,-5.6606,-5.6606,-5.6591,-5.66,-5.66,-5.6605,-5.6592,0.0,0.0,0.0,0.0,0.0,0.0,-5.6597,-5.6599,-5.6599,-5.6599,-5.6599,-5.6599,-5.6599,-5.6599,-5.6599,0.0,0.0,0.0,0.0,0.0,0.0,0.0,0.0,0.0,0.0,-4.63,-4.63,-4.63,-4.63,-4.63,0.0,0.0,0.0,0.0,0.0,0.0,0.0,0.0,0.0,-4.2607,-4.325,-4.3601,-4.3601,-4.3641,-4.3652,-4.3626,-4.389,-4.4012,-4.4009,-4.4018,-4.3525,-4.2672,-4.2262,-4.171,-4.1093,-4.1093,-4.1091,0.0,0.0,0.0,0.0,-4.1094,-4.1107,0.0,0.0,0.0,0.0,0.0,0.0,0.0,0.0,-4.5683,-4.6196,-4.6193,0.0,-4.619,-4.619,-4.619,-4.6193,0.0,-4.6189,-4.6189,-4.6189,-4.6189,-4.6206,-4.6193,-4.619,-4.643,0.0,0.0,0.0,0.0,0.0,0.0,0.0,0.0,0.0,0.0,0.0,0.0,0.0,0.0,0.0,0.0,0.0,0.0,-5.6606,-5.6606,-5.6606,-5.6606,-5.6606,-5.6606,-5.661,-5.661,-5.6595,-5.6605,0.0,0.0,0.0,0.0,0.0,-5.6593,-5.6594,-5.6595,-5.6595,-5.6595,-5.6595,-5.6595,-5.6595,-5.6595,-5.6595,0.0,0.0,0.0,0.0,0.0,0.0,0.0,0.0,0.0,0.0,0.0,0.0,0.0,0.0,0.0,0.0,0.0,0.0,0.0,0.0,0.0,0.0,0.0,-4.1788,-4.1752,-4.2214,-4.2448,-4.2454,-4.2483,-4.2488,-4.2459,-4.2902,-4.3102,-4.3092,-4.3097,-4.2843,-4.237,-4.196,-4.1527,-4.1092,-4.1092,0.0,0.0,0.0,0.0,0.0,-4.1106,-4.1103,0.0,-4.1091,-4.1107,-4.1244,0.0,0.0,0.0,0.0,-4.5232,-4.5683,-4.6082,-4.6199,-4.6199,-4.6199,-4.6199,-4.6199,-4.619,-4.6193,-4.6193,-4.6193,0.0,0.0,0.0,0.0,0.0,0.0,0.0,0.0,0.0,0.0,0.0,0.0,0.0,0.0,0.0,0.0,0.0,0.0,0.0,0.0,0.0,0.0,0.0,0.0,-5.6606,-5.6606,-5.6606,-5.6606,-5.6606,-5.6606,-5.6606,-5.6608,-5.6595,0.0,0.0,0.0,0.0,0.0,-5.6603,-5.6606,-5.6607,-5.6607,-5.6607,-5.6607,-5.6607,-5.6607,-5.6607,-5.6607,0.0,0.0,0.0,0.0,0.0,0.0,0.0,0.0,0.0,0.0,0.0,0.0,0.0,0.0,0.0,0.0,0.0,0.0,0.0,0.0,0.0,0.0,0.0,-4.1107,-4.1093,-4.1103,-4.1103,-4.1093,-4.1106,-4.1093,-4.1113,-4.1858,-4.2194,-4.2201,-4.2337,-4.2337,-4.2162,-4.1557,-4.1226,-4.1109,-4.1109,0.0,0.0,0.0,0.0,0.0,0.0,0.0,0.0,-4.11,-4.1094,-4.1211,-4.1893,0.0,0.0,0.0,0.0,0.0,-4.5809,-4.6102,-4.6199,-4.6199,-4.6199,-4.6199,-4.6199,0.0,0.0,0.0,0.0,0.0,0.0,-4.631,0.0,0.0,0.0,0.0,0.0,0.0,0.0,0.0,0.0,0.0,0.0,0.0,0.0,0.0,0.0,0.0,0.0,0.0,0.0,0.0,-5.6531,-5.6555,-5.6555,-5.6582,-5.6606,-5.6606,-5.6606,-5.6606,-5.6606,-5.6606,0.0,0.0,0.0,0.0,-5.6606,-5.6596,-5.6598,-5.6598,-5.6598,-5.6598,-5.6598,-5.6598,-5.6598,-5.658,0.0,0.0,0.0,0.0,0.0,0.0,0.0,0.0,0.0,0.0,0.0,0.0,0.0,0.0,0.0,0.0,0.0,0.0,0.0,0.0,0.0,-4.2236,-4.1488,-4.1107,-4.1093,-4.1091,-4.1091,-4.1093,-4.1103,-4.109,-4.1094,-4.1239,-4.1303,-4.1324,-4.2064,-4.1986,-4.1343,-4.1947,-4.1771,-4.1109,-4.1109,0.0,0.0,0.0,0.0,0.0,0.0,0.0,0.0,-4.1108,-4.11,-4.1112,-4.1248,0.0,0.0,0.0,0.0,0.0,-4.5053,-4.5634,-4.6199,-4.6199,-4.6199,-4.6199,-4.6199,-4.6199,0.0,0.0,0.0,0.0,0.0,0.0,0.0,0.0,0.0,0.0,0.0,0.0,0.0,0.0,0.0,0.0,0.0,0.0,0.0,0.0,0.0,0.0,0.0,0.0,0.0,0.0,0.0,-5.6348,-5.6348,-5.6506,-5.6606,-5.6606,-5.6606,-5.6606,-5.6606,-5.6606,-5.6606,0.0,0.0,-5.6606,-5.6606,-5.6608,-5.6608,-5.6608,-5.6608,-5.6608,-5.6608,-5.6608,-5.6608,-5.6493,0.0,0.0,0.0,0.0,0.0,0.0,0.0,0.0,0.0,0.0,0.0,0.0,0.0,0.0,0.0,0.0,0.0,0.0,0.0,0.0,0.0,-4.3138,-4.2275,-4.1587,-4.1115,-4.1107,-4.1107,-4.1095,-4.1094,-4.1097,-4.1103,-4.1106,-4.1109,-4.1129,-4.1518,-4.1479,-4.1129,-4.1537,-4.1479,-4.1109,0.0,0.0,0.0,0.0,0.0,0.0,0.0,0.0,0.0,0.0,-4.1106,-4.1095,-4.1095,0.0,0.0,0.0,0.0,0.0,-4.4075,-4.4481,-4.4793,-4.4793,-4.5494,-4.6199,-4.6199,-4.6199,0.0,0.0,0.0,0.0,0.0,0.0,0.0,0.0,0.0,0.0,0.0,0.0,0.0,0.0,0.0,0.0,0.0,0.0,0.0,0.0,0.0,0.0,0.0,0.0,0.0,0.0,0.0,-5.6186,-5.6186,-5.6271,-5.6422,-5.6606,-5.6606,-5.6606,-5.6606,-5.6606,-5.6606,-5.6606,0.0,-5.6606,-5.6606,-5.6606,-5.6606,-5.6584,-5.6475,-5.6503,-5.6606,-5.6606,-5.6606,-5.6489,0.0,0.0,0.0,0.0,0.0,0.0,0.0,0.0,0.0,0.0,0.0,0.0,0.0,0.0,0.0,0.0,0.0,0.0,0.0,0.0,-4.4602,-4.3744,-4.2864,-4.1986,-4.1129,-4.1101,-4.1101,-4.1109,-4.1101,-4.1101,-4.1109,-4.1109,-4.1109,-4.1109,-4.1109,-4.1109,-4.1109,-4.1109,-4.1109,-4.1109,0.0,0.0,0.0,0.0,0.0,0.0,0.0,0.0,0.0,0.0,0.0,0.0,0.0,0.0,0.0,-4.1848,-4.214,-4.2452,-4.3114,-4.3445,-4.3601,-4.3601,-4.4754,-4.5907,-4.5907,-4.6043,-4.6199,0.0,0.0,0.0,0.0,0.0,0.0,0.0,0.0,0.0,0.0,0.0,0.0,0.0,0.0,0.0,0.0,0.0,0.0,0.0,0.0,0.0,0.0,0.0,0.0,0.0,0.0,0.0,-5.6044,-5.6078,-5.623,-5.6488,-5.6488,-5.6488,-5.6488,-5.6488,-5.6488,-5.6488,-5.6488,-5.6488,-5.6488,-5.6488,-5.6488,-5.6462,-5.6303,-5.6359,-5.6469,-5.6273,-5.6195,-5.6043,0.0,0.0,0.0,0.0,0.0,0.0,0.0,0.0,0.0,0.0,0.0,0.0,0.0,0.0,0.0,0.0,0.0,0.0,0.0,0.0,-4.4602,-4.3744,-4.2864,-4.1986,-4.1129,-4.1108,-4.1108,-4.1109,-4.1108,-4.1108,-4.1109,-4.1109,-4.1109,-4.1109,-4.1109,-4.1109,-4.1109,-4.1109,-4.1109,-4.1109,-4.1109,0.0,0.0,0.0,0.0,0.0,0.0,0.0,0.0,0.0,0.0,0.0,0.0,0.0,-4.1107,-4.1166,-4.1711,-4.2315,-4.2374,-4.2978,-4.3601,-4.3601,-4.4306,-4.4991,-4.4991,-4.5615,0.0,-4.6199,0.0,0.0,0.0,0.0,0.0,0.0,0.0,0.0,0.0,0.0,0.0,0.0,0.0,0.0,0.0,0.0,0.0,0.0,0.0,0.0,0.0,0.0,0.0,0.0,0.0,0.0,-5.5913,-5.6049,-5.6104,-5.6148,-5.6148,-5.6148,-5.6148,-5.6148,-5.6148,-5.6148,-5.6148,-5.6148,-5.6148,-5.6148,-5.6148,-5.6122,-5.6116,-5.6116,-5.6051,-5.5293,-5.5027,-5.4811,0.0,0.0,0.0,0.0,0.0,0.0,0.0,0.0,0.0,0.0,0.0,0.0,0.0,0.0,0.0,0.0,0.0,0.0,0.0,-4.5987,-4.5421,-4.4543,-4.3665,-4.2806,-4.1927,-4.1382,-4.1109,-4.1109,-4.1109,-4.1109,-4.1109,-4.1109,-4.1109,-4.1109,-4.1109,-4.1109,-4.1109,-4.1109,-4.1109,-4.1109,-4.1109,-4.1109,0.0,0.0,0.0,0.0,0.0,0.0,0.0,0.0,-4.1099,-4.1105,0.0,-4.11,-4.1103,-4.1094,-4.1322,-4.1555,-4.1555,-4.1789,-4.2179,-4.2666,-4.3445,0.0,0.0,-4.5576,-4.6199,-4.6199,-4.6628,0.0,0.0,0.0,0.0,0.0,0.0,0.0,0.0,0.0,0.0,0.0,0.0,0.0,0.0,0.0,0.0,0.0,0.0,0.0,0.0,0.0,0.0,0.0,0.0,0.0,0.0,-5.4263,-5.4308,-5.4308,-5.553,-5.6097,-5.6097,-5.6097,-5.6097,-5.6097,-5.6097,-5.6097,-5.6097,-5.6097,-5.6097,-5.6097,-5.6097,-5.5733,-5.5203,-5.4984,-5.4549,-5.394,0.0,0.0,0.0,0.0,0.0,0.0,0.0,0.0,0.0,0.0,0.0,0.0,0.0,0.0,0.0,0.0,0.0,0.0,-4.63,-4.63,-4.5909,-4.5049,-4.4172,-4.3294,-4.2415,-4.1557,-4.1109,-4.1109,-4.1109,-4.1109,-4.1109,-4.1109,-4.1109,-4.1109,-4.1109,-4.1109,-4.1109,-4.1109,-4.1109,-4.1109,-4.1109,-4.1109,0.0,0.0,0.0,0.0,0.0,0.0,0.0,0.0,-4.1103,0.0,0.0,0.0,0.0,0.0,-4.1097,-4.1097,-4.1091,-4.1094,-4.1292,-4.2104,0.0,0.0,-4.4699,-4.5576,-4.6277,-4.655,-4.7463,0.0,0.0,0.0,0.0,0.0,0.0,0.0,0.0,0.0,0.0,0.0,0.0,0.0,0.0,0.0,0.0,0.0,0.0,0.0,0.0,0.0,0.0,0.0,0.0,0.0,-5.3203,-5.3203,-5.3203,-5.3222,-5.4544,-5.518,-5.518,-5.518,-5.5335,-5.5587,-5.5587,-5.5742,-5.5975,-5.5975,-5.5975,-5.5955,-5.5684,-5.5205,-5.4578,-5.4115,-5.3579,-5.2947,0.0,0.0,0.0,0.0,0.0,0.0,0.0,0.0,0.0,0.0,0.0,0.0,0.0,0.0,0.0,0.0,0.0,0.0,-4.63,-4.63,-4.5909,-4.5049,-4.4172,-4.3294,-4.2435,-4.1557,-4.1109,-4.1109,-4.1109,-4.1109,-4.1109,-4.1109,-4.1109,-4.1109,-4.1109,-4.1109,-4.1109,-4.1109,-4.1109,-4.1109,-4.1109,-4.1109,-4.1109,0.0,0.0,0.0,0.0,0.0,0.0,0.0,-4.1103,-4.1094,0.0,0.0,0.0,-4.1095,-4.1095,-4.1092,-4.1094,-4.1103,-4.1307,-4.2107,0.0,0.0,-4.4718,-4.5576,-4.6452,-4.7326,0.0,-4.9692,0.0,0.0,0.0,0.0,0.0,0.0,0.0,0.0,0.0,0.0,0.0,0.0,0.0,0.0,0.0,0.0,0.0,0.0,0.0,0.0,0.0,0.0,0.0,0.0,-5.3183,-5.3183,-5.3183,-5.3183,-5.3183,-5.3183,-5.3203,-5.3203,-5.3664,-5.4491,-5.4491,-5.4934,-5.5684,-5.5684,-5.5684,-5.5588,-5.4799,-5.4472,-5.426,-5.2538,-5.1885,-5.178,0.0,0.0,0.0,0.0,0.0,0.0,0.0,0.0,0.0,0.0,0.0,0.0,0.0,0.0,0.0,0.0,0.0,0.0,-4.6309,-4.6303,-4.6183,-4.5929,-4.509,-4.4211,-4.3333,-4.1851,-4.1109,-4.1109,-4.1109,-4.1109,-4.1109,-4.1109,-4.1109,-4.1109,-4.1109,-4.1109,-4.1109,-4.1109,-4.1109,-4.1109,-4.1109,-4.1109,-4.1109,0.0,0.0,0.0,0.0,0.0,0.0,0.0,0.0,0.0,0.0,0.0,0.0,-4.11,-4.1095,-4.1092,-4.1094,-4.1094,0.0,-4.2861,0.0,0.0,0.0,-4.6004,0.0,0.0,0.0,0.0,0.0,0.0,0.0,0.0,0.0,0.0,0.0,0.0,0.0,0.0,0.0,0.0,0.0,0.0,0.0,0.0,0.0,0.0,0.0,0.0,0.0,0.0,0.0,0.0,-5.1373,-5.1413,-5.1433,-5.1433,-5.1433,-5.2068,-5.3203,-5.3203,-5.3337,-5.3587,-5.3587,-5.3722,-5.3933,-5.3933,-5.3933,-5.3914,-5.3683,-5.3222,-5.2596,-5.2096,-5.1154,-5.0115,0.0,0.0,0.0,0.0,0.0,0.0,0.0,0.0,0.0,0.0,0.0,0.0,0.0,0.0,0.0,0.0,0.0,0.0,0.0,-4.629,-4.6305,-4.6305,-4.5462,-4.4426,-4.3216,-4.1812,-4.1109,-4.1109,-4.1109,-4.1109,-4.1109,-4.1109,-4.1109,-4.1109,-4.1109,-4.1109,-4.1109,-4.1109,-4.1109,-4.1109,-4.1109,-4.1109,-4.1109,0.0,0.0,0.0,0.0,0.0,0.0,0.0,0.0,0.0,0.0,0.0,0.0,-4.1096,-4.1091,-4.1108,-4.1092,-4.1109,0.0,-4.3185,-4.3608,-4.4042,-4.5749,0.0,0.0,0.0,0.0,0.0,0.0,0.0,0.0,0.0,0.0,0.0,0.0,0.0,0.0,0.0,0.0,0.0,0.0,0.0,0.0,0.0,0.0,0.0,0.0,0.0,0.0,0.0,0.0,0.0,-5.0572,-5.0603,-5.0623,-5.0623,-5.0623,-5.1142,-5.2122,-5.2182,-5.2375,-5.2692,-5.3049,-5.3203,-5.3164,-5.2837,-5.2673,-5.2626,-5.1952,-5.1375,-5.0856,-5.0519,-4.976,-4.8875,0.0,0.0,0.0,0.0,0.0,0.0,0.0,0.0,0.0,0.0,-4.4406,0.0,0.0,0.0,0.0,0.0,0.0,0.0,0.0,0.0,-4.6293,-4.6293,-4.5465,-4.421,-4.2552,-4.1654,-4.1187,-4.1109,-4.1109,-4.1109,-4.1109,-4.1109,-4.1109,-4.1109,-4.1109,-4.1109,-4.1109,-4.1109,-4.1109,-4.1109,-4.1109,-4.1109,-4.1109,-4.1109,0.0,0.0,0.0,0.0,0.0,0.0,0.0,0.0,-4.108,-4.1072,-4.1064,-4.1061,-4.1083,-4.1083,-4.1083,0.0,0.0,-4.3166,-4.3672,0.0,-4.5622,-4.7187,0.0,0.0,0.0,0.0,0.0,0.0,0.0,0.0,0.0,0.0,0.0,0.0,0.0,0.0,0.0,0.0,0.0,0.0,0.0,0.0,0.0,0.0,0.0,0.0,0.0,0.0,0.0,0.0,-5.0489,-5.05,-5.05,0.0,-5.05,-5.0462,-5.0396,-5.0595,-5.1038,-5.1702,-5.2423,-5.2741,-5.2664,-5.1885,-5.1538,-5.1404,-4.9875,-4.9279,-4.9183,-4.8394,-4.8048,-4.799,0.0,0.0,0.0,0.0,0.0,0.0,0.0,0.0,0.0,0.0,0.0,0.0,0.0,0.0,0.0,0.0,0.0,0.0,0.0,0.0,-4.6293,-4.6293,-4.5465,-4.4504,-4.343,-4.2572,-4.1791,-4.1109,-4.1109,-4.1109,-4.1109,-4.1109,-4.1109,-4.1109,-4.1109,-4.1109,-4.1109,-4.1109,-4.1109,-4.1109,-4.1109,-4.1109,-4.1109,-4.1109,-4.1109,0.0,0.0,0.0,0.0,0.0,0.0,0.0,-4.0852,-4.0867,-4.0859,-4.0857,-4.0941,-4.0993,-4.0887,-4.09,0.0,0.0,-4.4302,-4.5312,-4.555,-4.6417,0.0,0.0,0.0,0.0,0.0,0.0,0.0,0.0,0.0,0.0,0.0,0.0,0.0,0.0,0.0,0.0,0.0,0.0,0.0,0.0,0.0,0.0,0.0,0.0,0.0,0.0,0.0,-5.0424,-5.0424,-5.0478,-5.05,0.0,-5.05,-5.0146,-4.9494,-5.0225,-5.0294,-4.9826,-4.9394,-4.9202,-4.9183,-4.899,-4.8933,-4.8875,-4.8529,-4.8375,-4.8355,-4.8182,-4.7702,-4.7154,0.0,0.0,0.0,0.0,0.0,0.0,0.0,0.0,0.0,0.0,0.0,0.0,0.0,0.0,0.0,0.0,0.0,0.0,0.0,0.0,-4.63,-4.6293,-4.5465,-4.4582,-4.3725,-4.2845,-4.1967,-4.1109,-4.1109,-4.1109,-4.1109,-4.1109,-4.1109,-4.1109,-4.1109,-4.1109,-4.1109,-4.1109,-4.1109,-4.1109,-4.1109,-4.1109,-4.1109,-4.1109,-4.1078,-4.1059,-4.1059,0.0,0.0,0.0,0.0,0.0,0.0,0.0,-4.0806,-4.0791,-4.0844,-4.0894,-4.0825,0.0,0.0,-4.2896,0.0,-4.5587,-4.5516,0.0,0.0,0.0,0.0,0.0,0.0,0.0,0.0,0.0,0.0,0.0,0.0,0.0,0.0,0.0,0.0,0.0,0.0,0.0,0.0,0.0,0.0,0.0,0.0,0.0,0.0,0.0,-5.0325,-5.0348,-5.0348,-5.0401,-5.0393,-5.0393,-5.0393,-5.0164,-4.9715,-4.9424,-4.9083,-4.8643,-4.8231,-4.8068,-4.8068,-4.7645,-4.7501,-4.749,-4.7067,-4.6894,-4.6894,-4.6894,-4.6644,-4.6278,0.0,0.0,0.0,0.0,0.0,0.0,0.0,0.0,0.0,0.0,0.0,0.0,0.0,0.0,0.0,0.0,0.0,0.0,0.0,0.0,0.0,-4.6236,-4.554,-4.4677,-4.3663,-4.2941,-4.2063,-4.1051,-4.1051,-4.1051,-4.1051,-4.1083,-4.1087,-4.108,-4.108,-4.108,-4.108,-4.108,-4.1083,-4.1108,-4.1083,-4.1083,-4.1108,-4.1055,-4.1028,-4.101,-4.0977,-4.0882,-4.0781,-4.0781,0.0,0.0,0.0,0.0,-4.0756,-4.0756,-4.0766,-4.0781,-4.0742,0.0,-4.1315,-4.2834,-4.4233,0.0,0.0,0.0,0.0,0.0,0.0,0.0,0.0,0.0,0.0,0.0,0.0,0.0,0.0,0.0,0.0,0.0,0.0,0.0,0.0,0.0,0.0,0.0,0.0,0.0,0.0,0.0,-5.0302,-5.0302,-5.0302,-5.0302,-5.0302,-5.0302,-5.0302,-5.0302,-5.0168,-5.0092,-5.0034,-4.8624,-4.7968,-4.7978,-4.7682,-4.7577,-4.7578,-4.6868,-4.6599,-4.6578,-4.5856,-4.5568,-4.5568,-4.5577,-4.5577,-4.5605,0.0,0.0,0.0,0.0,0.0,0.0,0.0,0.0,0.0,0.0,0.0,0.0,0.0,0.0,0.0,0.0,0.0,0.0,-4.6308,0.0,0.0,-4.5954,-4.5847,-4.5045,-4.3471,-4.3335,-4.2479,-4.0846,-4.0846,-4.0846,-4.0831,-4.1015,-4.107,-4.1006,-4.1006,-4.1006,-4.1006,-4.1006,-4.1054,-4.1087,-4.1047,-4.1054,-4.1083,-4.0905,-4.0906,-4.0984,-4.0878,-4.078,-4.0705,-4.0705,-4.0642,0.0,0.0,0.0,-4.0537,-4.0537,-4.061,-4.07,0.0,0.0,-4.1788,0.0,-4.3542,0.0,0.0,0.0,0.0,0.0,0.0,0.0,0.0,0.0,0.0,0.0,0.0,0.0,0.0,0.0,0.0,0.0,0.0,0.0,0.0,0.0,0.0,0.0,0.0,0.0,0.0,-5.0302,-5.0302,-5.0302,-5.0302,-5.0302,-5.0302,-5.0302,-5.0302,-5.0283,-4.9595,-4.9263,-4.9243,-4.825,-4.7862,-4.7839,-4.6377,-4.5755,-4.5745,-4.5621,-4.5592,-4.5601,-4.5467,-4.5429,-4.5429,-4.5495,-4.5513,-4.5628,0.0,0.0,0.0,0.0,0.0,0.0,0.0,0.0,0.0,0.0,0.0,0.0,0.0,0.0,0.0,-4.602,-4.6177,-4.6191,-4.6195,-4.6092,-4.601,-4.5969,-4.592,-4.5122,-4.3447,-4.3408,-4.2554,-4.081,-4.081,-4.081,-4.0791,-4.089,-4.0924,-4.089,-4.0974,-4.099,-4.0994,-4.105,-4.1057,-4.103,-4.1003,-4.1028,-4.1025,-4.0863,-4.0837,-4.0878,-4.078,-4.0681,-4.06,-4.06,-4.0557,-4.0496,-4.0496,0.0,0.0,0.0,-4.0542,0.0,-4.0512,-4.1094,-4.1784,0.0,0.0,0.0,0.0,0.0,0.0,0.0,0.0,0.0,0.0,0.0,0.0,0.0,0.0,0.0,0.0,0.0,0.0,0.0,0.0,0.0,0.0,0.0,0.0,0.0,0.0,0.0,0.0,-5.0302,-5.0302,-5.0302,-5.0302,0.0,-5.0302,-5.0302,-5.0302,-5.0302,-4.9939,-4.9767,-4.9729,-4.8907,-4.8001,-4.7067,-4.6334,-4.5772,-4.54,-4.54,-4.54,-4.54,-4.54,-4.54,-4.541,-4.5429,-4.5745,-4.6167,0.0,0.0,0.0,0.0,0.0,0.0,0.0,0.0,0.0,0.0,0.0,0.0,0.0,0.0,0.0,0.0,-4.6053,-4.6064,-4.6045,-4.5987,-4.5944,-4.5914,-4.5858,-4.5033,-4.336,-4.3321,-4.2468,-4.0729,-4.0729,-4.0729,-4.0729,-4.0729,-4.0729,-4.0735,-4.0857,-4.0914,-4.0937,-4.0977,-4.098,-4.0944,-4.0922,-4.0926,-4.0933,-4.0781,-4.0745,-4.0756,-4.0674,-4.0574,-4.0496,-4.0496,-4.0496,-4.0496,-4.0496,-4.0496,0.0,0.0,0.0,0.0,0.0,0.0,0.0,0.0,0.0,0.0,0.0,0.0,0.0,0.0,0.0,0.0,0.0,0.0,0.0,0.0,0.0,0.0,0.0,0.0,0.0,0.0,0.0,0.0,0.0,0.0,0.0,0.0,0.0,0.0,-5.0283,-5.0302,-5.0302,-5.0302,-5.0302,-5.0302,-5.0302,-5.0302,-5.0302,-5.0302,-5.0302,-5.0302,-5.0283,-4.9671,-4.8582,-4.7131,-4.6691,-4.6197,-4.5665,-4.5464,-4.537,-4.5361,-4.5361,-4.5361,-4.539,-4.5381,-4.5802,-4.633,0.0,0.0,0.0,0.0,0.0,0.0,0.0,0.0,0.0,0.0,0.0,0.0,-4.3292,-4.4132,-4.5011,-4.5918,-4.6002,-4.5977,-4.5917,-4.5858,-4.579,-4.5722,-4.5646,0.0,-4.3148,-4.311,-4.2271,-4.0519,-4.0519,-4.0519,-4.0519,-4.0519,-4.0519,-4.0527,-4.0655,-4.0718,-4.0718,-4.0724,-4.0768,-4.081,-4.0746,-4.0749,-4.0796,-4.0596,-4.0595,-4.0687,-4.0564,-4.0504,-4.0496,-4.0496,-4.0496,-4.0496,-4.0496,-4.0496,-4.0496,0.0,0.0,0.0,0.0,0.0,0.0,0.0,0.0,0.0,0.0,0.0,0.0,0.0,0.0,0.0,0.0,0.0,0.0,0.0,0.0,0.0,0.0,0.0,0.0,0.0,0.0,0.0,0.0,0.0,0.0,0.0,0.0,0.0,-5.0264,-5.0302,-5.0302,-5.0302,-5.0302,-5.0302,-5.0302,-5.0302,-5.0302,-5.0302,-5.0302,-5.0302,-5.0302,-5.0264,-4.9767,-4.8869,-4.7226,-4.6481,-4.6385,-4.5632,-4.5307,-4.5307,-4.5307,-4.5307,-4.5317,-4.5369,-4.5427,-4.559,0.0,0.0,0.0,0.0,0.0,0.0,0.0,0.0,0.0,0.0,0.0,0.0,0.0,-4.4002,-4.4871,-4.5736,-4.5809,-4.579,-4.578,-4.5757,-4.5723,-4.5701,-4.5101,-4.4239,-4.3124,-4.2547,-4.1681,-4.0496,-4.0496,-4.0496,-4.0496,-4.0496,-4.0496,-4.0504,-4.0636,-4.0694,-4.07,-4.0743,-4.0754,0.0,0.0,-4.0705,-4.0729,-4.0559,0.0,0.0,0.0,0.0,0.0,-4.0496,-4.0496,-4.0496,-4.0496,-4.0496,-4.0496,-4.0496,-4.0496,0.0,0.0,0.0,0.0,0.0,0.0,0.0,0.0,0.0,0.0,0.0,0.0,0.0,0.0,0.0,0.0,0.0,0.0,0.0,0.0,0.0,0.0,0.0,0.0,0.0,0.0,0.0,0.0,0.0,0.0,0.0,-4.8667,-4.9232,-4.9519,-4.9519,-5.0034,-5.0302,-5.0302,-5.0302,-5.0302,-5.0302,-5.0076,-4.9981,-4.9949,-4.9208,-4.8842,-4.8675,-4.6977,-4.6348,-4.6481,-4.6194,-4.5774,-4.5307,-4.5307,-4.5307,-4.5307,-4.5328,-4.5653,-4.6084,0.0,0.0,0.0,0.0,0.0,0.0,0.0,0.0,0.0,-4.0629,0.0,0.0,0.0,0.0,-4.4741,-4.5624,-4.5703,-4.5708,-4.5708,-4.5706,-4.5566,-4.5277,-4.463,-4.3797,-4.2701,-4.2104,-4.1373,-4.0496,-4.0496,-4.0496,-4.0496,-4.0496,-4.0496,-4.0496,-4.0588,-4.0629,0.0,0.0,0.0,-4.0629,0.0,0.0,-4.0615,0.0,0.0,0.0,0.0,0.0,0.0,0.0,-4.0496,-4.0496,-4.0496,-4.0496,-4.0496,-4.0496,-4.0496,0.0,-4.0496,0.0,0.0,0.0,0.0,0.0,0.0,0.0,0.0,0.0,0.0,0.0,0.0,0.0,0.0,0.0,0.0,0.0,0.0,0.0,0.0,0.0,0.0,0.0,0.0,0.0,0.0,0.0,0.0,0.0,-4.7769,-4.8353,-4.8659,-4.8659,-4.9175,-4.9549,-4.9732,-4.9732,-4.9676,-4.955,-4.9346,-4.9079,-4.8796,-4.8031,-4.7819,-4.7969,-4.6862,-4.6422,-4.6481,-4.6214,-4.5774,-4.5307,-4.5307,-4.5307,-4.5307,-4.5307,-4.564,-4.6033,0.0,0.0,0.0,0.0,0.0,0.0,0.0,0.0,-4.0496,-4.0496,0.0,0.0,0.0,0.0,0.0,-4.5539,-4.5618,-4.5623,-4.5623,-4.5629,-4.5258,-4.4402,-4.4265,-4.347,-4.1846,0.0,0.0,0.0,0.0,0.0,0.0,0.0,-4.0496,-4.0496,-4.0496,-4.0496,-4.0496,0.0,-4.0496,-4.0496,0.0,-4.0496,-4.0496,0.0,0.0,0.0,-4.0535,-4.0554,0.0,-4.0554,0.0,0.0,0.0,0.0,-4.0496,-4.0496,-4.0496,0.0,0.0,0.0,0.0,0.0,0.0,0.0,0.0,0.0,0.0,0.0,0.0,0.0,0.0,0.0,0.0,0.0,0.0,0.0,0.0,0.0,0.0,0.0,0.0,0.0,0.0,0.0,0.0,0.0,0.0,-4.6835,-4.7674,-4.775,-4.7758,-4.7777,-4.7777,-4.8012,-4.8507,-4.8507,-4.8333,-4.7999,-4.7984,-4.7571,-4.6815,-4.6782,-4.6763,-4.6778,-4.6759,-4.6592,-4.6307,-4.56,-4.5305,-4.5267,-4.5267,-4.5286,-4.5297,-4.5297,-4.5297,-4.5307,0.0,0.0,0.0,0.0,0.0,0.0,0.0,-4.0496,-4.0496,0.0,0.0,0.0,-4.2143,-4.2912,-4.3536,-4.3794,-4.3811,-4.3819,-4.3819,-4.3822,-4.3706,-4.3467,-4.2843,-4.2277,-4.1808,0.0,0.0,0.0,0.0,0.0,0.0,0.0,0.0,0.0,-4.0496,-4.0496,-4.0496,-4.0496,0.0,-4.0496,-4.0496,-4.0496,0.0,0.0,0.0,0.0,0.0,-4.1854,-4.2277,0.0,-4.145,-4.1335,0.0,0.0,0.0,0.0,0.0,0.0,-4.0496,0.0,0.0,0.0,0.0,0.0,0.0,0.0,0.0,0.0,0.0,0.0,0.0,0.0,0.0,0.0,0.0,0.0,0.0,0.0,0.0,0.0,0.0,0.0,0.0,0.0,0.0,0.0,-4.5554,-4.5701,-4.5984,-4.6363,-4.6752,-4.7143,-4.7162,-4.6933,-4.6519,-4.6501,-4.6158,-4.5486,-4.5241,-4.5024,-4.4766,-4.3945,-4.3682,-4.3819,-4.3241,-4.3095,-4.3378,-4.4939,-4.5223,-4.4643,-4.4643,-4.4758,-4.4946,-4.4946,-4.5098,-4.5307,0.0,0.0,0.0,0.0,0.0,0.0,0.0,-4.0449,-4.0496,0.0,0.0,0.0,-4.175,-4.2585,-4.3104,-4.3104,-4.3104,-4.3104,-4.3104,-4.3104,-4.2931,-4.2566,-4.2058,-4.1643,-4.1277,-4.0766,0.0,0.0,0.0,0.0,0.0,0.0,0.0,0.0,0.0,0.0,0.0,0.0,0.0,0.0,-4.0496,0.0,0.0,-4.0893,-4.1354,0.0,0.0,0.0,-4.3028,-4.2508,-4.2104,0.0,0.0,0.0,0.0,0.0,0.0,0.0,0.0,0.0,0.0,0.0,0.0,0.0,0.0,-4.0654,0.0,0.0,0.0,0.0,0.0,0.0,0.0,0.0,0.0,0.0,0.0,0.0,0.0,0.0,0.0,0.0,0.0,0.0,0.0,0.0,-4.4995,-4.4875,-4.4807,-4.4776,-4.492,-4.5223,-4.4904,-4.4603,-4.4375,-4.4356,-4.4058,-4.3456,-4.3323,-4.3061,-4.2728,-4.2075,-4.1871,-4.1973,-4.1508,-4.1427,-4.1704,-4.3167,-4.3642,-4.3402,-4.3402,-4.3489,-4.3668,-4.4014,-4.4259,-4.4497,0.0,0.0,0.0,0.0,0.0,0.0,0.0,-4.0347,-4.0465,0.0,-4.0481,-4.0804,-4.1566,-4.2338,-4.2791,-4.2791,-4.2791,-4.2791,-4.2791,-4.2808,-4.247,-4.17,-4.1662,-4.1296,-4.0516,-4.0496,0.0,0.0,0.0,0.0,0.0,0.0,0.0,0.0,0.0,0.0,0.0,0.0,0.0,-4.0508,-4.0508,-4.0546,0.0,0.0,-4.1904,0.0,-4.2962,-4.3297,-4.3355,-4.3278,-4.2662,0.0,0.0,0.0,0.0,0.0,-4.0585,0.0,0.0,0.0,0.0,0.0,0.0,0.0,-4.0301,-4.0301,-4.0301,0.0,0.0,0.0,0.0,0.0,0.0,0.0,0.0,0.0,0.0,0.0,0.0,0.0,0.0,0.0,0.0,0.0,0.0,-4.469,-4.436,-4.4069,-4.3807,-4.3117,-4.2706,-4.2663,-4.1983,-4.1797,-4.2163,-4.2181,-4.1983,-4.1609,-4.1714,-4.14,-4.0705,-4.0771,-4.0771,-4.0705,-4.0771,-4.0754,-4.0723,-4.0771,-4.1252,-4.1895,-4.1895,-4.1922,-4.2023,-4.2755,-4.3031,-4.3198,-3.9808,0.0,0.0,0.0,0.0,0.0,0.0,-4.0233,-4.026,-4.026,-4.0389,-4.0554,-4.0746,-4.075,-4.0757,-4.0757,-4.0757,-4.0757,-4.0757,-4.0916,-4.0939,-4.0766,-4.0746,-4.0669,-4.0496,-4.0496,-4.0496,0.0,0.0,0.0,0.0,0.0,0.0,0.0,0.0,0.0,0.0,0.0,0.0,-4.0499,-4.0499,0.0,-4.1489,-4.1651,-4.2593,-4.3841,-4.3995,-4.4521,-4.5017,0.0,-4.3528,-4.2854,0.0,0.0,0.0,0.0,0.0,0.0,0.0,0.0,0.0,0.0,0.0,0.0,-4.0301,-4.0301,-4.0301,0.0,0.0,0.0,0.0,0.0,0.0,0.0,0.0,0.0,0.0,0.0,0.0,0.0,0.0,0.0,0.0,0.0,-4.2827,-4.2687,-4.2419,-4.2123,-4.1871,-4.1708,-4.1493,-4.1224,-4.106,-4.0716,-4.0158,-4.0158,-3.9814,-3.911,-3.9126,-3.9069,-3.8907,-3.8923,-3.8923,-3.8923,-3.8923,-3.8923,-3.8905,-3.8969,-3.9898,-4.1267,-4.1267,-4.1415,-4.1613,-4.1762,-4.1992,-4.2263,-3.8881,0.0,0.0,0.0,0.0,0.0,0.0,0.0,-3.9993,-3.9993,-4.0082,-4.0203,-4.0339,-4.026,-4.0242,-4.0339,-4.0347,-4.0304,-4.0214,-4.0381,-4.0457,-4.0347,-4.0449,-4.0496,-4.0496,-4.0496,-4.0496,0.0,0.0,0.0,0.0,0.0,0.0,0.0,0.0,0.0,0.0,0.0,-4.0743,-4.1102,-4.1102,0.0,-4.1784,-4.2637,-4.3481,-4.4306,-4.469,-4.5149,-4.5482,-4.5051,-4.4357,0.0,0.0,-4.3124,-4.2442,0.0,-4.1967,-4.1399,0.0,0.0,0.0,-4.0003,0.0,0.0,0.0,-3.9892,0.0,0.0,0.0,0.0,0.0,0.0,0.0,0.0,0.0,0.0,0.0,0.0,0.0,0.0,0.0,0.0,0.0,0.0,-4.2026,-4.1576,-4.1441,-4.1216,-4.0921,-4.0538,-4.0289,-4.0105,-3.9705,-3.9305,-3.8923,-3.8888,-3.8689,-3.8305,-3.832,-3.8354,-3.8336,-3.8366,-3.8385,-3.8336,-3.8401,-3.8385,-3.837,-3.8415,-3.8972,-3.977,-3.9868,-3.9942,-4.0047,-4.0489,-4.0762,-4.0981,-3.8152,0.0,0.0,0.0,0.0,0.0,0.0,0.0,-3.9754,-3.9797,-3.9808,-3.9872,-4.011,-4.0091,-4.0139,-4.0294,-4.0302,-4.0241,-4.0081,-4.0258,-4.0294,-4.0129,-4.0276,-4.0381,-4.0381,-4.0381,-4.0381,-4.0381,0.0,0.0,0.0,0.0,0.0,0.0,0.0,0.0,0.0,0.0,0.0,-4.1701,0.0,-4.2161,-4.2333,-4.3665,-4.4279,-4.4518,-4.517,-4.5429,-4.5476,-4.5495,0.0,-4.4458,-4.453,-4.391,0.0,0.0,0.0,0.0,0.0,0.0,0.0,0.0,0.0,-3.9727,0.0,0.0,0.0,0.0,0.0,0.0,0.0,0.0,0.0,0.0,0.0,0.0,0.0,0.0,0.0,0.0,0.0,0.0,0.0,0.0,-4.1129,-4.057,-4.0492,-4.0346,-4.0075,-3.9496,-3.9187,-3.9187,-3.8553,-3.8209,-3.8209,-3.8209,-3.8209,-3.8209,-3.8241,-3.8274,-3.829,-3.8354,-3.832,-3.829,-3.8354,-3.8338,-3.829,-3.8352,-3.8385,-3.8401,-3.8562,-3.8578,-3.8585,-3.9264,-3.952,-3.9642,-3.8836,-3.9045,0.0,0.0,0.0,0.0,0.0,0.0,-3.9597,-3.9775,-3.9808,-3.9808,-3.984,0.0,0.0,0.0,0.0,0.0,-3.958,0.0,-3.9872,-3.984,-3.9872,-3.9882,-3.9882,-3.9882,-3.9882,-3.9882,0.0,0.0,0.0,0.0,0.0,0.0,-4.0052,0.0,0.0,0.0,-4.1541,0.0,-4.3168,-4.3819,0.0,-4.4059,-4.4595,-4.5285,-4.5362,-4.54,-4.5419,0.0,-4.5236,-4.4985,0.0,-4.4446,0.0,0.0,0.0,0.0,0.0,0.0,0.0,0.0,-4.1096,0.0,0.0,0.0,0.0,0.0,0.0,0.0,0.0,0.0,0.0,0.0,0.0,0.0,0.0,0.0,0.0,0.0,0.0,0.0,0.0,0.0,0.0,-3.8891,-3.8658,-3.8496,-3.8462,-3.839,-3.8354,-3.8354,-3.8263,-3.8209,-3.8209,-3.8209,-3.8209,-3.8209,-3.8209,-3.8209,-3.8225,-3.8207,-3.8225,-3.8225,-3.8207,-3.8225,-3.8225,-3.829,-3.8305,-3.8323,-3.8401,-3.8415,-3.8433,-3.8524,-3.8561,-3.8579,-3.8432,-3.8785,0.0,0.0,0.0,0.0,0.0,0.0,-3.9292,-3.9389,-3.9383,-3.9445,0.0,0.0,0.0,0.0,0.0,-3.9585,0.0,0.0,-3.9717,-3.9632,0.0,0.0,-3.9808,-3.9765,-3.9742,-3.9742,-3.969,0.0,0.0,0.0,0.0,0.0,-3.9932,0.0,-4.1054,0.0,0.0,0.0,0.0,0.0,0.0,-4.4753,-4.4902,-4.5052,-4.5052,-4.4973,-4.4868,0.0,-4.4954,0.0,0.0,0.0,0.0,0.0,0.0,0.0,0.0,0.0,0.0,0.0,0.0,0.0,0.0,0.0,-3.9031,0.0,0.0,0.0,0.0,0.0,0.0,0.0,0.0,0.0,0.0,0.0,0.0,0.0,0.0,0.0,0.0,0.0,0.0,0.0,0.0,-3.8209,-3.8209,-3.8209,-3.8209,-3.8209,-3.8209,-3.8209,-3.8209,-3.8209,-3.8209,-3.8209,-3.8209,-3.8209,-3.8209,-3.8209,-3.8209,-3.8209,-3.8209,-3.8209,-3.8209,-3.8242,-3.8241,-3.8241,-3.8256,-3.8305,-3.8354,-3.8354,-3.8354,-3.8354,-3.8339,0.0,0.0,0.0,0.0,0.0,0.0,0.0,0.0,0.0,0.0,0.0,-3.9376,-3.9376,0.0,0.0,-3.9512,-3.9433,0.0,0.0,-3.9464,0.0,0.0,0.0,0.0,0.0,-3.9476,-3.9476,0.0,0.0,0.0,0.0,0.0,0.0,0.0,-4.0476,-4.1314,0.0,0.0,-4.3775,-4.4003,-4.4372,-4.4776,-4.5,-4.491,-4.4688,-4.4688,-4.4599,-4.4479,-4.4493,-4.4599,0.0,-4.4637,0.0,0.0,0.0,0.0,0.0,-4.3079,0.0,0.0,0.0,0.0,0.0,0.0,0.0,0.0,0.0,0.0,0.0,0.0,0.0,0.0,0.0,0.0,0.0,0.0,0.0,0.0,0.0,0.0,0.0,0.0,0.0,0.0,0.0,-3.8209,0.0,-3.8209,-3.8209,-3.8209,-3.8209,-3.8209,-3.8209,-3.8209,-3.8209,-3.8209,-3.8209,-3.8209,-3.8209,-3.8209,-3.8209,-3.8209,-3.8209,-3.8209,-3.8209,-3.8209,-3.8209,-3.8209,-3.8209,-3.8209,-3.8242,-3.8274,-3.8274,-3.8274,-3.8274,-3.9064,-3.9082,0.0,0.0,0.0,0.0,0.0,0.0,0.0,0.0,0.0,0.0,0.0,0.0,0.0,0.0,0.0,-3.8921,-3.8921,0.0,-3.8993,0.0,0.0,-3.8993,0.0,0.0,0.0,0.0,0.0,0.0,0.0,0.0,0.0,0.0,0.0,-4.0453,-4.0835,-4.2393,-4.3074,-4.32,-4.4054,-4.4392,-4.4411,0.0,-4.4479,-4.4411,-4.4411,0.0,0.0,-4.4479,-4.4289,0.0,0.0,0.0,0.0,0.0,0.0,0.0,0.0,0.0,0.0,-4.3441,0.0,0.0,0.0,0.0,-3.9643,0.0,0.0,0.0,0.0,0.0,-3.8399,-3.8399,0.0,0.0,0.0,0.0,0.0,0.0,0.0,0.0,0.0,0.0,0.0,0.0,-3.8209,0.0,-3.8209,-3.8209,-3.8209,-3.8209,-3.8209,-3.8209,-3.8209,-3.8209,-3.8209,-3.8209,-3.8209,-3.8209,-3.8209,-3.8209,-3.8209,-3.8209,-3.8209,-3.8209,-3.8209,-3.8209,-3.8209,-3.8209,-3.8209,-3.8209,-3.8209,-3.8209,-3.8209,-3.8209,0.0,0.0,0.0,0.0,0.0,0.0,0.0,-3.9073,0.0,0.0,0.0,0.0,0.0,0.0,-4.0514,0.0,0.0,-4.0437,-4.0502,-4.0471,0.0,0.0,0.0,-3.9734,0.0,0.0,0.0,0.0,0.0,0.0,0.0,0.0,0.0,0.0,0.0,-4.1549,0.0,0.0,0.0,0.0,0.0,-4.4136,-4.4166,0.0,0.0,-4.4136,-4.4136,-4.3999,0.0,-4.3823,-4.3905,-4.3989,-4.3902,-4.3857,-4.3795,-4.3695,-4.3597,0.0,0.0,0.0,-4.3515,-4.3515,0.0,0.0,0.0,0.0,0.0,0.0,0.0,0.0,0.0,0.0,-3.8399,-3.8399,-3.8289,-3.8209,0.0,0.0,0.0,0.0,0.0,0.0,0.0,0.0,0.0,-3.8209,-3.8209,-3.8209,0.0,-3.8209,-3.8209,-3.8209,-3.8209,-3.8209,-3.8209,-3.8209,-3.8209,-3.8209,-3.8209,-3.8209,-3.8209,-3.8209,-3.8209,-3.8209,-3.8209,-3.8209,-3.8209,-3.8209,-3.8209,-3.8209,-3.8209,-3.8209,-3.8209,-3.8209,-3.8209,-3.8209,-3.9059,0.0,0.0,0.0,0.0,0.0,0.0,0.0,0.0,0.0,-4.0096,0.0,-4.0535,0.0,-4.1267,0.0,-4.1204,-4.119,-4.1238,-4.1204,0.0,-4.1238,-4.0769,0.0,0.0,0.0,0.0,0.0,0.0,-3.9536,0.0,0.0,0.0,0.0,0.0,0.0,0.0,0.0,-4.3569,0.0,0.0,-4.383,0.0,0.0,-4.3965,-4.383,0.0,-4.3682,-4.3515,-4.3515,-4.3649,-4.3781,-4.3565,-4.3649,-4.3781,-4.3565,-4.3515,-4.3515,-4.3515,-4.3515,0.0,0.0,-4.3112,0.0,-4.2378,0.0,0.0,0.0,0.0,0.0,0.0,0.0,-3.8368,-3.8368,-3.8274,-3.8209,0.0,-3.8209,0.0,0.0,0.0,0.0,0.0,0.0,-3.8209,-3.8209,-3.8209,-3.8209,0.0,0.0,-3.8209,-3.8209,-3.8209,-3.8209,-3.8209,-3.8209,-3.8209,-3.8209,-3.8209,-3.8209,-3.8209,-3.8209,-3.8209,-3.8209,-3.8209,-3.8209,-3.8209,-3.8209,-3.8209,-3.8209,-3.8209,-3.8209,-3.8209,-3.8209,-3.8209,-3.8209,0.0,0.0,0.0,0.0,-3.8958,0.0,0.0,0.0,-4.0111,0.0,-4.0852,-4.1354,-4.1354,-4.1328,-4.1298,-4.1298,-4.127,0.0,-4.1224,-4.1268,0.0,0.0,-4.1248,-4.1229,-4.115,0.0,0.0,0.0,0.0,0.0,0.0,0.0,0.0,0.0,-4.2011,0.0,-4.2415,-4.3167,-4.3515,-4.3515,-4.3515,-4.3515,-4.3515,-4.3515,0.0,-4.3515,-4.3515,-4.3515,-4.3515,-4.3515,-4.3515,-4.3515,-4.3515,-4.3515,-4.3515,-4.3515,-4.3515,-4.3515,-4.3515,-4.3515,-4.3515,-4.3515,0.0,0.0,0.0,0.0,-4.0897,0.0,0.0,0.0,0.0,0.0,0.0,-3.8307,-3.8241,-3.8209,-3.8209,0.0,0.0,0.0,0.0,0.0,0.0,-3.8209,-3.8209,-3.8209,-3.8209,0.0,0.0,0.0,0.0,-3.8209,-3.8209,-3.8209,-3.8209,-3.8209,-3.8209,-3.8209,-3.8209,-3.8209,-3.8209,-3.8209,-3.8192,-3.8192,-3.8209,-3.8192,-3.8192,-3.8157,-3.8175,-3.8157,-3.814,-3.814,-3.814,-3.8174,-3.8209,-3.8209,-3.8921,-3.9361,-3.9725,0.0,-3.9242,-3.9065,0.0,0.0,0.0,0.0,-4.1625,-4.2089,-4.2059,-4.2557,-4.2907,-4.2907,-4.289,0.0,0.0,0.0,0.0,-4.2873,-4.2321,-4.2009,-4.1992,-4.1407,0.0,-4.1095,0.0,0.0,-4.1113,0.0,0.0,0.0,0.0,0.0,-4.3221,-4.3423,-4.3515,-4.3515,-4.3515,-4.3515,0.0,0.0,-4.3515,-4.3515,-4.3515,-4.3515,-4.3515,-4.3515,-4.3515,-4.3515,-4.3515,-4.3515,-4.3515,-4.3515,-4.3515,-4.3515,-4.3515,-4.3515,-4.3515,-4.3515,-4.3463,-4.3374,0.0,0.0,0.0,0.0,0.0,0.0,0.0,0.0,0.0,-3.8307,-3.8241,-3.8209,0.0,0.0,0.0,0.0,0.0,0.0,0.0,0.0,-3.8209,-3.8209,-3.8209,0.0,0.0,0.0,0.0,-3.8209,-3.8209,-3.8209,-3.8209,-3.8209,-3.8209,-3.8209,-3.8209,-3.8209,-3.8209,-3.8209,-3.8157,-3.8053,-3.8157,-3.8139,-3.8036,-3.7774,-3.7667,-3.765,-3.7357,-3.7245,-3.7301,-3.7968,-3.8209,-3.8209,-3.9609,0.0,0.0,-4.013,0.0,0.0,-4.0423,0.0,0.0,-4.1634,-4.239,0.0,-4.2835,-4.3222,-4.3515,-4.3515,-4.3515,0.0,0.0,0.0,0.0,-4.3515,-4.3057,-4.2818,-4.2818,-4.2378,0.0,-4.2158,0.0,0.0,-4.2158,0.0,0.0,0.0,0.0,-4.3515,0.0,-4.3515,-4.3515,-4.3515,-4.3515,0.0,0.0,-4.3515,-4.3515,-4.3515,-4.3515,-4.3515,-4.3515,-4.3515,-4.3515,-4.3515,-4.3515,-4.348,-4.3464,-4.3464,-4.341,-4.3375,-4.3375,-4.3375,-4.3375,-4.3375,-4.334,-4.3323,-4.3323,-4.263,-4.1757,0.0,0.0,0.0,0.0,0.0,0.0,0.0,0.0,0.0,0.0,0.0,0.0,0.0,0.0,0.0,0.0,0.0,0.0,0.0,0.0,0.0,0.0,0.0,0.0,-3.8209,-3.8209,-3.8209,-3.8209,-3.814,-3.8105,-3.8105,-3.8089,-3.8073,-3.8055,-3.7863,-3.7721,-3.7632,-3.7505,-3.7414,-3.7323,-3.7192,-3.7116,-3.7041,-3.6825,-3.6746,-3.6862,-3.7302,-3.7523,-3.7631,0.0,0.0,0.0,0.0,0.0,0.0,0.0,-4.1919,0.0,-4.2433,0.0,-4.3644,-4.3644,-4.3736,-4.3809,-4.3809,0.0,-4.3772,-4.3644,-4.3644,-4.3608,-4.3515,-4.3515,-4.3515,-4.3515,-4.3515,0.0,0.0,0.0,0.0,0.0,0.0,0.0,0.0,0.0,0.0,0.0,-4.3497,-4.3497,0.0,-4.348,-4.3444,-4.3444,-4.3444,-4.3444,-4.3444,-4.3444,-4.348,-4.3497,-4.3497,-4.3497,-4.348,-4.348,-4.341,-4.3358,-4.3358,-4.3305,-4.3214,-4.3214,-4.3214,-4.3214,-4.3214,-4.3196,-4.3196,-4.3196,-4.2632,-4.1867,-4.1015,-4.0198,0.0,0.0,0.0,0.0,0.0,0.0,0.0,0.0,0.0,0.0,0.0,0.0,0.0,0.0,0.0,0.0,0.0,0.0,0.0,0.0,0.0,0.0,0.0,-3.8088,0.0,-3.8003,0.0,-3.7791,-3.7791,-3.7739,-3.7721,-3.7703,-3.7284,-3.7097,-3.7078,-3.6671,-3.651,-3.649,-3.6568,-3.6487,-3.6347,-3.6347,-3.6405,-3.6504,-3.6385,-3.6484,-3.6701,0.0,0.0,0.0,0.0,0.0,-4.2259,-4.2971,-4.2635,-4.2543,-4.3185,-4.3993,0.0,-4.4488,-4.5076,-4.548,-4.548,-4.548,0.0,0.0,0.0,0.0,-4.3533,-4.3515,-4.3515,-4.3515,-4.3515,-4.3515,0.0,0.0,0.0,0.0,0.0,0.0,0.0,0.0,0.0,-4.3497,-4.3446,0.0,-4.3394,-4.3304,-4.325,-4.325,-4.325,-4.325,-4.325,-4.325,-4.3375,-4.3497,-4.3429,-4.3429,-4.3394,-4.3286,-4.3232,-4.3233,-4.3233,-4.3233,-4.3214,-4.3214,-4.3214,-4.3214,-4.3214,-4.316,-4.3123,-4.3123,-4.2922,-4.2522,-4.1687,-4.089,-3.9968,-3.8814,0.0,0.0,0.0,0.0,0.0,0.0,0.0,0.0,0.0,0.0,0.0,0.0,0.0,0.0,0.0,0.0,0.0,0.0,0.0,0.0,0.0,0.0,0.0,0.0,0.0,0.0,-3.677,-3.6751,-3.6748,-3.6748,-3.6651,-3.6591,-3.6545,-3.651,-3.647,-3.6402,-3.613,-3.582,-3.5509,-3.5509,-3.5515,-3.5554,-3.5532,-3.5554,-3.5672,0.0,0.0,0.0,0.0,0.0,0.0,0.0,-4.4053,0.0,-4.4086,-4.4819,-4.5333,-4.5333,-4.5663,-4.5902,-4.5902,-4.5902,-4.5736,-4.5351,-4.5333,-4.4966,-4.4158,-4.4121,0.0,-4.3446,-4.3446,-4.3446,-4.3446,0.0,0.0,-4.3515,0.0,0.0,0.0,0.0,-4.3446,0.0,0.0,0.0,-4.3305,-4.3233,-4.3214,-4.3214,-4.3214,-4.3214,-4.3214,-4.3214,-4.325,-4.3339,-4.3304,-4.3305,-4.3269,-4.3233,-4.3178,-4.3142,-4.3142,-4.3105,-4.305,-4.305,-4.305,-4.305,-4.305,-4.3013,-4.2937,-4.2691,-4.2575,-4.2243,-4.1199,-4.0356,-3.9409,-3.8026,-3.7283,0.0,0.0,0.0,0.0,0.0,0.0,0.0,0.0,0.0,0.0,0.0,0.0,0.0,0.0,0.0,0.0,0.0,0.0,0.0,0.0,0.0,0.0,0.0,0.0,0.0,-3.6446,-3.6385,-3.6343,-3.6343,-3.613,-3.602,-3.5977,-3.5759,-3.5649,-3.5621,-3.5459,-3.5333,-3.5291,-3.5152,-3.5152,-3.5198,-3.5128,-3.5088,-3.5182,0.0,-4.2369,0.0,0.0,-4.3648,0.0,0.0,-4.5117,-4.512,-4.4967,-4.5663,-4.6159,-4.6159,-4.6305,-4.6416,-4.6416,-4.6416,-4.6342,-4.6177,-4.6029,-4.5663,-4.4967,-4.4693,-4.4254,-4.3615,-4.3506,-4.3415,0.0,0.0,0.0,0.0,0.0,0.0,0.0,0.0,0.0,0.0,0.0,-4.3178,-4.3178,-4.316,-4.3123,-4.3123,-4.3123,-4.3123,-4.3123,-4.3123,-4.3123,-4.3123,-4.3123,-4.316,-4.3178,-4.316,-4.3105,-4.3049,-4.3049,-4.2975,-4.2901,-4.2901,-4.2901,-4.2882,-4.2787,-4.275,-4.2634,-4.2157,-4.2053,-4.1771,-4.077,-3.9764,-3.8622,-3.7161,-3.6741,0.0,0.0,0.0,0.0,0.0,0.0,0.0,0.0,0.0,0.0,0.0,0.0,0.0,0.0,0.0,0.0,0.0,0.0,0.0,0.0,0.0,0.0,-3.6201,0.0,-3.6066,0.0,-3.5977,-3.5933,-3.5912,-3.5594,-3.5453,-3.543,-3.5071,-3.4899,-3.4899,-3.4899,-3.5018,-3.5198,-3.497,-3.497,-3.5041,-3.4947,-3.4899,-3.4923,0.0,0.0,0.0,0.0,0.0,0.0,0.0,-4.4825,-4.5214,-4.5718,-4.6489,-4.6984,-4.6984,-4.7626,-4.8086,-4.8086,-4.8086,-4.7774,-4.7039,-4.6466,-4.6041,-4.5699,-4.4647,-4.4145,-4.4308,-4.3817,-4.3456,0.0,0.0,0.0,0.0,0.0,0.0,0.0,0.0,0.0,0.0,-4.3142,-4.3104,-4.3104,-4.2975,-4.292,-4.292,-4.292,-4.292,-4.292,-4.292,-4.292,-4.292,-4.292,-4.3012,-4.3104,-4.2957,-4.292,-4.2919,-4.2919,-4.2919,-4.2901,-4.2901,-4.2901,-4.2806,-4.2378,-4.2277,-4.2136,-4.1656,-4.1569,-4.153,-4.1416,-3.9931,-3.8296,-3.7138,-3.6249,-3.5871,0.0,0.0,0.0,0.0,0.0,0.0,0.0,0.0,0.0,0.0,0.0,0.0,0.0,0.0,0.0,0.0,0.0,0.0,-3.6041,0.0,-3.5599,-3.5234,-3.5118,0.0,-3.5048,-3.5024,-3.5024,-3.5024,-3.4977,-3.497,-3.4954,-3.4923,-3.4899,-3.4899,-3.4899,-3.4923,-3.4923,-3.4899,-3.4899,-3.4923,-3.4899,-3.4899,-3.4899,0.0,0.0,0.0,0.0,0.0,0.0,0.0,-4.5532,-4.5752,-4.6309,-4.6668,-4.6888,-4.697,-4.7079,-4.7216,-4.7317,-4.7216,-4.7028,-4.6705,-4.6449,-4.6043,-4.5469,-4.4983,-4.4533,-4.4111,-4.3462,-4.307,0.0,0.0,0.0,0.0,0.0,0.0,0.0,0.0,-4.2358,-4.2279,-4.2177,-4.2136,-4.2136,-4.2077,-4.2056,-4.2098,-4.236,-4.2478,-4.2518,-4.2806,-4.2901,-4.2901,-4.2901,-4.2938,-4.2975,-4.2919,-4.2901,-4.2901,-4.2901,-4.2901,-4.2844,-4.2555,-4.2478,-4.2378,-4.1888,-4.1782,-4.1652,-4.1185,-4.1088,-4.0995,-4.0713,-3.935,-3.7769,-3.6367,-3.5783,-3.5611,0.0,0.0,0.0,0.0,0.0,0.0,0.0,0.0,0.0,0.0,0.0,0.0,0.0,0.0,0.0,0.0,0.0,0.0,-3.5781,0.0,-3.5148,-3.497,-3.4923,-3.4899,-3.4899,-3.4899,-3.4899,-3.4899,-3.4899,-3.4899,-3.4899,-3.4899,-3.4899,-3.4899,-3.4899,-3.4899,-3.4899,-3.4899,-3.4899,-3.4899,-3.4899,-3.4899,-3.4899,-4.3529,0.0,-4.4351,0.0,-4.4877,-4.5406,-4.5786,-4.5726,-4.5784,-4.6158,-4.6158,-4.6286,-4.6712,-4.6542,-4.6472,-4.6601,-4.6472,-4.6407,-4.6407,-4.624,-4.5945,-4.5541,-4.519,0.0,-4.4214,-4.3325,-4.2817,-4.2748,-4.2363,0.0,0.0,0.0,0.0,0.0,-4.1713,-4.167,-4.1626,-4.1543,-4.1503,-4.1503,-4.1503,-4.1503,-4.1525,-4.1867,-4.1994,-4.2053,-4.236,-4.2498,-4.2498,-4.2498,-4.2498,-4.2518,-4.2653,-4.2596,-4.2498,-4.2498,-4.2498,-4.2418,-4.2077,-4.1994,-4.1888,-4.141,-4.1281,-4.1162,-4.0707,-4.0604,-4.0363,-3.9562,-3.8381,-3.7108,-3.5762,-3.5475,-3.5446,0.0,0.0,0.0,0.0,0.0,0.0,0.0,0.0,-3.4947,-3.4899,0.0,0.0,0.0,0.0,0.0,0.0,0.0,0.0,0.0,0.0,0.0,0.0,-3.4899,-3.4899,-3.4899,-3.4899,-3.4899,-3.4899,-3.4899,-3.4899,-3.4899,-3.4899,-3.4899,-3.4899,-3.4899,-3.4899,-3.4899,-3.4899,-3.4899,-3.4899,-3.4899,-3.4899,-3.4899,-4.4971,-4.4988,-4.5005,-4.5005,-4.5005,-4.5005,-4.5005,-4.5005,-4.5005,-4.5005,-4.4913,-4.5222,-4.6288,-4.6407,-4.6407,-4.6407,-4.6407,-4.6407,-4.6407,-4.584,-4.5749,0.0,0.0,-4.4692,-4.4892,-4.3655,-4.2861,-4.2594,0.0,0.0,-4.0332,0.0,-4.0947,-4.1709,-4.1709,-4.1626,-4.1503,-4.1503,-4.1503,-4.1503,-4.1503,-4.1503,-4.1503,-4.1503,-4.1503,-4.1503,-4.1503,-4.1525,-4.1525,-4.1525,-4.1525,-4.1591,-4.2056,-4.1888,-4.1525,-4.1525,-4.1525,-4.1503,-4.1503,-4.1503,-4.1393,-4.0926,-4.0802,-4.07,-4.0221,-4.0096,-3.9665,-3.8065,-3.7148,-3.6343,-3.5488,-3.5291,-3.5291,-3.5291,0.0,0.0,0.0,0.0,0.0,0.0,-3.5018,-3.5041,-3.4923,0.0,0.0,0.0,0.0,0.0,0.0,0.0,0.0,-3.4923,-3.4899,0.0,-3.4899,-3.4899,-3.4899,-3.4899,-3.4899,-3.4899,-3.4899,-3.4899,-3.4899,-3.4899,-3.4899,-3.4899,-3.4899,-3.4899,-3.4899,-3.4899,-3.4899,-3.4899,-3.4899,-3.4899,-3.4899,-3.4899,-4.4858,-4.4858,-4.4858,-4.4858,-4.4923,-4.5005,-4.5005,-4.4913,-4.4858,-4.4858,-4.4765,-4.4786,-4.5142,-4.5152,-4.5205,0.0,-4.5232,-4.5152,0.0,-4.4998,-4.4961,-4.5133,-4.4803,-4.4629,-4.4692,-4.3259,-4.2475,-4.2415,0.0,0.0,0.0,-4.0677,-4.0654,-4.0604,-4.0604,-4.0604,-4.0538,-4.0538,-4.0538,-4.0538,-4.0538,-4.0538,-4.0587,-4.0902,-4.1019,-4.1047,-4.1388,-4.1503,-4.1503,-4.1503,-4.1298,-4.1065,-4.1202,-4.1366,-4.1503,-4.1503,-4.1503,-4.1415,-4.1094,-4.1019,-4.0902,-4.0434,-4.0328,-4.0254,-4.0011,-3.9497,-3.8782,-3.7759,-3.6971,-3.6233,-3.5448,-3.5222,-3.5158,-3.5158,0.0,0.0,0.0,0.0,0.0,0.0,0.0,-3.4947,0.0,-3.4947,0.0,0.0,0.0,0.0,0.0,0.0,0.0,0.0,-3.4899,0.0,-3.4899,-3.4899,-3.4899,-3.4899,-3.4899,-3.5164,-3.5644,-3.5644,-3.5926,-3.6406,-3.6406,-3.6406,-3.6406,-3.6406,-3.6108,-3.5644,-3.5644,-3.5346,-3.4899,-3.4899,-3.4899,-3.4899,-4.472,-4.472,-4.472,-4.472,-4.4776,-4.4858,-4.4858,-4.4776,-4.472,-4.472,-4.4654,-4.4615,-4.4615,-4.4615,0.0,-4.4737,-4.4654,0.0,-4.4615,-4.4615,-4.4615,-4.4615,-4.4615,-4.4615,-4.4615,0.0,0.0,-4.2286,-4.1136,-4.0531,-4.0531,-4.0531,-4.0377,-4.0096,-4.0096,-4.0096,-4.0096,-4.0096,-4.0096,-4.0096,-4.0096,-4.0096,-4.0121,-4.0427,-4.0531,-4.058,-4.0879,-4.0978,-4.0978,-4.0978,-4.0784,-4.0531,-4.0531,-4.0754,-4.0978,-4.0978,-4.0978,-4.0926,-4.0628,-4.0531,-4.0458,-4.0096,-4.0037,-3.9919,-3.9496,-3.8782,-3.797,-3.7168,-3.6432,-3.5756,-3.5258,-3.5065,-3.5018,-3.5018,0.0,-3.4899,0.0,0.0,0.0,0.0,0.0,0.0,0.0,-3.4899,0.0,0.0,0.0,0.0,0.0,0.0,0.0,-3.4899,-3.4899,0.0,-3.4899,-3.4899,-3.4899,-3.4899,-3.5181,-3.5545,-3.6009,-3.629,-3.6671,-3.7102,-3.7102,-3.7102,-3.7102,-3.7102,-3.6837,-3.6406,-3.6406,-3.5959,-3.5313,-3.5313,-3.5131,-3.4899,-4.4615,-4.4615,0.0,0.0,-4.4615,0.0,-4.4615,-4.4615,-4.4615,-4.4615,-4.4615,-4.4615,-4.4615,-4.4615,-4.4615,-4.4615,0.0,0.0,0.0,-4.4615,-4.4615,-4.4615,-4.4615,0.0,-4.4615,-4.3081,-4.2236,-4.2134,-4.0773,-4.0096,-4.0096,-4.0096,-4.0096,-4.0096,-4.0096,-4.0096,-4.0096,-4.0096,-4.0096,-4.0096,-4.0096,-4.0096,-4.0096,-4.0096,-4.0096,-4.0096,-4.0096,-4.0096,-4.0087,-4.0087,-4.0087,-4.007,-4.007,-4.007,-4.007,-4.007,-4.0087,-4.007,-4.007,-4.007,-4.0037,-3.9926,-3.9825,-3.958,-3.8782,-3.7962,-3.7168,-3.6352,-3.5588,-3.5041,-3.4923,-3.4899,-3.4899,-3.4899,-3.4899,-3.4899,-3.4899,0.0,0.0,0.0,0.0,0.0,0.0,-3.4899,-3.4899,0.0,0.0,0.0,0.0,0.0,-3.4899,-3.4899,-3.4899,-3.4899,-3.4899,-3.4899,-3.4932,-3.4982,-3.5678,-3.6059,-3.6174,-3.687,-3.7218,-3.7226,-3.7226,-3.7226,-3.7226,-3.7226,-3.7209,-3.7159,-3.7159,-3.6696,-3.605,-3.605,-3.562,-3.5048,0.0,0.0,-4.4615,-4.4615,-4.4615,-4.4615,-4.4615,-4.4615,-4.4615,-4.4615,-4.4615,-4.4615,-4.4615,-4.4615,-4.4615,-4.4615,-4.4615,-4.4615,-4.4615,-4.4615,-4.4615,-4.4615,-4.4615,-4.4615,-4.4615,-4.3081,-4.1754,-4.062,-4.0282,-4.0096,-4.0096,-4.0096,-4.0096,-4.0096,-4.0096,-4.0096,-4.0096,-4.0096,-4.0096,-4.0096,-4.0096,-4.0096,-4.0096,-4.0096,-4.0096,-4.0096,-4.0096,-4.0037,-3.9952,-3.9952,-3.9884,-3.979,-3.979,-3.979,-3.9807,-3.991,-3.9952,-3.9926,-3.9833,-3.979,-3.9781,-3.9755,-3.9259,-3.8705,-3.8496,-3.7361,-3.6306,-3.6074,-3.5461,-3.4947,-3.4899,-3.4899,-3.4899,-3.4899,-3.4899,-3.4899,-3.4899,0.0,0.0,0.0,-3.4899,-3.4899,-3.4899,-3.4899,-3.4899,0.0,0.0,0.0,0.0,0.0,-3.4899,-3.4899,-3.4899,-3.4899,-3.4899,-3.4899,-3.5181,-3.5744,-3.5926,-3.6605,-3.7698,-3.7864,-3.815,-3.8556,-3.8556,-3.8556,-3.8539,-3.8432,-3.8163,-3.7765,-3.761,-3.7192,-3.666,-3.6509,-3.6436,-3.6396,-4.4615,-4.4615,-4.4615,-4.4615,-4.4615,-4.4615,-4.4615,-4.4902,-4.5094,-4.5094,-4.5382,-4.5495,-4.5128,-4.5094,-4.4987,-4.4632,-4.4615,-4.4615,-4.4615,-4.4615,-4.4615,-4.4615,-4.4615,-4.4615,-4.4615,-4.342,-4.2083,-4.0595,-4.0282,-4.0096,-4.0096,-4.0096,-4.0096,-4.0096,-4.0096,-4.0096,-4.0113,-4.0037,-4.0011,-4.0011,-3.9935,-3.9935,-3.9935,-3.9935,-3.9935,-3.9935,-3.9935,-3.9884,-3.9824,-3.9824,-3.9755,-3.9703,-3.9703,-3.9703,-3.9703,-3.972,-3.9772,-3.9781,-3.9729,-3.9703,-3.9594,-3.9224,-3.8711,-3.8116,-3.7461,-3.6622,-3.5909,-3.5562,-3.5181,-3.4899,-3.4899,-3.4899,-3.4899,-3.4899,-3.4899,-3.4899,-3.4899,-3.4899,0.0,-3.4899,-3.4899,-3.4899,-3.4899,-3.4899,-3.4899,-3.4899,0.0,0.0,-3.4899,-3.4899,-3.4899,-3.4899,-3.4899,-3.4899,-3.4899,-3.523,-3.557,-3.591,-3.6588,-3.7331,-3.8124,-3.8342,-3.8677,-3.8996,-3.8942,-3.8914,-3.8914,-3.8832,-3.8646,-3.8356,-3.8242,-3.7826,-3.7255,-3.7144,-3.6947,-3.6763,-4.4615,-4.4615,-4.4615,-4.4615,-4.4615,-4.4649,-4.475,-4.5297,-4.5737,-4.5855,-4.6413,-4.6515,-4.5788,-4.5703,-4.5399,-4.4666,-4.4615,-4.4615,-4.4615,-4.4615,-4.4615,-4.4615,-4.4615,-4.4615,-4.4615,-4.3707,-4.2574,-4.1204,-4.0468,-4.007,-4.0087,-4.0087,-4.0062,-4.0037,-4.0037,-4.0037,-4.002,-3.991,-3.9875,-3.9875,-3.9755,-3.9703,-3.9703,-3.9703,-3.9703,-3.9703,-3.9703,-3.9677,-3.9677,-3.9677,-3.9651,-3.9625,-3.9625,-3.9625,-3.9625,-3.9484,-3.9563,-3.9625,-3.9625,-3.9542,-3.9298,-3.8535,-3.8107,-3.7549,-3.629,-3.5909,-3.5661,-3.5032,-3.4899,-3.4899,-3.4899,-3.4899,-3.4899,-3.4899,-3.4899,-3.4899,-3.4899,0.0,-3.4899,-3.4875,-3.4875,-3.4828,-3.4699,-3.4787,-3.4787,-3.4699,-3.4787,0.0,0.0,-3.4699,-3.465,-3.4561,-3.4763,-3.4875,-3.4851,-3.5579,-3.5935,-3.5951,-3.7317,-3.7955,-3.799,-3.8444,-3.8634,-3.8634,-3.8523,-3.8467,-3.8467,-3.8439,-3.8439,-3.8467,-3.8439,-3.8066,-3.7513,-3.7513,-3.7124,-3.6604,-4.4615,-4.4615,-4.4615,-4.4615,-4.4615,-4.4818,-4.5432,-4.5635,-4.5923,-4.6549,-4.6718,-4.6515,-4.5788,-4.5703,-4.5399,-4.4666,-4.4615,-4.4615,-4.4615,-4.4615,-4.4615,-4.4615,-4.4615,-4.4615,-4.4615,-4.3183,-4.2049,-4.1204,-4.0468,-4.0037,-3.9926,-3.9926,-3.9858,-3.9755,-3.9755,-3.9755,-3.9755,-3.9729,-3.9729,-3.9729,-3.9703,-3.9703,-3.9703,-3.9703,-3.9703,-3.9703,-3.9703,-3.9642,-3.9511,-3.9511,-3.9458,-3.9352,-3.9352,-3.9352,-3.9352,-3.9325,-3.9352,-3.9352,-3.9352,-3.8904,-3.8396,-3.8254,-3.7268,-3.629,-3.6059,-3.5512,-3.5032,-3.4916,-3.4899,-3.4899,-3.4899,-3.4899,-3.4899,-3.4899,-3.4899,-3.4899,-3.4899,0.0,-3.4875,-3.4739,-3.4715,-3.4505,-3.3853,-3.4251,-3.4341,-3.3827,-3.4267,-3.4341,-3.3827,-3.3802,-3.3572,-3.3061,-3.4152,-3.4683,-3.4546,-3.5292,-3.5956,-3.658,-3.7357,-3.7774,-3.785,-3.7917,-3.7602,-3.6964,-3.695,-3.6934,-3.6934,-3.6828,-3.6828,-3.695,-3.6828,-3.6766,-3.6747,-3.6642,-3.6595,-3.6591,-4.3486,-4.3486,-4.3486,-4.3486,-4.3486,-4.3585,-4.3932,-4.4329,-4.4879,-4.5577,-4.6022,-4.6126,-4.5759,-4.5703,-4.537,-4.4508,-4.444,-4.4412,-4.4344,-4.4485,-4.4615,-4.4615,-4.4615,-4.4615,-4.4615,-4.3027,-4.2028,-4.1664,-4.0465,-3.9858,-3.9781,-3.9781,-3.9755,-3.9703,-3.9703,-3.9703,-3.9703,-3.9625,-3.959,-3.959,-3.9494,-3.9468,-3.9468,-3.9468,-3.9468,-3.9468,-3.9468,-3.9432,-3.9379,-3.9379,-3.9352,-3.9299,-3.9299,-3.9299,-3.9299,-3.9299,-3.9299,-3.9216,-3.8808,-3.846,-3.803,-3.7218,-3.6506,-3.5893,-3.5495,-3.5148,-3.4899,-3.4899,-3.4899,-3.4899,-3.4899,-3.4899,-3.4899,-3.4899,-3.4899,0.0,0.0,-3.4851,-3.465,-3.426,-3.4161,-3.3843,-3.3177,-3.3365,-3.3417,-3.314,-3.3375,-3.3417,-3.3124,-3.3114,-3.2992,-3.2698,-3.3297,-3.3764,-3.4069,-3.4798,-3.5461,-3.6063,-3.6762,-3.711,-3.716,-3.707,-3.6873,-3.6615,-3.6523,-3.6492,-3.6492,-3.6446,-3.6446,-3.6492,-3.6399,-3.6446,-3.6492,-3.6415,-3.6446,-3.6492,-4.2458,-4.2458,-4.2458,-4.2379,-4.2379,-4.2443,-4.2605,-4.3201,-4.3862,-4.4499,-4.5135,-4.5388,-4.5117,-4.5109,-4.4732,-4.3848,-4.3768,-4.3739,-4.3608,-4.3844,-4.4121,-4.4457,-4.4485,-4.4485,-4.4485,-4.3075,-4.2219,-4.2051,-4.0635,-3.9845,-3.9651,-3.9651,-3.9625,-3.9599,-3.9435,-3.9478,-3.9599,-3.9335,-3.9228,-3.9228,-3.9272,-3.9121,-3.8871,-3.9023,-3.8969,-3.8887,-3.9023,-3.8969,-3.8887,-3.9023,-3.8969,-3.886,-3.886,-3.886,-3.886,-3.886,-3.8745,-3.858,-3.8282,-3.7963,-3.7433,-3.629,-3.5876,-3.5595,-3.5032,-3.4899,-3.4859,-3.4739,-3.4715,-3.4667,-3.4529,-3.4488,-3.4488,-3.4464,0.0,0.0,0.0,-3.4301,-3.4061,-3.3556,-3.3401,-3.3114,-3.247,-3.2567,-3.2552,-3.2442,-3.2567,-3.2552,-3.2415,-3.2415,-3.2437,-3.241,-3.2729,-3.3115,-3.3588,-3.4483,-3.5095,-3.5473,-3.6198,-3.6461,-3.6306,-3.6213,-3.6134,-3.6088,-3.5977,-3.5946,-3.5946,-3.5946,-3.5946,-3.5946,-3.5946,-3.5946,-3.5946,-3.5946,-3.5946,-3.5946,-4.2332,-4.23,-4.2269,-4.2062,-4.2029,-4.227,-4.2943,-4.325,-4.3638,-4.4167,-4.4461,-4.4252,-4.3396,-4.3283,-4.3009,-4.2253,-4.2157,-4.2157,-4.2157,-4.2189,-4.2769,-4.4068,-4.4126,-4.4126,-4.4126,-4.3339,-4.2602,-4.1904,-4.11,-4.0311,-3.9511,-3.9511,-3.9432,-3.9299,-3.8673,-3.8745,-3.9299,-3.8645,-3.8407,-3.8435,-3.905,-3.8579,-3.7605,-3.8165,-3.8039,-3.7605,-3.8165,-3.7994,-3.7634,-3.8181,-3.7994,-3.7546,-3.7546,-3.7546,-3.7546,-3.7546,-3.7086,-3.6834,-3.7906,-3.7218,-3.6141,-3.6025,-3.5479,-3.4965,-3.4916,-3.4899,-3.4763,-3.425,-3.4151,-3.3984,-3.3433,-3.3329,-3.3261,-3.3145,0.0,0.0,-3.2902,-3.2859,-3.2779,-3.2606,-3.2579,-3.2321,-3.1637,-3.2104,-3.2188,-3.1623,-3.2104,-3.2188,-3.1623,-3.1595,-3.1574,-3.1594,-3.2801,-3.3416,-3.3336,-3.46,-3.5276,-3.5338,-3.6045,-3.6103,-3.5482,-3.5497,-3.5154,-3.4568,-3.4568,-3.4534,-3.4534,-3.4534,-3.4534,-3.4534,-3.4534,-3.4534,-3.4534,-3.4534,-3.4534,-3.4534,-4.0888,-4.0888,-4.0854,-4.0786,-4.0752,-4.083,-4.1127,-4.1227,-4.1526,-4.2118,-4.2284,-4.234,-4.2413,-4.2414,-4.2237,-4.1852,-4.182,-4.1772,-4.1706,-4.1706,-4.2013,-4.2754,-4.2785,-4.2785,-4.2785,-4.1994,-4.1235,-4.0521,-3.969,-3.892,-3.8197,-3.8197,-3.8169,-3.8112,-3.7867,-3.7895,-3.8112,-3.7867,-3.7735,-3.7764,-3.8026,-3.7838,-3.7429,-3.7648,-3.7589,-3.7429,-3.7663,-3.7589,-3.7429,-3.7648,-3.7605,-3.7399,-3.7399,-3.7399,-3.7304,-3.6906,-3.6289,-3.5725,-3.5776,-3.5368,-3.4852,-3.4375,-3.4053,-3.386,-3.386,-3.3783,-3.3656,-3.3465,-3.3319,-3.3156,-3.2928,-3.2902,-3.2875,-3.2821,0.0,-3.2795,-3.2698,-3.2633,-3.2442,-3.2059,-3.1918,-3.1637,-3.0999,-3.1146,-3.1204,-3.097,-3.1146,-3.1353,-3.1483,-3.1879,-3.2123,-3.2135,-3.302,-3.3493,-3.34,-3.3936,-3.4382,-3.475,-3.5035,-3.5037,-3.4787,-3.4787,-3.4635,-3.4414,-3.4414,-3.4414,-3.4414,-3.4414,-3.4414,-3.4414,-3.4414,-3.4414,-3.4414,-3.4414,-3.4414,-3.4414,-3.9925,-3.9925,-3.9889,-3.9818,-3.9818,-3.9818,-3.9818,-3.9854,-4.0051,-4.0443,-4.0547,-4.0721,-4.1129,-4.1196,-4.1129,-4.0995,-4.0995,-4.0927,-4.0839,-4.0839,-4.1145,-4.182,-4.1852,-4.1852,-4.1852,-4.1278,-4.0626,-3.9928,-3.9123,-3.8366,-3.7701,-3.751,-3.7399,-3.7399,-3.7191,-3.7191,-3.7399,-3.7191,-3.7071,-3.7101,-3.731,-3.7161,-3.6814,-3.7011,-3.6966,-3.6845,-3.7011,-3.6951,-3.6814,-3.6981,-3.689,-3.6707,-3.6631,-3.66,-3.6507,-3.5825,-3.5143,-3.4417,-3.3748,-3.3451,-3.3282,-3.3229,-3.3172,-3.3145,-3.3145,-3.3039,-3.2864,-3.2691,-3.2524,-3.2388,-3.221,-3.2182,-3.2182,-3.2127,-3.2099,-3.2099,-3.2056,-3.1959,-3.1777,-3.1407,-3.1277,-3.1058,-3.0628,-3.0786,-3.0872,-3.0872,-3.1061,-3.138,-3.177,-3.2454,-3.2817,-3.2817,-3.3427,-3.3794,-3.3794,-3.3794,-3.3978,-3.4414,-3.4414,-3.4414,-3.4414,-3.4414,-3.4414,-3.4414,-3.4414,-3.4414,-3.4414,-3.4414,-3.4414,-3.4414,-3.4414,-3.4414,-3.4414,-3.4414,-3.4414,-3.4414,-3.9732,-3.9681,-3.9625,-3.9409,-3.9388,-3.9388,-3.9388,-3.9589,-3.9625,-3.9424,-3.9589,-3.961,-3.9409,-3.9388,-3.9388,-3.9388,-3.9388,-3.9388,-3.9388,-3.9388,-4.0005,-4.1426,-4.1492,-4.1492,-4.1492,-4.1492,-4.1112,-4.037,-3.9708,-3.903,-3.8367,-3.7701,-3.7399,-3.737,-3.6692,-3.6753,-3.734,-3.6692,-3.6399,-3.6461,-3.7101,-3.6646,-3.5569,-3.6164,-3.6022,-3.5602,-3.6164,-3.599,-3.5569,-3.6022,-3.575,-3.5148,-3.4968,-3.4902,-3.4769,-3.4168,-3.352,-3.2856,-3.2178,-3.1559,-3.1438,-3.2826,-3.3093,-3.2986,-3.2986,-3.2837,-3.2536,-3.1987,-3.189,-3.1736,-3.1176,-3.1117,-3.1014,-3.0821,-3.0806,-3.0776,-3.0612,-3.0612,-3.0612,-3.0612,-3.0612,-3.0612,-3.0612,-3.1163,-3.1495,-3.1495,-3.2118,-3.2495,-3.2495,-3.3137,-3.3518,-3.3518,-3.4095,-3.4414,-3.4414,-3.4414,-3.4414,-3.4414,-3.4414,-3.4414,-3.4414,-3.4414,-3.4414,-3.4414,-3.4414,-3.4414,-3.4414,-3.4414,-3.4414,-3.4414,-3.4414,-3.4414,-3.4414,-3.4414,-3.4414,-3.4414,-3.9481,-3.9481,-3.9445,-3.9424,-3.9388,-3.9388,-3.9388,-3.9445,-3.9445,-3.9424,-3.9445,-3.9445,-3.9424,-3.9388,-3.9388,-3.9388,-3.9388,-3.9388,-3.9388,-3.9388,-3.9589,-4.0005,-4.0041,-4.0041,-4.0041,-4.0041,-3.9706,-3.9006,-3.8351,-3.7697,-3.7058,-3.6373,-3.6053,-3.6068,-3.5861,-3.5878,-3.6053,-3.5846,-3.5765,-3.5797,-3.6005,-3.5829,-3.5504,-3.5524,-3.5427,-3.5279,-3.5314,-3.5216,-3.51,-3.5249,-3.5151,-3.4968,-3.4935,-3.4902,-3.4769,-3.4168,-3.3876,-3.3581,-3.2886,-3.2562,-3.233,-3.1835,-3.1695,-3.1667,-3.1667,-3.1508,-3.1335,-3.1175,-3.1043,-3.094,-3.0791,-3.0762,-3.0732,-3.0672,-3.1006,-3.128,-3.1235,-3.1642,-3.1932,-3.1932,-3.1932,-3.1932,-3.1932,-3.2121,-3.2191,-3.2191,-3.2817,-3.3213,-3.3213,-3.379,-3.4124,-3.4124,-3.4312,-3.4414,-3.4414,-3.4414,-3.4414,-3.4414,-3.4414,-3.4414,-3.4414,-3.4414,-3.4414,-3.4414,-3.4414,-3.4414,-3.4414,-3.4414,-3.4414,-3.4414,-3.4414,-3.4414,-3.4414,-3.4414,-3.4414,-3.4414,-3.9388,-3.9388,-3.9388,-3.9388,-3.9388,-3.9388,-3.9388,-3.9388,-3.9388,-3.9388,-3.9388,-3.9388,-3.9388,-3.9388,-3.9388,-3.9388,-3.9388,-3.9388,-3.9388,-3.9388,-3.9388,-3.9388,-3.9388,-3.9388,-3.9388,-3.9388,-3.9215,-3.8796,-3.7868,-3.721,-3.6836,-3.5923,-3.5504,-3.5504,-3.5504,-3.5504,-3.5504,-3.5439,-3.5359,-3.5359,-3.5294,-3.5261,-3.5261,-3.5115,-3.5082,-3.5082,-3.4935,-3.4902,-3.4902,-3.4835,-3.4769,-3.4702,-3.4702,-3.4702,-3.457,-3.3973,-3.3783,-3.3651,-3.2991,-3.2798,-3.2608,-3.1863,-3.1688,-3.1748,-3.1748,-3.1596,-3.1474,-3.1474,-3.1413,-3.1337,-3.1337,-3.1337,-3.1337,-3.1337,-3.1671,-3.1886,-3.1886,-3.2234,-3.2481,-3.2481,-3.2481,-3.2481,-3.2481,-3.2745,-3.2991,-3.3238,-3.363,-3.3848,-3.3848,-3.4196,-3.4414,-3.4414,-3.4312,-3.4312,-3.4414,-3.4312,-3.4312,-3.4414,-3.4414,-3.4414,-3.4414,-3.4414,-3.4414,-3.4414,-3.4414,-3.4414,-3.4414,-3.4414,-3.4414,-3.4414,-3.4414,-3.4414,-3.4414,-3.4414,-3.4414,-3.4414,-3.9388,-3.9388,-3.9388,-3.9388,-3.9388,-3.9388,-3.9388,-3.9388,-3.9388,-3.9388,-3.9388,-3.9388,-3.9388,-3.9388,-3.9388,-3.9388,-3.9388,-3.9388,-3.9373,-3.9373,-3.9373,-3.9373,-3.9373,-3.9373,-3.9373,-3.9388,-3.9388,-3.9388,-3.8138,-3.7464,-3.7375,-3.6129,-3.5532,-3.5472,-3.5439,-3.5439,-3.5439,-3.5261,-3.518,-3.5148,-3.4968,-3.4902,-3.4902,-3.4902,-3.4868,-3.4868,-3.4868,-3.4868,-3.4835,-3.4731,-3.4563,-3.4414,-3.4414,-3.4414,-3.4298,-3.375,-3.359,-3.346,-3.2846,-3.2655,-3.2655,-3.2655,-3.2768,-3.2806,-3.2703,-3.2594,-3.2481,-3.2481,-3.2481,-3.2481,-3.2481,-3.2481,-3.2481,-3.2481,-3.2571,-3.26,-3.26,-3.2658,-3.2655,-3.2655,-3.2655,-3.2655,-3.2655,-3.3209,-3.379,-3.4303,-3.438,-3.438,-3.4346,-3.4346,-3.4346,-3.4346,-3.4176,-3.4162,-3.4346,-3.4162,-3.4176,-3.438,-3.438,-3.438,-3.4346,-3.4346,-3.4346,-3.4346,-3.4346,-3.4346,-3.4346,-3.4346,-3.4346,-3.4346,-3.4346,-3.4346,-3.4346,-3.4346,-3.4346,-3.4346,-3.9388,-3.9388,-3.9388,-3.9388,-3.9388,-3.9388,-3.9388,-3.9388,-3.9388,-3.9388,-3.9388,-3.9388,-3.9388,-3.9388,-3.9388,-3.9388,-3.9388,-3.9337,-3.9177,-3.9177,-3.9177,-3.9177,-3.9177,-3.9177,-3.9177,-3.9301,-3.9388,-3.9388,-3.8586,-3.7913,-3.7389,-3.6477,-3.5785,-3.5261,-3.5115,-3.5034,-3.5034,-3.4968,-3.4968,-3.4968,-3.4935,-3.4902,-3.4902,-3.4783,-3.475,-3.4731,-3.4582,-3.4515,-3.4515,-3.4481,-3.4448,-3.4414,-3.4414,-3.4414,-3.4385,-3.424,-3.4196,-3.4182,-3.4037,-3.4008,-3.4008,-3.4008,-3.3993,-3.3765,-3.2762,-3.2513,-3.2481,-3.2481,-3.2481,-3.2481,-3.2481,-3.2481,-3.2481,-3.2481,-3.2933,-3.33,-3.33,-3.3688,-3.4008,-3.4008,-3.4008,-3.4008,-3.4008,-3.4124,-3.4134,-3.402,-3.4108,-3.4108,-3.402,-3.402,-3.402,-3.402,-3.3951,-3.3951,-3.402,-3.3951,-3.4005,-3.4162,-3.4162,-3.4108,-3.402,-3.402,-3.402,-3.402,-3.402,-3.402,-3.402,-3.402,-3.402,-3.402,-3.402,-3.402,-3.402,-3.402,-3.402,-3.402,-3.9388,-3.9388,-3.9388,-3.9388,-3.9388,-3.9388,-3.9388,-3.9388,-3.9388,-3.9388,-3.9388,-3.9337,-3.9265,-3.9265,-3.9228,-3.9104,-3.9104,-3.9068,-3.8943,-3.8943,-3.8943,-3.8943,-3.8943,-3.8943,-3.8943,-3.9068,-3.9104,-3.9104,-3.8436,-3.7931,-3.7575,-3.6556,-3.5866,-3.5526,-3.5067,-3.4902,-3.4902,-3.4835,-3.4817,-3.4817,-3.4702,-3.4668,-3.4635,-3.4582,-3.4563,-3.4549,-3.4448,-3.4414,-3.4414,-3.4414,-3.4414,-3.4414,-3.4414,-3.4414,-3.4414,-3.4414,-3.4414,-3.4414,-3.4414,-3.4414,-3.4414,-3.4414,-3.4414,-3.424,-3.3572,-3.3427,-3.3427,-3.3427,-3.3427,-3.3427,-3.3427,-3.3427,-3.3427,-3.3427,-3.3703,-3.392,-3.392,-3.4196,-3.4346,-3.4264,-3.4264,-3.4244,-3.4157,-3.4157,-3.4088,-3.3917,-3.3951,-3.3985,-3.3882,-3.3896,-3.3896,-3.3896,-3.3827,-3.3793,-3.3896,-3.3793,-3.3779,-3.3868,-3.3971,-3.3985,-3.3896,-3.3896,-3.3896,-3.3896,-3.3896,-3.3896,-3.3896,-3.3896,-3.3896,-3.3896,-3.3896,-3.3896,-3.3896,-3.3896,-3.3896,-3.3896,-3.9388,-3.9388,-3.9388,-3.9388,-3.9373,-3.9337,-3.9337,-3.9301,-3.9301,-3.9301,-3.9301,-3.9228,-3.9068,-3.9068,-3.898,-3.8819,-3.8782,-3.8797,-3.876,-3.876,-3.876,-3.876,-3.876,-3.876,-3.876,-3.876,-3.876,-3.8782,-3.8251,-3.7927,-3.7758,-3.6698,-3.608,-3.5829,-3.5232,-3.4938,-3.4802,-3.4683,-3.4664,-3.4631,-3.4481,-3.4414,-3.4414,-3.4414,-3.4414,-3.4414,-3.4414,-3.4414,-3.4414,-3.4414,-3.4414,-3.4414,-3.4414,-3.4414,-3.4414,-3.4414,-3.4414,-3.4414,-3.4414,-3.4414,-3.4414,-3.4414,-3.4414,-3.4414,-3.4414,-3.4414,-3.4414,-3.4414,-3.4414,-3.4414,-3.4414,-3.4414,-3.4414,-3.4414,-3.438,-3.4346,-3.4346,-3.4346,-3.4244,-3.4108,-3.4074,-3.4005,-3.3848,-3.3896,-3.3862,-3.3793,-3.3827,-3.3827,-3.3793,-3.3793,-3.3793,-3.3793,-3.364,-3.364,-3.3793,-3.364,-3.3536,-3.3536,-3.3709,-3.3793,-3.3793,-3.3793,-3.3793,-3.3793,-3.3793,-3.3793,-3.3793,-3.3793,-3.3793,-3.3793,-3.3793,-3.3793,-3.3793,-3.3793,-3.3793,-3.3793,-3.9388,-3.9388,-3.9388,-3.9388,-3.9265,-3.9141,-3.9141,-3.898,-3.887,-3.887,-3.887,-3.887,-3.8819,-3.8819,-3.8819,-3.8782,-3.8782,-3.8723,-3.8553,-3.8553,-3.8553,-3.8553,-3.8553,-3.8553,-3.8553,-3.8553,-3.8612,-3.8782,-3.8694,-3.8369,-3.7773,-3.7518,-3.6758,-3.5639,-3.5428,-3.5025,-3.4481,-3.4448,-3.4448,-3.4448,-3.4414,-3.4414,-3.4414,-3.4414,-3.4414,-3.4414,-3.4414,-3.4414,-3.4414,-3.4414,-3.4414,-3.4414,-3.4414,-3.4414,-3.4414,-3.4414,-3.4414,-3.4414,-3.4414,-3.4414,-3.4414,-3.4414,-3.4414,-3.4414,-3.4414,-3.4414,-3.4414,-3.4414,-3.4414,-3.4414,-3.4414,-3.4414,-3.4414,-3.4414,-3.423,-3.4128,-3.4128,-3.404,-3.3965,-3.3931,-3.3931,-3.3848,-3.364,-3.3793,-3.3744,-3.3396,-3.3536,-3.357,-3.3396,-3.3396,-3.3396,-3.3396,-3.3361,-3.3361,-3.3396,-3.3361,-3.3361,-3.3361,-3.3361,-3.3396,-3.3396,-3.3396,-3.3396,-3.3396,-3.3396,-3.3396,-3.3396,-3.3396,-3.3396,-3.3396,-3.3396,-3.3396,-3.3396,-3.3396,-3.3396,-3.3396,-3.9068,-3.9068,-3.9068,-3.9068,-3.898,-3.8943,-3.8943,-3.887,-3.8782,-3.8782,-3.8782,-3.876,-3.8649,-3.8538,-3.8449,-3.8449,-3.8449,-3.8427,-3.8329,-3.8329,-3.8329,-3.8329,-3.8329,-3.8329,-3.8329,-3.8329,-3.8389,-3.8449,-3.8449,-3.8318,-3.8025,-3.7631,-3.7128,-3.6509,-3.5747,-3.5247,-3.4922,-3.4559,-3.4414,-3.4414,-3.4414,-3.4414,-3.4414,-3.4414,-3.4414,-3.4414,-3.4414,-3.4414,-3.4414,-3.4414,-3.4414,-3.4414,-3.4414,-3.4414,-3.438,-3.4264,-3.4312,-3.438,-3.4264,-3.4312,-3.438,-3.4264,-3.423,-3.421,-3.4157,-3.4122,-3.4142,-3.421,-3.423,-3.423,-3.423,-3.423,-3.423,-3.423,-3.4108,-3.3985,-3.3985,-3.3951,-3.3862,-3.3744,-3.364,-3.3536,-3.3431,-3.3501,-3.3501,-3.3326,-3.3396,-3.3396,-3.329,-3.329,-3.329,-3.329,-3.329,-3.329,-3.329,-3.329,-3.329,-3.329,-3.329,-3.329,-3.329,-3.329,-3.329,-3.329,-3.329,-3.329,-3.329,-3.329,-3.329,-3.329,-3.329,-3.329,-3.329,-3.329,-3.329,-3.329]},{"header":{"parameterUnit":"m.s-1","parameterCategory":1,"la1":30.6,"la2":28.766,"lo1":-90.7593,"lo2":-88.6598,"dy":0.0162,"dx":0.0183,"nx":116,"ny":114,"refTime":"2023-08-10T06:00:00:Z","depth":0,"parameterNumber":3,"parameterNumberName":"V-component_of_WINDS"},"data":[0.0,0.0,0.0,0.0,0.0,0.0,0.0,0.0,0.0,0.0,0.0,0.0,0.0,0.0,0.0,0.0,0.0,0.0,0.0,0.0,0.0,0.0,0.0,0.0,0.0,0.0,0.0,0.0,0.0,0.0,0.0,0.0,0.0,0.0,0.0,0.0,0.0,0.0,0.0,0.0,0.0,0.0,0.0,0.0,0.0,0.0,0.0,0.0,0.0,0.0,0.0,0.0,0.0,0.0,0.0,0.0,0.0,0.0,0.0,0.0,0.0,0.0,0.0,0.0,0.0,0.0,0.0,0.0,0.0,0.0,0.0,0.0,0.0,0.0,0.0,0.0,0.0,0.0,0.0,0.0,0.0,0.0,0.0,0.0,0.0,0.0,0.0,0.0,0.0,0.0,0.0,0.0,0.0,0.0,0.0,0.0,0.0,0.0,0.0,0.0,0.0,0.0,0.0,0.0,0.0,0.0,0.0,0.0,0.0,0.0,0.0,0.0,0.0,0.0,0.0,0.0,0.0,0.0,0.0,0.0,0.0,0.0,0.0,0.0,0.0,0.0,0.0,0.0,0.0,0.0,0.0,0.0,0.0,0.0,0.0,0.0,0.0,0.0,0.0,0.0,0.0,0.0,0.0,0.0,0.0,0.0,0.0,0.0,0.0,0.0,0.0,0.0,0.0,0.0,0.0,0.0,0.0,0.0,0.0,0.0,0.0,0.0,0.0,0.0,0.0,0.0,0.0,0.0,0.0,0.0,0.0,0.0,0.0,0.0,0.0,0.0,0.0,0.0,0.0,0.0,0.0,0.0,0.0,0.0,0.0,0.0,0.0,0.0,0.0,0.0,0.0,0.0,0.0,0.0,0.0,0.0,0.0,0.0,0.0,0.0,0.0,0.0,0.0,0.0,0.0,0.0,0.0,0.0,0.0,0.0,0.0,0.0,0.0,0.0,0.0,0.0,0.0,0.0,0.0,0.0,0.0,0.0,0.0,0.0,0.0,0.0,0.0,0.0,0.0,0.0,0.0,0.0,0.0,0.0,0.0,0.0,0.0,0.0,0.0,0.0,0.0,0.0,0.0,0.0,0.0,0.0,0.0,0.0,0.0,0.0,0.0,0.0,0.0,0.0,0.0,0.0,0.0,0.0,0.0,0.0,0.0,0.0,0.0,0.0,0.0,0.0,0.0,0.0,0.0,0.0,0.0,0.0,0.0,0.0,0.0,0.0,0.0,0.0,0.0,0.0,0.0,0.0,0.0,0.0,0.0,0.0,0.0,0.0,0.0,0.0,0.0,0.0,0.0,0.0,0.0,0.0,0.0,0.0,0.0,0.0,0.0,0.0,0.0,0.0,0.0,0.0,0.0,0.0,0.0,0.0,0.0,0.0,0.0,0.0,0.0,0.0,0.0,0.0,0.0,0.0,0.0,0.0,0.0,0.0,0.0,0.0,0.0,0.0,0.0,0.0,0.0,0.0,0.0,0.0,0.0,0.0,0.0,0.0,0.0,0.0,0.0,0.0,0.0,0.0,0.0,0.0,0.0,0.0,0.0,0.0,0.0,0.0,0.0,0.0,0.0,0.0,0.0,0.0,0.0,0.0,0.0,0.0,0.0,0.0,0.0,0.0,0.0,0.0,0.0,0.0,0.0,0.0,0.0,0.0,0.0,0.0,0.0,0.0,0.0,0.0,0.0,0.0,0.0,0.0,0.0,0.0,0.0,0.0,0.0,0.0,0.0,0.0,0.0,0.0,0.0,0.0,0.0,0.0,0.0,0.0,0.0,0.0,0.0,0.0,0.0,0.0,0.0,0.0,0.0,0.0,0.0,0.0,0.0,0.0,0.0,0.0,0.0,0.0,0.0,0.0,0.0,0.0,0.0,0.0,0.0,0.0,0.0,0.0,0.0,0.0,0.0,0.0,0.0,0.0,0.0,0.0,0.0,0.0,0.0,0.0,0.0,0.0,0.0,0.0,0.0,0.0,0.0,0.0,0.0,0.0,0.0,0.0,0.0,0.0,0.0,0.0,0.0,0.0,0.0,0.0,0.0,0.0,0.0,0.0,0.0,0.0,0.0,0.0,0.0,0.0,0.0,0.0,0.0,0.0,0.0,0.0,0.0,0.0,0.0,0.0,0.0,0.0,0.0,0.0,0.0,0.0,0.0,0.0,0.0,0.0,0.0,0.0,0.0,0.0,0.0,0.0,0.0,0.0,0.0,0.0,0.0,0.0,0.0,0.0,0.0,0.0,0.0,0.0,0.0,0.0,0.0,0.0,0.0,0.0,0.0,0.0,0.0,0.0,0.0,0.0,0.0,0.0,0.0,0.0,0.0,0.0,0.0,0.0,0.0,0.0,0.0,0.0,0.0,0.0,0.0,0.0,0.0,0.0,0.0,0.0,0.0,0.0,0.0,0.0,0.0,0.0,0.0,0.0,0.0,0.0,0.0,0.0,0.0,0.0,0.0,0.0,0.0,0.0,0.0,0.0,0.0,0.0,0.0,0.0,0.0,0.0,0.0,0.0,0.0,0.0,0.0,0.0,0.0,0.0,0.0,0.0,0.0,0.0,0.0,0.0,0.0,0.0,0.0,0.0,0.0,0.0,0.0,0.0,0.0,0.0,0.0,0.0,0.0,0.0,0.0,0.0,0.0,0.0,0.0,0.0,0.0,0.0,0.0,0.0,0.0,0.0,0.0,0.0,0.0,0.0,0.0,0.0,0.0,0.0,0.0,0.0,0.0,0.0,0.0,0.0,0.0,0.0,0.0,0.0,0.0,0.0,0.0,0.0,0.0,0.0,0.0,0.0,0.0,0.0,0.0,0.0,0.0,0.0,0.0,0.0,0.0,0.0,0.0,0.0,0.0,0.0,0.0,0.0,0.0,0.0,0.0,0.0,0.0,0.0,0.0,0.0,0.0,0.0,0.0,0.0,0.0,0.0,0.0,0.0,0.0,0.0,0.0,0.0,0.0,0.0,0.0,0.0,0.0,0.0,0.0,0.0,0.0,0.0,0.0,0.0,0.0,0.0,0.0,0.0,0.0,0.0,0.0,0.0,0.0,0.0,0.0,0.0,0.0,0.0,0.0,0.0,0.0,0.0,0.0,0.0,0.0,0.0,0.0,0.0,0.0,0.0,0.0,0.0,0.0,0.0,0.0,0.0,0.0,0.0,0.0,0.0,0.0,0.0,0.0,0.0,0.0,0.0,0.0,0.0,0.0,0.0,0.0,0.0,0.0,0.0,0.0,0.0,0.0,0.0,0.0,0.0,0.0,0.0,0.0,0.0,0.0,0.0,0.0,0.0,0.0,0.0,0.0,0.0,0.0,0.0,0.0,0.0,0.0,0.0,0.0,0.0,0.0,0.0,0.0,0.0,0.0,0.0,0.0,0.0,0.0,0.0,0.0,0.0,0.0,0.0,0.0,0.0,0.0,0.0,0.0,0.0,0.0,0.0,0.0,0.0,0.0,0.0,0.0,0.0,0.0,0.0,0.0,0.0,0.0,0.0,0.0,0.0,0.0,0.0,0.0,0.0,0.0,0.0,0.0,0.0,0.0,0.0,0.0,0.0,0.0,0.0,0.0,0.0,0.0,0.0,0.0,0.0,0.0,0.0,0.0,0.0,0.0,0.0,0.0,0.0,0.0,0.0,0.0,0.0,0.0,0.0,0.0,0.0,0.0,0.0,0.0,0.0,0.0,0.0,0.0,0.0,0.0,0.0,0.0,0.0,0.0,0.0,0.0,0.0,0.0,0.0,0.0,0.0,0.0,0.0,0.0,0.0,0.0,0.0,0.0,0.0,0.0,0.0,0.0,0.0,0.0,0.0,0.0,0.0,0.0,0.0,0.0,0.0,0.0,0.0,0.0,0.0,0.0,0.0,0.0,0.0,0.0,0.0,0.0,0.0,0.0,0.0,0.0,0.0,0.0,0.0,0.0,0.0,0.0,0.0,0.0,0.0,0.0,0.0,0.0,0.0,0.0,0.0,0.0,0.0,0.0,0.0,0.0,0.0,0.0,0.0,0.0,0.0,0.0,0.0,0.0,0.0,0.0,0.0,0.0,0.0,0.0,0.0,0.0,0.0,0.0,0.0,0.0,0.0,0.0,0.0,0.0,0.0,0.0,0.0,0.0,0.0,0.0,0.0,0.0,0.0,0.0,0.0,0.0,0.0,0.0,0.0,0.0,0.0,0.0,0.0,0.0,0.0,0.0,0.0,0.0,0.0,0.0,0.0,0.0,0.0,0.0,0.0,0.0,0.0,0.0,0.0,0.0,0.0,0.0,0.0,0.0,0.0,0.0,0.0,0.0,0.0,0.0,0.0,0.0,0.0,0.0,0.0,0.0,0.0,0.0,0.0,0.0,0.0,0.0,0.0,0.0,0.0,0.0,0.0,0.0,0.0,0.0,0.0,0.0,0.0,0.0,0.0,0.0,0.0,0.0,0.0,0.0,0.0,0.0,0.0,0.0,0.0,0.0,0.0,0.0,0.0,0.0,0.0,0.0,0.0,0.0,0.0,0.0,0.0,0.0,0.0,0.0,0.0,0.0,0.0,0.0,0.0,0.0,0.0,0.0,0.0,0.0,0.0,0.0,0.0,0.0,0.0,0.0,0.0,0.0,0.0,0.0,0.0,0.0,0.0,0.0,0.0,0.0,0.0,0.0,0.0,0.0,0.0,0.0,0.0,0.0,0.0,0.0,0.0,0.0,0.0,0.0,0.0,0.0,0.0,0.0,0.0,0.0,0.0,0.0,0.0,0.0,0.0,0.0,0.0,0.0,0.0,0.0,0.0,0.0,0.0,0.0,0.0,0.0,0.0,0.0,0.0,0.0,0.0,0.0,0.0,0.0,0.0,0.0,0.0,0.0,0.0,0.0,0.0,0.0,0.0,0.0,0.0,0.0,0.0,0.0,0.0,0.0,0.0,0.0,0.0,0.0,0.0,0.0,0.0,0.0,0.0,0.0,0.0,0.0,0.0,0.0,0.0,0.0,0.0,0.0,0.0,0.0,0.0,0.0,0.0,0.0,0.0,0.0,0.0,0.0,0.0,0.0,0.0,0.0,0.0,0.0,0.0,0.0,0.0,0.0,0.0,0.0,0.0,0.0,0.0,0.0,0.0,0.0,0.0,0.0,0.0,0.0,0.0,0.0,0.0,0.0,0.0,0.0,0.0,0.0,0.0,0.0,0.0,0.0,0.0,0.0,0.0,0.0,0.0,0.0,0.0,0.0,0.0,0.0,0.0,0.0,0.0,0.0,0.0,0.0,0.0,0.0,0.0,0.0,0.0,0.0,0.0,0.0,0.0,0.0,0.0,0.0,0.0,0.0,0.0,0.0,0.0,0.0,0.0,0.0,0.0,0.0,0.0,0.0,0.0,0.0,0.0,0.0,0.0,0.0,0.0,0.0,0.0,0.0,0.0,0.0,0.0,0.0,0.0,0.0,0.0,0.0,0.0,0.0,0.0,0.0,0.0,0.0,0.0,0.0,0.0,0.0,0.0,0.0,0.0,0.0,0.0,0.0,0.0,0.0,0.0,0.0,0.0,0.0,0.0,0.0,0.0,0.0,0.0,0.0,0.0,0.0,0.0,0.0,0.0,0.0,0.0,0.0,0.0,0.0,0.0,0.0,0.0,0.0,0.0,0.0,0.0,0.0,0.0,0.0,0.0,0.0,0.0,0.0,0.0,0.0,0.0,0.0,0.0,0.0,0.0,0.0,0.0,0.0,0.0,0.0,0.0,0.0,0.0,0.0,0.0,0.0,0.0,0.0,0.0,0.0,0.0,0.0,0.0,0.0,0.0,0.0,0.0,0.0,0.0,0.0,0.0,0.0,0.0,0.0,0.0,0.0,0.0,0.0,0.0,0.0,0.0,0.0,0.0,0.0,0.0,0.0,0.0,0.0,0.0,0.0,0.0,0.0,0.0,0.0,0.0,0.0,0.0,0.0,0.0,0.0,0.0,0.0,0.0,0.0,0.0,0.0,0.0,0.0,0.0,0.0,0.0,0.0,0.0,0.0,0.0,0.0,0.0,0.0,0.0,0.0,0.0,0.0,0.0,0.0,0.0,0.0,0.0,0.0,0.0,0.0,0.0,0.0,0.0,0.0,0.0,0.0,0.0,-0.5994,0.0,0.0,0.0,0.0,0.0,0.0,0.0,0.0,0.0,0.0,0.0,0.0,0.0,0.0,0.0,0.0,0.0,0.0,0.0,0.0,0.0,0.0,0.0,0.0,0.0,0.0,0.0,0.0,0.0,0.0,0.0,0.0,0.0,0.0,0.0,0.0,0.0,0.0,0.0,0.0,0.0,0.0,0.0,0.0,0.0,0.0,0.0,0.0,0.0,0.0,0.0,0.0,0.0,0.0,0.0,0.0,0.0,0.0,0.0,0.0,0.0,0.0,0.0,0.0,0.0,0.0,0.0,0.0,0.0,0.0,0.0,0.0,0.0,0.0,0.0,0.0,0.0,0.0,0.0,0.0,0.0,0.0,0.0,0.0,0.0,0.0,0.0,0.0,0.0,0.0,0.0,0.0,0.0,0.0,0.0,0.0,0.0,0.0,0.0,0.0,0.0,0.0,0.0,0.0,0.0,0.0,0.0,0.0,0.0,0.0,0.0,0.0,0.0,0.0,0.0,0.0,-0.6171,0.0,0.0,0.0,0.0,0.0,0.0,0.0,0.0,0.0,0.0,0.0,0.0,0.0,0.0,0.0,0.0,0.0,0.0,0.0,0.0,0.0,0.0,0.0,0.0,0.0,0.0,0.0,0.0,0.0,0.0,0.0,0.0,0.0,0.0,0.0,0.0,0.0,0.0,0.0,0.0,0.0,0.0,0.0,0.0,0.0,0.0,0.0,0.0,0.0,0.0,0.0,0.0,0.0,0.0,0.0,0.0,0.0,0.0,0.0,0.0,0.0,0.0,0.0,0.0,0.0,0.0,0.0,0.0,0.0,0.0,0.0,0.0,0.0,0.0,0.0,0.0,0.0,0.0,0.0,0.0,0.0,0.0,0.0,0.0,0.0,0.0,0.0,0.0,0.0,0.0,0.0,0.0,0.0,0.0,0.0,0.0,0.0,0.0,0.0,0.0,0.0,0.0,0.0,0.0,0.0,0.0,0.0,0.0,0.0,-0.575,-0.575,-0.575,-0.5927,-0.6149,-0.6194,-0.6299,-0.6384,0.0,0.0,0.0,0.0,0.0,0.0,0.0,0.0,0.0,0.0,0.0,0.0,0.0,0.0,0.0,0.0,0.0,0.0,0.0,0.0,0.0,0.0,0.0,0.0,0.0,0.0,0.0,0.0,0.0,0.0,0.0,0.0,0.0,0.0,0.0,0.0,0.0,0.0,0.0,0.629,0.629,0.629,0.629,0.6605,0.0,0.0,0.0,0.0,0.0,0.0,0.0,0.0,0.0,0.0,0.0,0.0,0.0,0.0,0.0,0.0,0.0,0.0,0.0,0.0,0.0,0.0,0.0,0.0,0.0,0.0,0.0,0.0,0.0,0.0,0.0,0.0,0.0,0.0,0.0,0.0,0.0,0.0,0.0,0.0,0.0,0.0,0.0,-0.1118,-0.2323,0.0,0.0,0.0,0.0,0.0,0.0,0.0,0.0,0.0,0.0,0.0,0.0,0.0,0.0,-0.588,-0.5986,-0.604,-0.604,-0.604,-0.604,-0.604,-0.604,-0.6178,-0.6359,-0.6599,0.0,-0.6432,-0.6615,0.0,0.0,0.0,0.0,0.0,0.0,0.0,0.0,0.0,0.0,0.0,0.0,0.0,0.0,0.0,0.0,0.0,0.0,0.0,0.0,0.0,0.0,0.0,0.0,0.0,0.0,0.0,0.0,0.0,0.0,0.0,0.0,0.0,0.0,0.0,0.0,0.6299,0.6107,0.6107,0.6034,0.5865,0.5591,0.5615,0.5897,0.6293,0.6163,0.0,0.0,0.0,0.0,0.0,0.0,0.0,0.0,0.0,0.0,0.0,0.0,0.0,0.0,0.0,0.0,0.0,0.0,0.0,0.0,0.0,0.0,0.0,0.0,0.0,0.0,0.0,0.0,0.0,0.0,0.0,0.0,0.0,0.0,0.0,0.0,0.0,0.0,0.0,-0.0581,-0.1163,-0.2368,-0.2727,-0.3266,0.0,0.0,0.0,0.0,0.0,0.0,0.0,0.0,0.0,-0.5931,-0.598,-0.6005,-0.6005,-0.6127,-0.6189,-0.6189,-0.6252,-0.6285,-0.6285,-0.6285,-0.6341,-0.6517,-0.681,-0.6891,-0.6841,-0.6982,-0.6891,-0.6731,0.0,0.0,0.0,0.0,0.0,-0.7095,0.0,0.0,0.0,0.0,0.0,0.0,0.0,0.0,0.0,0.0,0.0,0.0,0.0,0.0,0.0,0.5688,0.0,0.0,0.0,0.0,0.0,0.0,0.0,0.0,0.0,0.0,0.0,0.0,0.604,0.6086,0.6083,0.5994,0.5765,0.5439,0.5309,0.5597,0.616,0.5941,0.5586,0.0,0.0,0.0,0.0,0.0,0.0,0.0,0.0,0.0,0.0,0.0,0.0,0.0,0.0,0.0,0.0,0.0,0.0,0.0,0.0,0.0,0.0,0.0,0.0,0.0,0.0,0.0,0.0,0.0,0.0,0.0,0.0,0.0,0.0,0.0,0.0,0.0,0.0,-0.0863,-0.1635,-0.2769,-0.3544,-0.4229,0.0,0.0,0.0,0.0,0.0,0.0,-0.5994,-0.6083,-0.6146,-0.6173,-0.6206,-0.6222,-0.6222,-0.6344,-0.6404,-0.6407,-0.6491,-0.6478,-0.6478,-0.6478,-0.6533,-0.6647,-0.6947,-0.7091,-0.7224,-0.7276,-0.725,-0.7158,-0.7158,-0.709,-0.7037,-0.7168,-0.7213,-0.7213,0.0,0.0,0.0,0.0,0.0,0.0,0.0,0.0,0.0,0.0,0.0,0.0,0.0,0.0,0.5688,0.5688,0.5688,0.5688,0.0,0.0,0.0,0.0,0.0,0.0,0.0,0.0,0.0,0.6075,0.6083,0.6086,0.6086,0.6081,0.6078,0.6075,0.607,0.5432,0.4431,0.4431,0.4121,0.3765,0.0,0.0,0.0,0.0,0.0,0.0,0.0,0.0,0.0,0.0,0.0,0.0,0.0,0.0,0.0,0.0,0.0,0.0,0.0,0.0,0.0,0.0,0.0,0.0,0.0,0.0,0.0,0.0,0.0,0.0,0.0,0.0,0.0,0.0,0.0,0.0,0.0,0.0,0.0,-0.3882,-0.3553,0.0,0.0,0.0,0.0,-0.602,-0.6072,-0.6127,-0.6292,-0.6306,-0.6309,-0.6365,-0.6532,-0.6592,-0.6592,-0.6714,-0.6777,-0.6777,-0.6782,-0.6785,-0.6785,-0.6785,-0.6782,-0.6826,-0.7086,-0.7185,-0.7194,-0.7492,-0.7597,-0.7587,-0.7587,-0.7584,-0.7577,-0.7577,-0.7577,-0.7577,0.0,0.0,0.0,0.0,0.0,0.0,0.0,0.0,0.0,0.0,0.0,0.0,0.0,0.5688,0.5688,0.5688,0.5688,0.5688,0.5688,0.0,0.0,0.0,0.0,0.0,0.0,0.0,0.6251,0.6251,0.6276,0.5917,0.5279,0.5213,0.4793,0.4114,0.4062,0.3819,0.3488,0.4453,0.4615,0.4201,0.4279,0.4121,0.0,0.0,0.0,0.0,0.0,0.0,0.0,0.0,0.0,0.0,0.0,0.0,0.0,0.0,0.0,0.0,0.0,0.0,0.0,0.0,0.0,0.0,0.0,0.0,0.0,0.0,0.0,0.0,0.0,0.0,0.0,0.0,0.0,0.0,0.0,0.0,0.0,-0.1996,-0.3801,0.0,0.0,-0.553,-0.5863,-0.6203,-0.6344,-0.6448,-0.6491,-0.657,-0.663,-0.6671,-0.6714,-0.6777,-0.6855,-0.697,-0.7067,-0.7146,-0.7225,-0.7222,-0.7146,-0.7146,-0.7065,-0.6921,-0.7237,-0.7295,-0.7203,-0.7491,-0.7661,-0.7713,-0.7628,-0.7631,-0.7726,-0.7634,-0.76,-0.76,0.0,0.0,0.0,0.0,0.0,0.0,0.0,0.0,0.0,0.0,0.0,0.4882,0.5196,0.524,0.5374,0.5688,0.5688,0.5704,0.5742,0.0,0.0,0.0,0.0,0.0,0.0,0.6285,0.6325,0.6325,0.6399,0.5837,0.4782,0.4752,0.4139,0.3043,0.3023,0.3004,0.3081,0.446,0.4516,0.3737,0.4138,0.3832,0.3184,0.0,0.0,0.0,0.0,0.0,0.0,0.0,0.0,0.0,0.0,0.0,0.0,0.0,0.0,0.0,0.0,0.0,0.0,0.0,0.0,0.0,0.0,0.0,0.0,0.0,0.0,0.0,0.0,0.0,0.0,0.0,0.0,0.0,0.0,0.0,-0.17,-0.1418,-0.3961,-0.5642,-0.5433,-0.6051,-0.6448,-0.6448,-0.663,-0.676,-0.6798,-0.6915,-0.7002,-0.7043,-0.7043,-0.7084,-0.7165,-0.7239,-0.7317,-0.7342,-0.7478,-0.7475,-0.7339,-0.7339,-0.7312,-0.7165,-0.7329,-0.7367,-0.7251,-0.7416,-0.7609,-0.7731,-0.7657,-0.7727,-0.7879,-0.7786,-0.7801,-0.7892,0.0,0.0,0.0,0.0,0.0,0.0,0.0,0.0,0.0,0.0,0.2911,0.3224,0.4119,0.4253,0.4656,0.5555,0.5688,0.5737,0.5896,0.5907,0.0,0.0,0.0,0.0,0.6384,0.6387,0.6387,0.6339,0.6339,0.5792,0.4694,0.4722,0.414,0.3112,0.311,0.3105,0.3158,0.4116,0.3562,0.2176,0.3648,0.3468,0.238,0.0,0.0,0.0,0.0,0.0,0.0,0.0,0.0,0.0,0.0,0.0,0.0,0.0,0.0,0.0,0.0,0.0,0.0,0.0,0.0,0.0,0.0,0.0,0.0,0.0,0.0,0.0,0.0,0.0,0.0,0.0,0.0,0.0,0.1568,0.0202,-0.1269,-0.2476,-0.4032,-0.5471,-0.6637,-0.6759,-0.6762,-0.6764,-0.6878,-0.7048,-0.7215,-0.7277,-0.7339,-0.7513,-0.7519,-0.7521,-0.7524,-0.7524,-0.7527,-0.7529,-0.7529,-0.7527,-0.7524,-0.7524,-0.7524,-0.7519,-0.7519,-0.7451,-0.7285,-0.7285,-0.7443,-0.7593,-0.76,-0.7759,-0.8019,-0.8013,-0.822,-0.8462,0.0,0.0,0.0,0.0,0.0,0.0,0.0,0.0,0.0,0.0,0.2774,0.2865,0.2726,0.3667,0.434,0.438,0.5191,0.5737,0.5896,0.0,0.0,0.0,0.0,0.0,0.6387,0.6387,0.6022,0.5231,0.5231,0.4288,0.2465,0.2476,0.1902,0.09,0.0904,0.0903,0.0898,0.1193,0.1012,0.0738,0.2815,0.3402,0.3022,0.0,0.0,0.0,0.0,0.0,0.0,0.0,0.0,0.0,0.0,0.0,0.0,0.0,0.0,0.0,0.0,0.0,0.0,0.0,0.0,0.0,0.0,0.0,0.0,0.0,0.0,0.0,0.0,0.0,0.0,0.0,0.0,0.1598,0.134,0.0103,-0.1345,-0.2734,-0.4162,-0.5149,-0.5457,-0.5584,-0.5656,-0.5783,-0.5873,-0.6343,-0.736,-0.7451,-0.7483,-0.7516,-0.7519,-0.7562,-0.7652,-0.7652,-0.7693,-0.7774,-0.7774,-0.7731,-0.7652,-0.7652,-0.7603,-0.7519,-0.7519,-0.75,-0.7467,-0.7467,-0.7448,-0.7503,-0.7497,-0.7791,-0.821,-0.8051,-0.822,-0.8476,0.0,0.0,0.0,0.0,0.0,0.0,0.0,0.0,0.0,0.0,0.1298,0.1432,0.1519,0.2549,0.3443,0.384,0.4869,0.5628,0.5972,0.0,0.0,0.0,0.0,0.6387,0.6387,0.5979,0.5419,0.4805,0.4373,0.326,0.1598,0.1608,0.1023,0.0,0.0,0.0,0.0054,0.048,0.0679,0.0764,0.1891,0.2415,0.2571,0.2226,0.2157,0.2314,0.2386,0.2649,0.292,0.292,0.0,0.0,0.0,0.0,0.0,0.0,0.0,0.0,0.0,0.0,0.0,0.0,0.0,0.0,0.0,0.0,0.0,0.0,0.0,0.0,0.0,0.0,0.0,0.0,0.166,0.1583,0.1285,0.0477,-0.0846,-0.2923,-0.3474,-0.4055,-0.5108,-0.477,-0.4588,-0.4632,-0.476,-0.5335,-0.67,-0.6802,-0.7067,-0.7665,-0.7665,-0.7701,-0.7771,-0.7771,-0.7807,-0.7872,-0.7872,-0.7837,-0.7771,-0.7771,-0.7733,0.0,-0.7665,-0.7641,-0.7595,-0.7595,-0.7565,0.0,0.0,0.0,0.0,0.0,-0.8404,-0.8665,0.0,0.0,0.0,0.0,0.0,0.0,0.0,0.0,0.0,0.0,0.0,-0.0403,0.0358,0.1253,0.2281,0.3527,0.4602,0.5452,0.0,0.0,0.0,0.6287,0.6237,0.6242,0.6205,0.5175,0.4556,0.442,0.3487,0.2454,0.1393,0.1413,0.0931,0.0,0.0,0.0,0.0055,0.1039,0.1395,0.1356,0.0935,0.1105,0.1623,0.2155,0.2598,0.2813,0.2174,0.2339,0.292,0.292,0.0,0.0,0.0,0.0,0.0,0.0,0.0,0.0,0.0,0.0,0.0,0.0,0.0,0.0,0.0,0.0,0.0,0.0,0.0,0.0,0.0,0.0,0.0,0.0,0.1696,0.1626,0.1344,0.1099,-0.0055,-0.2859,-0.2364,-0.2677,-0.487,-0.4064,-0.3421,-0.3427,-0.353,-0.4158,-0.5423,0.0,0.0,0.0,0.0,-0.7686,-0.7686,-0.7686,-0.7686,-0.7686,-0.7686,-0.7686,-0.7686,-0.7811,-0.7872,-0.7872,-0.7872,-0.7812,-0.7722,-0.7722,-0.7657,-0.7554,-0.7529,-0.7682,-0.7905,-0.8339,-0.868,0.0,0.0,0.0,0.0,0.0,0.0,0.0,0.0,0.0,0.0,-0.1031,-0.0852,-0.0762,-0.0986,0.0671,0.1835,0.1878,0.3919,0.5297,0.0,0.0,0.5734,0.5734,0.5334,0.5117,0.5088,0.4078,0.3096,0.2214,0.2005,0.1368,0.0333,0.0334,0.0223,0.0,0.0,0.0,0.0,0.022,0.0327,0.0324,0.042,0.1063,0.1901,0.131,0.1521,0.2173,0.2624,0.2821,0.292,0.292,0.292,0.292,0.292,0.0,0.0,0.0,0.0,0.0,0.0,0.0,0.0,0.0,0.0,0.0,0.0,0.0,0.0,0.0,0.0,0.0,0.0,0.0,0.0,0.1783,0.1758,0.1678,0.1427,0.1324,0.0579,-0.1455,-0.1748,-0.1996,-0.2452,-0.2278,-0.2169,-0.232,-0.2328,-0.2882,-0.4164,-0.4298,0.0,-0.4673,-0.572,-0.6274,-0.6274,-0.6274,-0.6274,-0.6274,0.0,0.0,-0.6337,-0.738,-0.7872,-0.7872,-0.7872,-0.7858,-0.7839,-0.7839,-0.7823,-0.7845,-0.7887,-0.7907,-0.8043,-0.8483,-0.8718,-0.8755,0.0,0.0,0.0,0.0,0.0,0.0,0.0,0.0,0.0,0.0,-0.1121,-0.1121,-0.139,-0.0136,0.0728,0.0863,0.2943,0.0,0.0,0.4604,0.4576,0.4576,0.3974,0.3655,0.3774,0.2768,0.2021,0.1582,0.1046,0.05,0.0,0.0,0.0,0.0,0.0,0.0,0.0,0.0,0.0,0.0,-0.016,0.0362,0.1209,0.0938,0.1259,0.1951,0.2354,0.2704,0.3008,0.3008,0.3008,0.3008,0.3008,0.3008,0.3008,0.0,0.0,0.0,0.0,0.0,0.0,0.0,0.0,0.0,0.0,0.0,0.0,0.0,0.0,0.1683,0.0,0.0,0.1755,0.177,0.181,0.1793,0.1646,0.1483,0.0715,-0.119,-0.0953,-0.0959,-0.1826,-0.128,-0.0918,-0.0986,-0.0987,-0.1541,-0.2895,-0.2956,-0.3263,-0.3875,-0.4551,-0.4921,-0.4921,-0.4921,-0.4921,-0.4921,-0.4921,-0.4921,-0.4921,-0.5596,-0.6272,-0.6888,-0.6888,-0.7255,-0.7872,-0.7872,-0.7872,-0.7919,-0.7919,-0.8014,-0.806,-0.828,-0.8408,-0.8561,0.0,0.0,0.0,0.0,0.0,0.0,0.0,0.0,0.0,0.0,0.0,-0.1391,-0.1391,-0.0819,-0.0138,0.0,0.0,0.0,0.0,0.3571,0.3621,0.347,0.2717,0.234,0.2392,0.1374,0.0914,0.1097,0.0334,-0.0056,-0.0056,-0.0056,-0.0056,0.0,-0.0056,-0.0056,0.0,0.0,0.0,-0.0055,-0.0591,-0.0422,0.0207,0.055,0.118,0.1907,0.1973,0.2484,0.3097,0.3097,0.3097,0.3097,0.3097,0.3097,0.3097,0.3097,0.3105,0.0,0.0,0.0,0.0,0.0,0.0,0.0,0.0,0.0,0.1722,0.1722,0.1698,0.1722,0.1722,0.1772,0.1814,0.1821,0.1863,0.1905,0.1936,0.1697,0.0909,-0.0726,-0.0061,-0.0061,-0.1479,-0.0617,0.0,0.0,0.0,-0.0494,-0.1542,-0.1603,-0.2095,-0.3139,-0.3384,-0.3507,-0.3507,-0.3507,-0.3507,-0.3507,-0.3507,-0.3507,-0.3569,-0.3815,-0.449,-0.5536,-0.5536,-0.6149,-0.7131,-0.7131,-0.7255,-0.7503,-0.7503,-0.7752,-0.8073,-0.8007,-0.8137,-0.8359,0.0,0.0,0.0,0.0,0.0,0.0,0.0,0.0,0.0,0.0,0.0,0.0,0.0,0.0,0.0,0.0,0.0,0.0,0.2917,0.3577,0.3627,0.292,0.2368,0.1741,0.1059,-0.0106,-0.065,-0.0615,-0.0448,-0.0336,-0.0336,-0.0336,-0.0224,0.0,-0.0224,-0.0224,0.0,0.0,0.0,-0.0055,-0.0591,-0.0739,-0.0622,-0.0355,0.0647,0.1911,0.1906,0.2417,0.3097,0.3097,0.3097,0.3097,0.3097,0.3097,0.3097,0.3097,0.0,0.3081,0.3081,0.2776,0.2325,0.1856,0.1709,0.1716,0.0,0.0,0.1699,0.1699,0.1745,0.1785,0.1785,0.1834,0.1884,0.1911,0.1922,0.1937,0.1967,0.1971,0.1725,0.1231,0.0801,0.0308,-0.0185,-0.0062,0.0,0.0,0.0,-0.0062,-0.0185,-0.0247,-0.0309,-0.0432,-0.1603,-0.2219,-0.2219,-0.2219,-0.2219,-0.2219,-0.2219,-0.2219,-0.2281,-0.3384,-0.3999,-0.4122,-0.4122,-0.4183,-0.4367,-0.4367,-0.5044,-0.6151,-0.6151,-0.6881,-0.7958,-0.8019,-0.8093,-0.8135,0.0,0.0,0.0,0.0,0.0,0.0,0.0,0.0,0.0,0.0,0.0,0.0,0.0,0.0,0.0,0.0,0.0,0.0,0.2317,0.2671,0.247,0.1662,0.0958,0.0306,-0.0367,-0.084,-0.1015,-0.0884,-0.0773,-0.0666,-0.0673,-0.0673,-0.0617,-0.0505,-0.0617,-0.0617,-0.0504,-0.0499,-0.055,-0.0546,-0.0903,-0.1046,-0.0985,-0.056,0.0301,0.1345,0.1794,0.248,0.0,0.0,0.3154,0.3154,0.3154,0.3154,0.3154,0.3154,0.3173,0.0,0.2831,0.2517,0.0,0.0,0.1753,0.177,0.1782,0.1758,0.1783,0.1783,0.1818,0.1848,0.1848,0.1883,0.1917,0.0,0.1946,0.1962,0.1975,0.1977,0.1853,0.1544,0.105,0.0679,0.0309,0.0123,0.0,0.0,0.0,0.0,0.0,0.0,0.0,0.0,-0.0555,-0.0864,-0.0864,-0.0864,-0.0864,-0.0864,-0.0864,-0.0864,-0.0864,-0.1418,-0.2033,-0.2833,-0.3569,-0.3875,-0.3875,-0.3875,-0.4244,-0.4737,-0.4737,-0.5104,-0.5774,-0.7385,-0.7493,-0.6931,0.0,0.0,0.0,0.0,0.0,0.0,0.0,0.0,0.0,0.0,0.0,0.0,0.0,0.0,0.0,0.0,0.0,0.0,0.0,0.2068,0.1865,0.0857,0.0252,-0.0458,-0.1298,-0.135,-0.1265,-0.1139,-0.1031,-0.0984,-0.0996,-0.0996,-0.0941,-0.0885,-0.0996,-0.0941,-0.0885,-0.0873,-0.0866,-0.0914,-0.1102,-0.1191,-0.1132,-0.0609,0.0101,0.0907,0.1714,0.2522,0.0,0.0,0.318,0.318,0.318,0.318,0.318,0.318,0.3141,0.3016,0.2616,0.0,0.0,0.1792,0.1759,0.1833,0.1841,0.1821,0.1853,0.1853,0.1877,0.1898,0.1898,0.1923,0.1944,0.1944,0.1962,0.1977,0.1977,0.1977,0.1915,0.1667,0.1359,0.0988,0.0679,0.0247,0.0,0.0,0.0,0.0,0.0,0.0,0.0,0.0,0.0,0.0,0.0,0.0,0.0,0.0,0.0,0.0,0.0,0.0,-0.0555,-0.148,-0.2401,-0.2831,-0.2831,-0.2831,-0.3016,-0.3386,-0.3386,-0.3569,-0.412,-0.6086,-0.6211,-0.5527,0.0,0.0,0.0,0.0,0.0,0.0,0.0,0.0,0.0,0.0,0.0,0.0,0.0,0.0,0.0,0.0,0.0,0.0,0.0,0.232,0.2472,0.0857,0.0756,0.0,-0.1662,-0.1662,-0.1677,-0.1652,-0.1441,-0.1282,-0.1283,-0.1283,-0.1122,-0.0801,-0.1122,-0.1122,-0.0801,-0.0801,-0.0793,-0.0832,-0.1091,-0.1182,-0.1163,-0.0606,0.0101,0.0907,0.1714,0.0,0.0,0.0,0.318,0.318,0.318,0.318,0.0,0.318,0.3067,0.2874,0.0,0.0,0.2148,0.1878,0.178,0.1845,0.1875,0.1883,0.1884,0.1884,0.1909,0.193,0.193,0.1954,0.1975,0.1975,0.1976,0.1977,0.1977,0.1977,0.1977,0.1977,0.1667,0.1359,0.0,0.037,0.0,0.0,0.0,0.0,0.0,0.0,0.0,0.0,0.0,0.0,0.0,0.0,0.0,0.0,0.0,0.0,0.0,0.0,0.0,-0.0062,-0.0123,-0.0123,-0.0123,-0.0123,-0.0864,-0.2034,-0.2034,-0.2833,-0.3937,-0.3997,-0.3997,-0.3936,0.0,0.0,0.0,0.0,0.0,0.0,0.0,0.0,0.0,0.0,0.0,0.0,0.0,0.0,0.0,0.0,0.0,0.0,0.0,0.2354,0.222,0.0101,0.0504,0.0051,-0.1581,-0.1633,-0.1647,-0.1676,-0.1625,-0.1582,-0.1545,-0.1545,-0.1492,-0.1385,-0.1492,-0.1492,-0.1385,-0.1422,-0.141,-0.1349,-0.0871,-0.066,-0.0556,0.0706,0.1361,0.1714,0.0,0.0,0.0,0.318,0.318,0.318,0.318,0.0,0.3188,0.3022,0.2861,0.2632,0.2385,0.0,0.196,0.1866,0.1885,0.1844,0.1913,0.1932,0.1946,0.1946,0.1954,0.1961,0.1961,0.1969,0.1977,0.1977,0.1977,0.1977,0.1977,0.1977,0.1977,0.1977,0.1729,0.0,0.0,0.0,0.0,0.0,0.0,0.0,0.0,0.0,0.0,0.0,0.0,0.0,0.0,0.0,0.0,0.0,0.0,0.0,0.0,0.0,0.0,0.0,0.0,0.0,0.0,0.0,-0.0247,-0.0679,-0.0679,-0.0925,-0.1295,-0.1295,-0.1295,-0.1541,0.0,0.0,0.0,0.0,0.0,0.0,0.0,0.0,0.0,0.0,0.0,0.0,0.0,0.0,0.0,0.0,0.0,0.0,0.0,0.0,0.1803,-0.0303,0.0101,-0.0252,-0.1566,-0.1617,-0.1626,-0.1646,-0.1646,-0.1655,-0.1673,-0.1673,-0.1673,-0.1673,-0.1673,-0.1673,-0.1671,-0.1654,-0.1492,-0.1182,-0.0609,-0.0252,0.0151,0.1513,0.2017,0.0,0.0,0.0,0.0,0.318,0.318,0.318,0.318,0.3144,0.3077,0.3015,0.2733,0.2422,0.2293,0.2106,0.1904,0.1915,0.1933,0.1947,0.1947,0.1962,0.1973,0.1962,0.196,0.1957,0.1946,0.1953,0.196,0.196,0.1969,0.1977,0.1977,0.1977,0.1977,0.1977,0.1791,0.0,0.0,0.0,0.0,0.0185,0.0062,0.0,0.0,0.0,0.0,0.0,0.0,0.0,0.0,0.0,0.0,0.0,0.0,0.0,0.0,0.0,0.0,0.0,0.0,0.0,0.0,0.0,0.0,0.0,0.0,0.0,0.0,0.0,0.0,-0.0247,0.0,0.0,0.0,0.0,0.0,0.0,0.0,0.0,0.0,0.0,0.0,0.0,0.0,0.0,0.0,0.0,0.0,0.0,0.0,0.0,0.0,-0.0353,-0.0403,-0.0757,-0.1566,-0.1617,-0.1617,-0.1617,-0.1617,-0.1617,-0.1617,-0.1617,-0.1617,-0.1617,-0.1617,-0.1617,-0.1617,-0.1617,-0.1161,-0.0454,-0.0353,0.0101,0.0905,0.1711,0.0,0.0,0.0,0.0,0.0,0.0,0.0,0.0,0.0,0.3071,0.2887,0.3038,0.2638,0.2216,0.2322,0.2172,0.1941,0.1969,0.1977,0.1977,0.1977,0.1975,0.1966,0.1937,0.193,0.192,0.0,0.0,0.1929,0.1871,0.1955,0.1975,0.1976,0.1977,0.1977,0.0,0.0,0.0,0.0,0.0,0.0,0.0617,0.0,0.0,0.0,0.0,0.0,0.0,0.0,0.0,0.0,0.0,0.0,0.0,0.0,0.0,0.0,0.0,0.0,0.0,0.0,0.0,0.0,0.0,0.0,0.0,0.0,0.0,0.0,0.0,0.0,0.0,0.0,0.0,0.0,0.0,0.0,0.0,0.0,0.0,0.0,0.0,0.0,0.0,0.0,0.0,0.0,0.0,0.0,0.0,0.0,0.0,0.0,0.0,0.0,0.0,-0.1566,-0.1617,-0.1617,-0.1617,-0.1617,-0.1617,-0.1617,-0.1617,-0.1617,-0.1617,-0.1617,-0.1617,-0.1617,-0.1617,-0.1504,-0.1187,0.0,0.0588,0.0969,0.0,0.0,0.0,0.0,0.0,0.0,0.0,0.0,0.0,0.0,0.2817,0.2667,0.2496,0.2341,0.2224,0.2098,0.2008,0.1967,0.1975,0.1977,0.1977,0.1977,0.1959,0.1941,0.1933,0.1913,0.1895,0.0,0.0,0.0,0.1927,0.1938,0.0,0.1973,0.1977,0.0,0.1977,0.0,0.1977,0.1853,0.1667,0.0,0.0,0.0679,0.0247,0.0,0.0,0.0,0.0,0.0,0.0,0.0,0.0,0.0,0.0,0.0,0.0,0.0,0.0,0.0,0.0,0.0,0.0,0.0,0.0,0.0,0.0,0.0,0.0,0.0,0.0,0.0,0.0,0.0,0.0,0.0,0.0,0.0,0.0,0.0,0.0,0.0,0.0,0.0,0.0,0.0,0.0,0.0,0.0,0.0,0.0,0.0,0.0,0.0,0.0,0.0,0.0,-0.1596,-0.1597,-0.1604,-0.1617,0.0,0.0,0.0,-0.1603,-0.1597,-0.1596,-0.1583,-0.1577,-0.1577,-0.1577,0.0,0.0,0.0,0.0,0.0,0.0,0.0,0.0,0.0,0.0,0.0,0.0,0.0,0.2788,0.2759,0.2603,0.2391,0.2267,0.0,0.2092,0.2003,0.1964,0.1977,0.1977,0.1977,0.1973,0.196,0.1943,0.1863,0.1838,0.1878,0.0,0.0,0.0,0.0,0.0,0.0,0.0,0.1954,0.1968,0.1977,0.0,0.1977,0.0,0.1977,0.1853,0.1667,0.0,0.0864,0.0432,0.0247,0.0062,0.0,0.0,0.0,0.0,0.0,0.0,0.0,0.0,0.0,0.0,0.0,0.0,0.0,0.0,0.0,0.0,0.0,0.0,0.0,0.0,0.0,0.0,0.0,0.0,0.0,0.0,0.0,0.0,0.0,0.0,0.0,0.0,0.0,0.0,0.0,0.0,0.0,0.0,0.0,0.0,0.0,0.0,0.0,0.0,0.0,0.0,0.0,0.0,0.0,0.0,-0.1565,-0.1566,-0.1579,-0.1605,0.0,0.0,0.0,0.0,0.0,0.0,0.0,0.0,0.0,0.0,0.0,0.0,0.0,0.0,0.0,0.0,0.0,0.0,0.0,0.0,0.0,0.0,0.2725,0.2742,0.2582,0.2373,0.2155,0.2208,0.2087,0.1938,0.1968,0.1977,0.1977,0.1977,0.1973,0.1964,0.1937,0.1865,0.1844,0.1788,0.0,0.1819,0.1789,0.0,0.1772,0.1776,0.0,0.1926,0.187,0.1958,0.1977,0.1977,0.1977,0.1977,0.1977,0.1977,0.1853,0.1606,0.0988,0.0617,0.0494,0.0247,0.0062,0.0,0.0,0.0,0.0,0.0,0.0,0.0,0.0,0.0,0.0,0.0,0.0,0.0,0.0,0.0,0.0,0.0,0.0,0.0,0.0,0.0,0.0,0.0,0.0,0.0,0.0,0.0,0.0,0.0,0.0,0.0,0.0,0.0,0.0,0.0,0.111,0.1361,0.0,0.0,0.0,0.0,0.0,0.0,0.0,0.0,0.0,0.0,0.0,0.0,0.0,0.0,0.0,0.0,0.0,0.0,0.0,0.0,0.0,0.0,0.0,0.0,0.0,0.0,0.0,0.0,0.0,0.0,0.0,0.0,0.0,0.0,0.0,0.0,0.0,0.0,0.2472,0.2437,0.2265,0.2049,0.1878,0.1975,0.1907,0.1938,0.1968,0.1977,0.1977,0.1977,0.1958,0.1938,0.1932,0.1833,0.0,0.0,0.0,0.1756,0.1725,0.1745,0.0,0.1799,0.0,0.0,0.0,0.0,0.1977,0.0,0.0,0.0,0.0,0.0,0.0,0.0,0.0,0.0,0.0556,0.0432,0.0309,0.0,0.0,0.0,0.0,0.0,0.0,0.0,0.0,0.0,0.0,0.0,0.0,0.0,0.0,0.0,0.0,0.0,0.0,0.0,0.0,0.0,0.0,0.0,0.0,0.0,0.0,0.0,0.0,0.0,0.0,0.0,0.0,-0.1058,-0.0151,0.0504,0.1412,0.2068,0.2219,0.2826,0.0,0.0,0.0,0.0,0.0,0.0,0.0,0.0,0.0,0.0,0.0,0.0,0.0,0.0,0.0,0.0,0.0,0.0,0.0,0.0,0.0,0.0,0.0,0.0,0.0,0.0,0.0,0.0,0.0,0.0,0.0,0.0,0.0,0.0,0.0,0.0,0.2485,0.2306,0.1995,0.1833,0.1823,0.1859,0.1907,0.1938,0.1968,0.1977,0.1973,0.1957,0.1942,0.1863,0.1832,0.0,0.0,0.0,0.1747,0.1722,0.1707,0.0,0.0,0.0,0.0,0.0,0.0,0.0,0.0,0.0,0.0,0.0,0.0,0.0,0.0,0.0,0.0,0.0,0.105,0.0679,0.037,0.0,0.0,0.0,0.0,0.0,0.0,0.0,0.0,0.0,0.0,0.0,0.0,0.0,0.0,0.0,0.0,0.0,0.0,0.0,0.0,0.0,0.0,0.0,0.0,0.0,0.0,0.0,0.0,0.0,0.0,0.0,0.0,-0.0353,0.0353,0.0353,0.1513,0.2423,0.2674,0.3027,0.318,0.0,0.0,0.0,0.0,0.0,0.0,0.0,0.0,0.0,0.0,0.0,0.0,0.0,0.0,0.0,0.0,0.0,0.0,0.0,0.0,0.0,0.0,0.0,0.0,0.0,0.0,0.0,0.0,0.0,0.0,0.0,0.0,0.0,0.0,0.0,0.255,0.2325,0.1981,0.1827,0.182,0.1844,0.1892,0.1926,0.1951,0.1957,0.1952,0.1927,0.1917,0.1838,0.1786,0.1807,0.0,0.0,0.1712,0.1693,0.1686,0.0,0.1787,0.0,0.0,0.0,0.0,0.0,0.0,0.0,0.0,0.0,0.0,0.0,0.0,0.0,0.0,0.0,0.0,0.0864,0.037,0.0123,0.0062,0.0,0.0,0.0,0.0,0.0,0.0,0.0,0.0,0.0,0.0,0.0,0.0,0.0,0.0,0.0,0.0,0.0,0.0,0.0,0.0,0.0,0.0,0.0,0.0,0.0,0.0,0.0,0.0,0.0,0.0,0.0757,0.1465,0.1465,0.1819,0.2122,0.2422,0.2876,0.318,0.0,0.0,0.0,0.0,0.0,0.0,0.0,0.0,0.0,0.0,0.0,0.0,0.0,0.0,0.0,0.0,0.0,0.0,0.0,0.0,0.0,0.0,0.0,0.0,0.0,0.0,0.0,0.0,0.0,0.0,0.0,0.0,0.0,0.0,0.0,0.0,0.2617,0.2466,0.2129,0.1811,0.1793,0.0,0.0,0.1894,0.1894,0.1894,0.1891,0.1869,0.1782,0.1807,0.0,0.0,0.1734,0.172,0.1658,0.163,0.165,0.1731,0.0,0.0,0.0,0.0,0.0,0.0,0.0,0.0,0.0,0.0,0.0,0.0,0.0,0.0,0.0,0.0,0.0864,0.0494,0.0432,0.0185,0.0,0.0,0.0,0.0,0.0,0.0,0.0,0.0,0.0,0.0,0.0,0.0,0.0,0.0,0.0,0.0,0.0,0.0,0.0,0.0,0.0,0.0,0.0,0.0,0.0,0.0,0.0,0.0,0.0,0.0807,0.1313,0.1617,0.1617,0.1819,0.2121,0.2371,0.2573,0.2826,0.0,0.0,0.0,0.0,0.0,0.0,0.0,0.0,0.0,0.0,0.0,0.0,0.0,0.0,0.0,0.0,0.0,0.0,0.0,0.0,0.0,0.0,0.0,0.0,0.0,0.0,0.0,0.0,0.0,0.0,0.0,0.0,0.0,0.0,0.0,0.0,0.0,0.2636,0.2418,0.0,0.0,0.1926,0.1839,0.1876,0.1886,0.1881,0.1863,0.1836,0.1805,0.1775,0.0,0.1743,0.1719,0.1647,0.1631,0.1619,0.1641,0.1724,0.0,0.0,0.0,0.0,0.0,0.0,0.0,0.0,0.0,0.0,0.0,0.0,0.0,0.0,0.0,0.0,0.1359,0.0988,0.0803,0.0494,0.0309,0.0309,0.0123,0.0,0.0,0.0,0.0,0.0,0.0,0.0,0.0,0.0,0.0,0.0,0.0,0.0,0.0,0.0,0.0,0.0,0.0,0.0,0.0,0.0,0.0,0.0,0.0,0.0,0.0353,0.1414,0.1617,0.1617,0.1617,0.1768,0.197,0.2271,0.2271,0.2473,0.2927,0.0,0.0,0.0,0.0,0.0,0.0,0.0,0.0,0.0,0.0,0.0,-0.0769,0.0,0.0,0.0,0.0,0.0,0.0,0.0,0.0,0.0,0.0,0.0,0.0,0.0,0.0,0.0,0.0,0.0,0.0,0.0,0.0,0.0,0.0,0.0,0.0,0.0,0.0,0.0,0.0,0.2036,0.1889,0.1878,0.1832,0.1827,0.1806,0.1784,0.1761,0.0,0.0,0.1712,0.1651,0.1632,0.1617,0.1617,0.1635,0.1658,0.0,0.0,0.1757,0.0,0.0,0.0,0.0,0.0,0.0,0.0,0.0,0.0,0.0,0.0,0.0,0.0,0.1791,0.1482,0.1173,0.0803,0.0617,0.0617,0.0432,0.0247,0.0123,0.0123,0.0123,0.0,0.0,0.0,0.0,0.0,0.0,0.0,0.0,0.0,0.0,0.0,0.0,0.0,0.0,0.0,0.0,0.0,0.0,0.0,0.0,0.0,0.0,0.1414,0.1617,0.1617,0.1617,0.1617,0.1718,0.1971,0.2022,0.2121,0.2371,0.0,0.0,0.0,0.0,0.0,0.0,0.0,0.0,0.0,0.0,0.0799,0.0882,0.0,-0.0389,0.0,0.0,0.0,0.0,0.0,0.0,0.0,0.0,0.0,0.0,0.0,0.0,0.0,0.0,0.0,0.0,0.0,0.0,0.0,0.0,0.0,0.0,0.0,0.0,0.0,0.0,0.2103,0.2025,0.1759,0.1706,0.1706,0.1705,0.1705,0.1698,0.0,0.0,0.1705,0.1624,0.1617,0.1617,0.1617,0.1617,0.1627,0.171,0.1686,0.0,0.0,0.0,0.0,0.0,0.0,0.0,0.0,0.0,0.0,0.0,0.0,0.0,0.0,0.0,0.1853,0.1482,0.1173,0.0988,0.0988,0.0988,0.0803,0.0494,0.0494,0.0309,0.0,0.0,0.0,0.0,0.0,0.0,0.0,0.0,0.0,0.0,0.0,0.0,0.0,0.0,0.0,0.0,0.0,0.0,0.0,0.0,0.0,0.0,0.0,0.1617,0.1617,0.1617,0.1617,0.1718,0.1971,0.1819,0.1819,0.2121,0.0,0.0,0.0,0.0,0.0,0.0,0.0,0.0,0.0,0.0,0.0804,0.0849,0.0,-0.01,0.0446,-0.0538,-0.034,0.0,0.0,0.0,0.0,0.0,0.0,0.0,0.0,0.0,0.0,0.0,0.0,0.0,0.0,0.0,0.0,0.0,0.0,0.0,0.0,0.0,0.0,0.2684,0.0,0.0,0.2283,0.2237,0.2237,0.2237,0.2269,0.2193,0.2026,0.1954,0.1883,0.1872,0.1869,0.192,0.212,0.217,0.2133,0.2018,0.1948,0.0,0.0,0.0,0.0,0.0,0.0,0.0,0.0,0.0,0.0,0.0,0.0,0.0,0.0,0.0,0.1977,0.1853,0.1544,0.1359,0.1359,0.1111,0.0926,0.0864,0.0864,0.0679,0.037,0.037,0.0,0.0,0.0,0.0,0.0,0.0,0.0,0.0,0.0,0.0,0.0,0.0,0.0,0.0,0.0,0.0,0.0,0.0,0.0,0.0,0.0,0.1617,0.1617,0.1617,0.1617,0.1667,0.1819,0.1718,0.1667,0.1819,0.0,0.0,0.0,0.0,0.0,0.0,0.0,0.0,0.0,0.1913,0.1678,0.1678,0.084,0.0642,0.1037,0.0049,0.0245,0.1372,0.1212,0.0,0.0,0.0,0.0,0.0,0.0,0.0,0.2739,0.0,0.0,0.0,0.0,0.0,0.0,0.0,0.0,0.0,0.0,0.0,0.0,0.0,0.2849,0.2728,0.0,0.2454,0.2454,0.2454,0.2485,0.0,0.0,0.2189,0.2171,0.2171,0.2171,0.2222,0.2371,0.2422,0.238,0.2254,0.2149,0.0,0.0,0.0,0.0,0.0,0.0,0.0,0.0,0.0,0.0,0.0,0.0,0.0,0.0,0.0,0.1977,0.1977,0.1791,0.1667,0.1667,0.1482,0.1297,0.1173,0.1173,0.0988,0.0679,0.0,0.0,0.0,0.0,0.0,0.0,0.0247,0.0185,0.0185,0.0185,0.0185,0.0185,0.0185,0.0185,0.0185,0.0,0.0,0.0,0.0,0.0,0.0,0.0,0.0,0.1617,0.1617,0.1617,0.1617,0.1617,0.1617,0.1617,0.1617,0.0,0.0,0.0,0.0,0.0,0.0,0.0,0.0,0.309,0.3094,0.3097,0.3097,0.2189,0.1715,0.1574,0.0729,0.0637,0.1225,0.1176,0.1551,0.2279,0.2195,0.2202,0.2199,0.2199,0.2334,0.0,0.0,0.0,0.0,0.0,0.0,0.0,0.0,0.0,0.0,0.0,0.0,0.0,0.0,0.0,0.0,0.0,0.2472,0.0,0.0,0.0,0.0,0.2422,0.2422,0.0,0.2422,0.2422,0.2422,0.2472,0.2472,0.2473,0.2426,0.0,0.0,0.0,0.0,0.0,0.0,0.0,0.0,0.0,0.0,0.0,0.0,0.0,0.0,0.0,0.0,0.0,0.1977,0.1977,0.1977,0.1977,0.1977,0.1853,0.1544,0.1544,0.1359,0.105,0.0,0.0,0.0,0.0,0.0,0.0,0.0679,0.0556,0.0556,0.0556,0.0556,0.0556,0.0556,0.0556,0.0494,0.0,0.0,0.0,0.0,0.0,0.0,0.0,0.0,0.0,0.0,0.1617,0.1617,0.1617,0.1617,0.1617,0.0,0.0,0.0,0.0,0.0,0.0,0.0,0.0,0.0,0.3026,0.3072,0.3097,0.3097,0.2096,0.1858,0.2382,0.1197,0.1008,0.1729,0.1489,0.1615,0.191,0.1891,0.2003,0.2199,0.2199,0.2243,0.0,0.0,0.0,0.0,0.2829,0.292,0.0,0.0,0.0,0.0,0.0,0.0,0.0,0.0,0.2994,0.2927,0.2977,0.0,0.3027,0.3027,0.3027,0.2977,0.0,0.2724,0.2724,0.2724,0.2724,0.2775,0.2977,0.3027,0.2941,0.0,0.0,0.0,0.0,0.0,0.0,0.0,0.0,0.0,0.0,0.0,0.0,0.0,0.0,0.0,0.0,0.0,0.0,0.1977,0.1977,0.1977,0.1977,0.1977,0.1977,0.1853,0.1853,0.1729,0.1359,0.0,0.0,0.0,0.0,0.0,0.0988,0.0926,0.0864,0.0864,0.0864,0.0864,0.0864,0.0864,0.0864,0.0864,0.0,0.0,0.0,0.0,0.0,0.0,0.0,0.0,0.0,0.0,0.0,0.0,0.0,0.0,0.0,0.0,0.0,0.0,0.0,0.0,0.0,0.0,0.0,0.2373,0.2645,0.2767,0.2782,0.269,0.218,0.2087,0.2272,0.1545,0.1411,0.1693,0.1552,0.1543,0.1665,0.1649,0.1722,0.1839,0.1839,0.0,0.0,0.0,0.0,0.0,0.2649,0.2694,0.0,0.2873,0.292,0.2929,0.0,0.0,0.0,0.0,0.3014,0.2994,0.3172,0.318,0.318,0.318,0.318,0.318,0.3027,0.2977,0.2977,0.2977,0.0,0.0,0.0,0.0,0.0,0.0,0.0,0.0,0.0,0.0,0.0,0.0,0.0,0.0,0.0,0.0,0.0,0.0,0.0,0.0,0.0,0.0,0.0,0.0,0.1977,0.1977,0.1977,0.1977,0.1977,0.1977,0.1977,0.1915,0.1729,0.0,0.0,0.0,0.0,0.0,0.142,0.1297,0.1235,0.1235,0.1235,0.1235,0.1235,0.1235,0.1235,0.1235,0.0,0.0,0.0,0.0,0.0,0.0,0.0,0.0,0.0,0.0,0.0,0.0,0.0,0.0,0.0,0.0,0.0,0.0,0.0,0.0,0.0,0.0,0.0,0.193,0.2199,0.2379,0.2379,0.2199,0.2334,0.2199,0.1795,0.1736,0.1658,0.1474,0.1478,0.1478,0.1472,0.1451,0.1395,0.1391,0.1391,0.0,0.0,0.0,0.0,0.0,0.0,0.0,0.0,0.2739,0.2829,0.2837,0.2884,0.0,0.0,0.0,0.0,0.0,0.3153,0.3173,0.318,0.318,0.318,0.318,0.318,0.0,0.0,0.0,0.0,0.0,0.0,0.2985,0.0,0.0,0.0,0.0,0.0,0.0,0.0,0.0,0.0,0.0,0.0,0.0,0.0,0.0,0.0,0.0,0.0,0.0,0.0,0.0,0.2406,0.2284,0.2284,0.2099,0.1977,0.1977,0.1977,0.1977,0.1977,0.1977,0.0,0.0,0.0,0.0,0.1977,0.1667,0.1606,0.1606,0.1606,0.1606,0.1606,0.1606,0.1606,0.1543,0.0,0.0,0.0,0.0,0.0,0.0,0.0,0.0,0.0,0.0,0.0,0.0,0.0,0.0,0.0,0.0,0.0,0.0,0.0,0.0,0.0,0.1567,0.1721,0.193,0.2199,0.2243,0.2243,0.2199,0.2019,0.1884,0.1794,0.1575,0.1442,0.1398,0.1469,0.1466,0.1399,0.1465,0.1459,0.1391,0.1391,0.0,0.0,0.0,0.0,0.0,0.0,0.0,0.0,0.2289,0.2424,0.256,0.2568,0.0,0.0,0.0,0.0,0.0,0.3052,0.3141,0.318,0.318,0.318,0.318,0.318,0.318,0.0,0.0,0.0,0.0,0.0,0.0,0.0,0.0,0.0,0.0,0.0,0.0,0.0,0.0,0.0,0.0,0.0,0.0,0.0,0.0,0.0,0.0,0.0,0.0,0.0,0.0,0.0,0.3632,0.3632,0.2529,0.1977,0.1977,0.1977,0.1977,0.1977,0.1977,0.1977,0.0,0.0,0.1977,0.1977,0.1915,0.1915,0.1915,0.1915,0.1915,0.1915,0.1915,0.1915,0.1849,0.0,0.0,0.0,0.0,0.0,0.0,0.0,0.0,0.0,0.0,0.0,0.0,0.0,0.0,0.0,0.0,0.0,0.0,0.0,0.0,0.0,0.1506,0.1569,0.1679,0.175,0.193,0.193,0.1749,0.1794,0.1705,0.157,0.148,0.1391,0.1391,0.145,0.1448,0.1391,0.1451,0.1448,0.1391,0.0,0.0,0.0,0.0,0.0,0.0,0.0,0.0,0.0,0.0,0.2334,0.2513,0.2513,0.0,0.0,0.0,0.0,0.0,0.3034,0.311,0.3132,0.3132,0.3181,0.318,0.318,0.318,0.0,0.0,0.0,0.0,0.0,0.0,0.0,0.0,0.0,0.0,0.0,0.0,0.0,0.0,0.0,0.0,0.0,0.0,0.0,0.0,0.0,0.0,0.0,0.0,0.0,0.0,0.0,0.4977,0.4977,0.4429,0.3389,0.1977,0.1977,0.1977,0.1977,0.1977,0.1977,0.1977,0.0,0.1977,0.1977,0.1977,0.1977,0.2038,0.2774,0.259,0.1977,0.1977,0.1977,0.1973,0.0,0.0,0.0,0.0,0.0,0.0,0.0,0.0,0.0,0.0,0.0,0.0,0.0,0.0,0.0,0.0,0.0,0.0,0.0,0.0,0.1558,0.148,0.1497,0.1466,0.1391,0.1615,0.1615,0.1391,0.1615,0.1615,0.1391,0.1391,0.1391,0.1391,0.1391,0.1391,0.1391,0.1391,0.1391,0.1391,0.0,0.0,0.0,0.0,0.0,0.0,0.0,0.0,0.0,0.0,0.0,0.0,0.0,0.0,0.0,0.2972,0.2993,0.3015,0.3062,0.3086,0.3097,0.3097,0.3129,0.316,0.316,0.3169,0.318,0.0,0.0,0.0,0.0,0.0,0.0,0.0,0.0,0.0,0.0,0.0,0.0,0.0,0.0,0.0,0.0,0.0,0.0,0.0,0.0,0.0,0.0,0.0,0.0,0.0,0.0,0.0,0.6385,0.608,0.492,0.2899,0.2899,0.2899,0.2899,0.2899,0.2899,0.2899,0.2899,0.2899,0.2899,0.2899,0.2899,0.3021,0.3999,0.3756,0.2898,0.2888,0.2884,0.2814,0.0,0.0,0.0,0.0,0.0,0.0,0.0,0.0,0.0,0.0,0.0,0.0,0.0,0.0,0.0,0.0,0.0,0.0,0.0,0.0,0.1558,0.148,0.1497,0.1466,0.1391,0.1436,0.1436,0.1391,0.1436,0.1436,0.1391,0.1391,0.1391,0.1391,0.1391,0.1391,0.1391,0.1391,0.1391,0.1391,0.1391,0.0,0.0,0.0,0.0,0.0,0.0,0.0,0.0,0.0,0.0,0.0,0.0,0.0,0.292,0.2924,0.2962,0.3005,0.301,0.3052,0.3097,0.3097,0.3098,0.3097,0.3097,0.314,0.0,0.318,0.0,0.0,0.0,0.0,0.0,0.0,0.0,0.0,0.0,0.0,0.0,0.0,0.0,0.0,0.0,0.0,0.0,0.0,0.0,0.0,0.0,0.0,0.0,0.0,0.0,0.0,0.7734,0.651,0.5835,0.5592,0.5592,0.5592,0.5592,0.5592,0.5592,0.5592,0.5592,0.5592,0.5592,0.5592,0.5592,0.5651,0.5712,0.5712,0.5582,0.5507,0.542,0.5217,0.0,0.0,0.0,0.0,0.0,0.0,0.0,0.0,0.0,0.0,0.0,0.0,0.0,0.0,0.0,0.0,0.0,0.0,0.0,0.1606,0.1586,0.1555,0.1525,0.1495,0.1464,0.14,0.1391,0.1391,0.1391,0.1391,0.1391,0.1391,0.1391,0.1391,0.1391,0.1391,0.1391,0.1391,0.1391,0.1391,0.1391,0.1391,0.0,0.0,0.0,0.0,0.0,0.0,0.0,0.0,0.166,0.1974,0.0,0.2424,0.2694,0.2829,0.2935,0.2951,0.2951,0.2968,0.2996,0.303,0.3086,0.0,0.0,0.3137,0.318,0.318,0.3209,0.0,0.0,0.0,0.0,0.0,0.0,0.0,0.0,0.0,0.0,0.0,0.0,0.0,0.0,0.0,0.0,0.0,0.0,0.0,0.0,0.0,0.0,0.0,0.0,0.0,0.0,0.8352,0.8056,0.8056,0.6572,0.5896,0.5896,0.5896,0.5896,0.5896,0.5896,0.5896,0.5896,0.5896,0.5896,0.5896,0.5896,0.635,0.6839,0.6022,0.5673,0.5491,0.0,0.0,0.0,0.0,0.0,0.0,0.0,0.0,0.0,0.0,0.0,0.0,0.0,0.0,0.0,0.0,0.0,0.0,0.1617,0.1617,0.1603,0.1622,0.1543,0.1512,0.1481,0.1451,0.1391,0.1391,0.1391,0.1391,0.1391,0.1391,0.1391,0.1391,0.1391,0.1391,0.1391,0.1391,0.1391,0.1391,0.1391,0.1391,0.0,0.0,0.0,0.0,0.0,0.0,0.0,0.0,0.157,0.0,0.0,0.0,0.0,0.0,0.2784,0.2784,0.2873,0.2829,0.2797,0.2944,0.0,0.0,0.3077,0.3137,0.3185,0.3204,0.3579,0.0,0.0,0.0,0.0,0.0,0.0,0.0,0.0,0.0,0.0,0.0,0.0,0.0,0.0,0.0,0.0,0.0,0.0,0.0,0.0,0.0,0.0,0.0,0.0,0.0,0.9381,0.9381,0.9381,0.9384,0.7787,0.702,0.702,0.702,0.704,0.7072,0.7072,0.7091,0.7121,0.7121,0.7121,0.7118,0.7084,0.7574,0.8096,0.7184,0.6757,0.6618,0.0,0.0,0.0,0.0,0.0,0.0,0.0,0.0,0.0,0.0,0.0,0.0,0.0,0.0,0.0,0.0,0.0,0.0,0.1617,0.1617,0.1603,0.1622,0.1543,0.1512,0.1482,0.1451,0.1391,0.1391,0.1391,0.1391,0.1391,0.1391,0.1391,0.1391,0.1391,0.1391,0.1391,0.1391,0.1391,0.1391,0.1391,0.1391,0.1391,0.0,0.0,0.0,0.0,0.0,0.0,0.0,0.157,0.1794,0.0,0.0,0.0,0.2513,0.2513,0.2558,0.2829,0.2694,0.2572,0.2898,0.0,0.0,0.3078,0.3137,0.3197,0.3309,0.0,0.6046,0.0,0.0,0.0,0.0,0.0,0.0,0.0,0.0,0.0,0.0,0.0,0.0,0.0,0.0,0.0,0.0,0.0,0.0,0.0,0.0,0.0,0.0,0.0,0.0,0.9378,0.9378,0.9378,0.9378,0.9378,0.9378,0.9381,0.9381,0.9462,0.9608,0.9608,0.9686,0.9819,0.9819,0.9819,0.9802,0.9663,0.9605,0.9568,0.9323,0.9207,0.9014,0.0,0.0,0.0,0.0,0.0,0.0,0.0,0.0,0.0,0.0,0.0,0.0,0.0,0.0,0.0,0.0,0.0,0.0,0.1314,0.1516,0.1613,0.1604,0.1575,0.1544,0.1513,0.1416,0.1391,0.1391,0.1391,0.1391,0.1391,0.1391,0.1391,0.1391,0.1391,0.1391,0.1391,0.1391,0.1391,0.1391,0.1391,0.1391,0.1391,0.0,0.0,0.0,0.0,0.0,0.0,0.0,0.0,0.0,0.0,0.0,0.0,0.2424,0.2513,0.2558,0.2829,0.2829,0.0,0.3044,0.0,0.0,0.0,0.3167,0.0,0.0,0.0,0.0,0.0,0.0,0.0,0.0,0.0,0.0,0.0,0.0,0.0,0.0,0.0,0.0,0.0,0.0,0.0,0.0,0.0,0.0,0.0,0.0,0.0,0.0,0.0,0.0,0.9405,0.9181,0.9069,0.9069,0.9069,0.9181,0.9381,0.9381,0.9405,0.9449,0.9449,0.9473,0.951,0.951,0.951,0.9507,0.9466,0.9384,0.9333,0.9245,0.9077,0.878,0.0,0.0,0.0,0.0,0.0,0.0,0.0,0.0,0.0,0.0,0.0,0.0,0.0,0.0,0.0,0.0,0.0,0.0,0.0,0.1313,0.1465,0.1465,0.1538,0.1551,0.1509,0.1414,0.1391,0.1391,0.1391,0.1391,0.1391,0.1391,0.1391,0.1391,0.1391,0.1391,0.1391,0.1391,0.1391,0.1391,0.1391,0.1391,0.1391,0.0,0.0,0.0,0.0,0.0,0.0,0.0,0.0,0.0,0.0,0.0,0.0,0.2154,0.2243,0.2289,0.2558,0.2604,0.0,0.2878,0.3002,0.3225,0.3701,0.0,0.0,0.0,0.0,0.0,0.0,0.0,0.0,0.0,0.0,0.0,0.0,0.0,0.0,0.0,0.0,0.0,0.0,0.0,0.0,0.0,0.0,0.0,0.0,0.0,0.0,0.0,0.0,0.0,0.9544,0.9379,0.9268,0.9268,0.9268,0.9363,0.9543,0.9319,0.9235,0.935,0.9354,0.9381,0.9374,0.9317,0.9347,0.9279,0.9161,0.9059,0.8967,0.8965,0.8774,0.8618,0.0,0.0,0.0,0.0,0.0,0.0,0.0,0.0,0.0,0.0,0.1551,0.0,0.0,0.0,0.0,0.0,0.0,0.0,0.0,0.0,0.1212,0.1212,0.1439,0.1592,0.1486,0.1455,0.1393,0.1391,0.1391,0.1391,0.1391,0.1391,0.1391,0.1391,0.1391,0.1391,0.1391,0.1391,0.1391,0.1391,0.1391,0.1391,0.1391,0.1391,0.0,0.0,0.0,0.0,0.0,0.0,0.0,0.0,0.1659,0.1838,0.2017,0.2062,0.2018,0.2018,0.2378,0.0,0.0,0.2877,0.3197,0.0,0.4845,0.5272,0.0,0.0,0.0,0.0,0.0,0.0,0.0,0.0,0.0,0.0,0.0,0.0,0.0,0.0,0.0,0.0,0.0,0.0,0.0,0.0,0.0,0.0,0.0,0.0,0.0,0.0,0.0,0.0,0.9871,0.9816,0.9816,0.0,0.9816,0.9809,0.9739,0.9206,0.9057,0.9233,0.9303,0.93,0.9286,0.9207,0.9146,0.9122,0.8794,0.8689,0.8672,0.8533,0.8472,0.8462,0.0,0.0,0.0,0.0,0.0,0.0,0.0,0.0,0.0,0.0,0.0,0.0,0.0,0.0,0.0,0.0,0.0,0.0,0.0,0.0,0.1212,0.1212,0.1439,0.1554,0.1517,0.1487,0.1459,0.1391,0.1391,0.1391,0.1391,0.1391,0.1391,0.1391,0.1391,0.1391,0.1391,0.1391,0.1391,0.1391,0.1391,0.1391,0.1391,0.1391,0.1391,0.0,0.0,0.0,0.0,0.0,0.0,0.0,0.3664,0.371,0.3799,0.4024,0.3537,0.3136,0.4117,0.3983,0.0,0.0,0.5391,0.5965,0.7062,0.7456,0.0,0.0,0.0,0.0,0.0,0.0,0.0,0.0,0.0,0.0,0.0,0.0,0.0,0.0,0.0,0.0,0.0,0.0,0.0,0.0,0.0,0.0,0.0,0.0,0.0,0.0,0.0,1.0202,1.0202,0.9926,0.9816,0.0,0.9816,0.9691,0.9565,0.9592,0.9435,0.9178,0.8821,0.8676,0.8672,0.8638,0.8628,0.8618,0.8557,0.853,0.8526,0.8496,0.8411,0.8368,0.0,0.0,0.0,0.0,0.0,0.0,0.0,0.0,0.0,0.0,0.0,0.0,0.0,0.0,0.0,0.0,0.0,0.0,0.0,0.0,0.0909,0.1212,0.1439,0.1557,0.1479,0.1496,0.1466,0.1391,0.1391,0.1391,0.1391,0.1391,0.1391,0.1391,0.1391,0.1391,0.1391,0.1391,0.1391,0.1391,0.1391,0.1391,0.1391,0.1391,0.1704,0.2107,0.2107,0.0,0.0,0.0,0.0,0.0,0.0,0.0,0.4334,0.4467,0.4158,0.3848,0.4516,0.0,0.0,0.5457,0.0,0.7322,0.7872,0.0,0.0,0.0,0.0,0.0,0.0,0.0,0.0,0.0,0.0,0.0,0.0,0.0,0.0,0.0,0.0,0.0,0.0,0.0,0.0,0.0,0.0,0.0,0.0,0.0,0.0,0.0,1.0582,1.0472,1.0472,1.0312,1.0253,1.0253,1.0253,1.0206,1.0058,0.9719,0.943,0.9235,0.8994,0.88,0.8692,0.8616,0.8536,0.8374,0.8299,0.8269,0.8269,0.8269,0.8225,0.816,0.0,0.0,0.0,0.0,0.0,0.0,0.0,0.0,0.0,0.0,0.0,0.0,0.0,0.0,0.0,0.0,0.0,0.0,0.0,0.0,0.0,0.1766,0.2038,0.2097,0.205,0.2016,0.1974,0.1882,0.1882,0.1882,0.1882,0.1569,0.148,0.1659,0.1659,0.1659,0.1659,0.1659,0.1569,0.1436,0.1569,0.1569,0.1436,0.1792,0.233,0.2913,0.309,0.3757,0.4556,0.4556,0.0,0.0,0.0,0.0,0.4779,0.4779,0.469,0.4556,0.4732,0.0,0.5348,0.6068,0.7253,0.0,0.0,0.0,0.0,0.0,0.0,0.0,0.0,0.0,0.0,0.0,0.0,0.0,0.0,0.0,0.0,0.0,0.0,0.0,0.0,0.0,0.0,0.0,0.0,0.0,0.0,0.0,1.0692,1.0692,1.0692,1.0692,1.0692,1.0692,1.0692,1.0692,1.0664,1.0647,1.0635,0.9837,0.9433,0.938,0.9268,0.9087,0.8872,0.8739,0.8584,0.837,0.8189,0.8137,0.8137,0.8088,0.8088,0.8041,0.0,0.0,0.0,0.0,0.0,0.0,0.0,0.0,0.0,0.0,0.0,0.0,0.0,0.0,0.0,0.0,0.0,0.0,0.0,0.0,0.0,0.4273,0.4364,0.4337,0.4186,0.4173,0.409,0.3933,0.3933,0.3933,0.3887,0.2194,0.1883,0.2688,0.2688,0.2688,0.2688,0.2688,0.2196,0.148,0.2331,0.2196,0.1569,0.3264,0.3489,0.3001,0.3801,0.4736,0.5494,0.5494,0.6074,0.0,0.0,0.0,0.6738,0.6738,0.616,0.5675,0.0,0.0,0.7745,0.0,0.876,0.0,0.0,0.0,0.0,0.0,0.0,0.0,0.0,0.0,0.0,0.0,0.0,0.0,0.0,0.0,0.0,0.0,0.0,0.0,0.0,0.0,0.0,0.0,0.0,0.0,0.0,1.0692,1.0692,1.0692,1.0692,1.0692,1.0692,1.0692,1.0692,1.0688,1.0542,1.0415,1.0411,1.0201,0.9955,0.9679,0.912,0.8842,0.8788,0.8816,0.8759,0.8709,0.8684,0.8676,0.8676,0.8432,0.8333,0.8354,0.0,0.0,0.0,0.0,0.0,0.0,0.0,0.0,0.0,0.0,0.0,0.0,0.0,0.0,0.0,0.2613,0.2218,0.1916,0.1815,0.2718,0.3621,0.4325,0.4624,0.4743,0.4614,0.461,0.4519,0.4289,0.4289,0.4289,0.4287,0.3443,0.3266,0.3667,0.3135,0.2911,0.2867,0.2286,0.2152,0.2285,0.2732,0.2644,0.2374,0.3755,0.4022,0.3801,0.4736,0.5672,0.6476,0.6476,0.6741,0.7095,0.7095,0.0,0.0,0.0,0.683,0.0,0.7007,0.7524,0.798,0.0,0.0,0.0,0.0,0.0,0.0,0.0,0.0,0.0,0.0,0.0,0.0,0.0,0.0,0.0,0.0,0.0,0.0,0.0,0.0,0.0,0.0,0.0,0.0,0.0,0.0,0.0,0.0,1.0692,1.0692,1.0692,1.0692,0.0,1.0692,1.0692,1.0692,1.0692,1.0615,1.0578,1.057,1.0396,1.0148,0.9844,0.9532,0.926,0.9031,0.9031,0.8928,0.8825,0.8825,0.8825,0.8775,0.8676,0.8685,0.8765,0.0,0.0,0.0,0.0,0.0,0.0,0.0,0.0,0.0,0.0,0.0,0.0,0.0,0.0,0.0,0.0,0.3574,0.3423,0.3674,0.4124,0.4576,0.4876,0.5377,0.5529,0.5372,0.5367,0.5261,0.5001,0.5001,0.5001,0.5001,0.5001,0.5001,0.4956,0.4024,0.3624,0.3582,0.282,0.2776,0.3267,0.3535,0.3491,0.3401,0.4556,0.4868,0.4779,0.5716,0.6517,0.7095,0.7095,0.7095,0.7095,0.7095,0.7095,0.0,0.0,0.0,0.0,0.0,0.0,0.0,0.0,0.0,0.0,0.0,0.0,0.0,0.0,0.0,0.0,0.0,0.0,0.0,0.0,0.0,0.0,0.0,0.0,0.0,0.0,0.0,0.0,0.0,0.0,0.0,0.0,0.0,0.0,1.0688,1.0692,1.0692,1.0692,1.0692,1.0692,1.0692,1.0692,1.0692,1.0692,1.0692,1.0692,1.0688,1.0558,1.0327,1.0018,0.9925,0.9714,0.9394,0.9301,0.9179,0.9023,0.9023,0.9023,0.8977,0.8924,0.9007,0.9058,0.0,0.0,0.0,0.0,0.0,0.0,0.0,0.0,0.0,0.0,0.0,0.0,0.4598,0.4444,0.4285,0.4017,0.3721,0.4022,0.5029,0.5377,0.6079,0.7344,0.769,0.0,0.7463,0.7456,0.7263,0.6962,0.6962,0.6962,0.6962,0.6962,0.6962,0.6918,0.5985,0.5542,0.5542,0.5497,0.5006,0.4289,0.5184,0.5003,0.4423,0.6248,0.6384,0.5764,0.6697,0.7051,0.7095,0.7095,0.7095,0.7095,0.7095,0.7095,0.7095,0.0,0.0,0.0,0.0,0.0,0.0,0.0,0.0,0.0,0.0,0.0,0.0,0.0,0.0,0.0,0.0,0.0,0.0,0.0,0.0,0.0,0.0,0.0,0.0,0.0,0.0,0.0,0.0,0.0,0.0,0.0,0.0,0.0,1.0684,1.0692,1.0692,1.0692,1.0692,1.0692,1.0692,1.0692,1.0692,1.0692,1.0692,1.0692,1.0692,1.0684,1.0578,1.0387,1.0038,0.988,0.986,0.9647,0.9579,0.9579,0.9579,0.9579,0.9529,0.9282,0.9191,0.9172,0.0,0.0,0.0,0.0,0.0,0.0,0.0,0.0,0.0,0.0,0.0,0.0,0.0,0.6037,0.6306,0.6326,0.6082,0.6079,0.6434,0.6736,0.7089,0.7596,0.775,0.7801,0.7604,0.7502,0.735,0.7095,0.7095,0.7095,0.7095,0.7095,0.7095,0.7051,0.6118,0.5719,0.5675,0.5048,0.4959,0.0,0.0,0.5494,0.5317,0.6605,0.0,0.0,0.0,0.0,0.0,0.7095,0.7095,0.7095,0.7095,0.7095,0.7095,0.7095,0.7095,0.0,0.0,0.0,0.0,0.0,0.0,0.0,0.0,0.0,0.0,0.0,0.0,0.0,0.0,0.0,0.0,0.0,0.0,0.0,0.0,0.0,0.0,0.0,0.0,0.0,0.0,0.0,0.0,0.0,0.0,0.0,1.04,1.0465,1.0526,1.0526,1.0635,1.0692,1.0692,1.0692,1.0692,1.0692,1.1446,1.1769,1.1819,1.2383,1.2234,1.1518,1.1062,1.0487,0.988,0.9819,0.973,0.9579,0.9579,0.9579,0.9579,0.948,0.9548,0.9585,0.0,0.0,0.0,0.0,0.0,0.0,0.0,0.0,0.0,0.6163,0.0,0.0,0.0,0.0,0.7537,0.7584,0.7341,0.7188,0.7188,0.7444,0.7574,0.7526,0.7719,0.7723,0.7529,0.7424,0.7295,0.7095,0.7095,0.7095,0.7095,0.7095,0.7095,0.7095,0.6428,0.6163,0.0,0.0,0.0,0.6163,0.0,0.0,0.6251,0.0,0.0,0.0,0.0,0.0,0.0,0.0,0.7095,0.7095,0.7095,0.7095,0.7095,0.7095,0.7095,0.0,0.7095,0.0,0.0,0.0,0.0,0.0,0.0,0.0,0.0,0.0,0.0,0.0,0.0,0.0,0.0,0.0,0.0,0.0,0.0,0.0,0.0,0.0,0.0,0.0,0.0,0.0,0.0,0.0,0.0,0.0,1.0208,1.0278,1.0343,1.0343,1.0452,1.0758,1.1196,1.1196,1.1354,1.1724,1.2475,1.2807,1.2733,1.332,1.3205,1.2573,1.2174,1.1199,0.988,0.9823,0.973,0.9579,0.9579,0.9579,0.9579,0.9579,0.9701,0.9732,0.0,0.0,0.0,0.0,0.0,0.0,0.0,0.0,0.7095,0.7095,0.0,0.0,0.0,0.0,0.0,0.7621,0.7378,0.7226,0.7226,0.7431,0.7523,0.743,0.7656,0.7665,0.7426,0.0,0.0,0.0,0.0,0.0,0.0,0.0,0.7095,0.7095,0.7095,0.7095,0.7095,0.0,0.7095,0.7095,0.0,0.7095,0.7095,0.0,0.0,0.0,0.7102,0.7105,0.0,0.7105,0.0,0.0,0.0,0.0,0.7095,0.7095,0.7095,0.0,0.0,0.0,0.0,0.0,0.0,0.0,0.0,0.0,0.0,0.0,0.0,0.0,0.0,0.0,0.0,0.0,0.0,0.0,0.0,0.0,0.0,0.0,0.0,0.0,0.0,0.0,0.0,0.0,0.0,1.0276,1.0188,1.0204,1.026,1.0264,1.0264,1.0919,1.2207,1.2207,1.2725,1.365,1.3703,1.3585,1.3314,1.3359,1.3354,1.3303,1.3298,1.205,0.9948,0.9797,0.9682,0.9673,0.9673,0.9677,0.9628,0.9628,0.9628,0.9579,0.0,0.0,0.0,0.0,0.0,0.0,0.0,0.7095,0.7095,0.0,0.0,0.0,0.7431,0.7567,0.7628,0.7624,0.7528,0.748,0.748,0.7579,0.7559,0.7567,0.7506,0.7455,0.7419,0.0,0.0,0.0,0.0,0.0,0.0,0.0,0.0,0.0,0.7095,0.7095,0.7095,0.7095,0.0,0.7095,0.7095,0.7095,0.0,0.0,0.0,0.0,0.0,0.738,0.7455,0.0,0.7309,0.7288,0.0,0.0,0.0,0.0,0.0,0.0,0.7095,0.0,0.0,0.0,0.0,0.0,0.0,0.0,0.0,0.0,0.0,0.0,0.0,0.0,0.0,0.0,0.0,0.0,0.0,0.0,0.0,0.0,0.0,0.0,0.0,0.0,0.0,0.0,1.0099,0.9975,0.9774,1.0597,1.1494,1.2412,1.2417,1.2521,1.2628,1.2623,1.2692,1.2775,1.3616,1.3927,1.39,1.4544,1.4404,1.3659,1.3478,1.2612,1.137,1.1884,1.1959,1.1858,1.1858,1.1419,1.0739,1.0739,1.0256,0.9579,0.0,0.0,0.0,0.0,0.0,0.0,0.0,0.736,0.7095,0.0,0.0,0.0,0.7409,0.7509,0.76,0.76,0.76,0.76,0.76,0.76,0.757,0.7506,0.7463,0.7343,0.7278,0.7142,0.0,0.0,0.0,0.0,0.0,0.0,0.0,0.0,0.0,0.0,0.0,0.0,0.0,0.0,0.7095,0.0,0.0,0.721,0.7292,0.0,0.0,0.0,0.7587,0.7495,0.7424,0.0,0.0,0.0,0.0,0.0,0.0,0.0,0.0,0.0,0.0,0.0,0.0,0.0,0.0,0.8641,0.0,0.0,0.0,0.0,0.0,0.0,0.0,0.0,0.0,0.0,0.0,0.0,0.0,0.0,0.0,0.0,0.0,0.0,0.0,0.0,1.0699,1.1033,1.1224,1.1736,1.2405,1.3128,1.3035,1.3159,1.3514,1.3508,1.368,1.3963,1.4496,1.4722,1.4608,1.5055,1.493,1.4401,1.4191,1.3761,1.335,1.3714,1.3239,1.2394,1.2394,1.201,1.1497,1.1639,1.124,1.0683,0.0,0.0,0.0,0.0,0.0,0.0,0.0,0.7797,0.7272,0.0,0.7183,0.7149,0.7329,0.7561,0.769,0.769,0.769,0.769,0.769,0.7596,0.7489,0.7353,0.7346,0.7282,0.7098,0.7095,0.0,0.0,0.0,0.0,0.0,0.0,0.0,0.0,0.0,0.0,0.0,0.0,0.0,0.7143,0.7143,0.7149,0.0,0.0,0.7436,0.0,0.7624,0.7634,0.7645,0.7631,0.7522,0.0,0.0,0.0,0.0,0.0,0.7156,0.0,0.0,0.0,0.0,0.0,0.0,0.0,0.8612,0.8612,0.8612,0.0,0.0,0.0,0.0,0.0,0.0,0.0,0.0,0.0,0.0,0.0,0.0,0.0,0.0,0.0,0.0,0.0,0.0,1.0884,1.1783,1.2689,1.3498,1.3285,1.3159,1.3298,1.2986,1.3379,1.4569,1.4576,1.5022,1.592,1.57,1.5479,1.5219,1.5041,1.5041,1.5219,1.5041,1.5086,1.5226,1.5041,1.3853,1.2261,1.2261,1.2169,1.21,1.231,1.2339,1.2183,0.9879,0.0,0.0,0.0,0.0,0.0,0.0,0.8368,0.8237,0.8237,0.7577,0.7105,0.7139,0.7875,0.8338,0.8338,0.8338,0.8338,0.8338,0.7629,0.7173,0.7142,0.7139,0.7125,0.7095,0.7095,0.7095,0.0,0.0,0.0,0.0,0.0,0.0,0.0,0.0,0.0,0.0,0.0,0.0,0.7415,0.7415,0.0,0.7643,0.7626,0.7798,0.8027,0.8055,0.8001,0.7887,0.0,0.7675,0.7556,0.0,0.0,0.0,0.0,0.0,0.0,0.0,0.0,0.0,0.0,0.0,0.0,0.8612,0.8612,0.8612,0.0,0.0,0.0,0.0,0.0,0.0,0.0,0.0,0.0,0.0,0.0,0.0,0.0,0.0,0.0,0.0,0.0,1.0926,1.1388,1.2063,1.2929,1.3908,1.3905,1.4236,1.5055,1.5046,1.5021,1.5064,1.5064,1.5035,1.4964,1.4921,1.4851,1.4838,1.4795,1.4795,1.4795,1.4795,1.4795,1.4788,1.4618,1.4472,1.4411,1.4411,1.3857,1.3121,1.3168,1.2688,1.1969,1.1011,0.0,0.0,0.0,0.0,0.0,0.0,0.0,0.9187,0.9187,0.8794,0.8317,0.7841,0.8237,0.8324,0.7841,0.7797,0.8017,0.8456,0.7621,0.7316,0.7797,0.736,0.7095,0.7095,0.7095,0.7095,0.0,0.0,0.0,0.0,0.0,0.0,0.0,0.0,0.0,0.0,0.0,0.7597,0.7803,0.7803,0.0,0.798,0.8095,0.8255,0.8412,0.8485,0.8368,0.8173,0.8146,0.7921,0.0,0.0,0.7604,0.7531,0.0,0.8063,0.8517,0.0,0.0,0.0,0.9742,0.0,0.0,0.0,0.9946,0.0,0.0,0.0,0.0,0.0,0.0,0.0,0.0,0.0,0.0,0.0,0.0,0.0,0.0,0.0,0.0,0.0,0.0,1.1803,1.3109,1.3465,1.4141,1.5198,1.5106,1.5214,1.5747,1.559,1.5433,1.5283,1.5319,1.524,1.5041,1.495,1.4915,1.4908,1.4776,1.4783,1.4908,1.4741,1.4783,1.4873,1.465,1.4668,1.482,1.4609,1.4291,1.3936,1.409,1.3837,1.3365,1.2212,0.0,0.0,0.0,0.0,0.0,0.0,0.0,1.0096,0.9923,0.9879,0.9618,0.8846,0.8934,0.8715,0.7969,0.7925,0.8233,0.8978,0.8145,0.7969,0.8759,0.8057,0.7621,0.7621,0.7621,0.7621,0.7621,0.0,0.0,0.0,0.0,0.0,0.0,0.0,0.0,0.0,0.0,0.0,0.82,0.0,0.8291,0.8229,0.8537,0.8657,0.8653,0.878,0.8676,0.8531,0.8432,0.0,0.824,0.7952,0.8089,0.0,0.0,0.0,0.0,0.0,0.0,0.0,0.0,0.0,1.1392,0.0,0.0,0.0,0.0,0.0,0.0,0.0,0.0,0.0,0.0,0.0,0.0,0.0,0.0,0.0,0.0,0.0,0.0,0.0,0.0,1.2968,1.4566,1.4838,1.5286,1.614,1.5957,1.5783,1.5783,1.5528,1.5389,1.5389,1.5389,1.5389,1.5389,1.5257,1.5173,1.5131,1.4915,1.495,1.5131,1.4915,1.4957,1.5131,1.4866,1.4783,1.4741,1.437,1.4328,1.4474,1.4778,1.4874,1.4772,1.2572,1.2687,0.0,0.0,0.0,0.0,0.0,0.0,1.0842,1.0009,0.9879,0.9879,0.9749,0.0,0.0,0.0,0.0,0.0,1.0977,0.0,0.9618,0.9749,0.9618,0.9575,0.9575,0.9575,0.9575,0.9575,0.0,0.0,0.0,0.0,0.0,0.0,0.9017,0.0,0.0,0.0,0.8404,0.0,0.9028,0.8965,0.0,0.8864,0.887,0.8803,0.8817,0.8928,0.9034,0.0,0.9152,0.987,0.0,0.9498,0.0,0.0,0.0,0.0,0.0,0.0,0.0,0.0,1.193,0.0,0.0,0.0,0.0,0.0,0.0,0.0,0.0,0.0,0.0,0.0,0.0,0.0,0.0,0.0,0.0,0.0,0.0,0.0,0.0,0.0,0.0,1.4155,1.4888,1.5407,1.5491,1.5462,1.5447,1.5447,1.5411,1.5389,1.5389,1.5389,1.5389,1.5389,1.5389,1.5389,1.5347,1.534,1.5347,1.5347,1.534,1.5347,1.5347,1.5131,1.5041,1.5048,1.4741,1.465,1.4657,1.4692,1.4706,1.4713,1.2487,1.2602,0.0,0.0,0.0,0.0,0.0,0.0,1.1966,1.1574,1.1526,1.1311,0.0,0.0,0.0,0.0,0.0,1.0885,0.0,0.0,1.0318,1.0712,0.0,0.0,0.9879,1.0053,1.0139,1.0139,1.0265,0.0,0.0,0.0,0.0,0.0,0.9449,0.0,0.8446,0.0,0.0,0.0,0.0,0.0,0.0,0.9462,0.9698,1.0194,1.0194,1.0538,1.0979,0.0,1.0534,0.0,0.0,0.0,0.0,0.0,0.0,0.0,0.0,0.0,0.0,0.0,0.0,0.0,0.0,0.0,1.2918,0.0,0.0,0.0,0.0,0.0,0.0,0.0,0.0,0.0,0.0,0.0,0.0,0.0,0.0,0.0,0.0,0.0,0.0,0.0,0.0,1.5389,1.5389,1.5389,1.5389,1.5389,1.5389,1.5389,1.5389,1.5389,1.5389,1.5389,1.5389,1.5389,1.5389,1.5389,1.5389,1.5389,1.5389,1.5389,1.5389,1.5305,1.5257,1.5257,1.5166,1.5041,1.4915,1.4915,1.4915,1.4915,1.2457,0.0,0.0,0.0,0.0,0.0,0.0,0.0,0.0,0.0,0.0,0.0,1.1757,1.1757,0.0,0.0,1.1004,1.1354,0.0,0.0,1.1316,0.0,0.0,0.0,0.0,0.0,1.1133,1.1133,0.0,0.0,0.0,0.0,0.0,0.0,0.0,1.0186,0.9633,0.0,0.0,1.0257,1.0311,1.0704,1.1268,1.0596,1.0886,1.1609,1.1609,1.195,1.2387,1.2339,1.195,0.0,1.1804,0.0,0.0,0.0,0.0,0.0,1.4362,0.0,0.0,0.0,0.0,0.0,0.0,0.0,0.0,0.0,0.0,0.0,0.0,0.0,0.0,0.0,0.0,0.0,0.0,0.0,0.0,0.0,0.0,0.0,0.0,0.0,0.0,0.0,1.5389,0.0,1.5389,1.5389,1.5389,1.5389,1.5389,1.5389,1.5389,1.5389,1.5389,1.5389,1.5389,1.5389,1.5389,1.5389,1.5389,1.5389,1.5389,1.5389,1.5389,1.5389,1.5389,1.5389,1.5389,1.5305,1.5173,1.5173,1.5173,1.5173,1.2693,1.2699,0.0,0.0,0.0,0.0,0.0,0.0,0.0,0.0,0.0,0.0,0.0,0.0,0.0,0.0,0.0,1.3307,1.3307,0.0,1.3094,0.0,0.0,1.3094,0.0,0.0,0.0,0.0,0.0,0.0,0.0,0.0,0.0,0.0,0.0,1.2513,1.1709,1.2156,1.2402,1.2388,1.2528,1.2624,1.263,0.0,1.2387,1.263,1.263,0.0,0.0,1.2387,1.3119,0.0,0.0,0.0,0.0,0.0,0.0,0.0,0.0,0.0,0.0,1.5758,0.0,0.0,0.0,0.0,1.4429,0.0,0.0,0.0,0.0,0.0,1.4692,1.4692,0.0,0.0,0.0,0.0,0.0,0.0,0.0,0.0,0.0,0.0,0.0,0.0,1.5389,0.0,1.5389,1.5389,1.5389,1.5389,1.5389,1.5389,1.5389,1.5389,1.5389,1.5389,1.5389,1.5389,1.5389,1.5389,1.5389,1.5389,1.5389,1.5389,1.5389,1.5389,1.5389,1.5389,1.5389,1.5389,1.5389,1.5389,1.5389,1.5389,0.0,0.0,0.0,0.0,0.0,0.0,0.0,1.279,0.0,0.0,0.0,0.0,0.0,0.0,1.3901,0.0,0.0,1.4121,1.3995,1.4084,0.0,0.0,0.0,1.3585,0.0,0.0,0.0,0.0,0.0,0.0,0.0,0.0,0.0,0.0,0.0,1.3001,0.0,0.0,0.0,0.0,0.0,1.3757,1.3661,0.0,0.0,1.3757,1.3757,1.419,0.0,1.4663,1.4478,1.4346,1.4424,1.4621,1.4867,1.5099,1.5439,0.0,0.0,0.0,1.5784,1.5784,0.0,0.0,0.0,0.0,0.0,0.0,0.0,0.0,0.0,0.0,1.4692,1.4692,1.5082,1.5389,0.0,0.0,0.0,0.0,0.0,0.0,0.0,0.0,0.0,1.5389,1.5389,1.5389,0.0,1.5389,1.5389,1.5389,1.5389,1.5389,1.5389,1.5389,1.5389,1.5389,1.5389,1.5389,1.5389,1.5389,1.5389,1.5389,1.5389,1.5389,1.5389,1.5389,1.5389,1.5389,1.5389,1.5389,1.5389,1.5389,1.5389,1.5389,1.2833,0.0,0.0,0.0,0.0,0.0,0.0,0.0,0.0,0.0,1.3611,0.0,1.3957,0.0,1.4411,0.0,1.4591,1.4687,1.4553,1.4591,0.0,1.4553,1.4237,0.0,0.0,0.0,0.0,0.0,0.0,1.4439,0.0,0.0,0.0,0.0,0.0,0.0,0.0,0.0,1.3737,0.0,0.0,1.4825,0.0,0.0,1.4232,1.4825,0.0,1.5255,1.5784,1.5784,1.535,1.4968,1.5588,1.535,1.4968,1.5588,1.5784,1.5784,1.5784,1.5784,0.0,0.0,1.5691,0.0,1.5424,0.0,0.0,0.0,0.0,0.0,0.0,0.0,1.4824,1.4824,1.5173,1.5389,0.0,1.5389,0.0,0.0,0.0,0.0,0.0,0.0,1.5389,1.5389,1.5389,1.5389,0.0,0.0,1.5389,1.5389,1.5389,1.5389,1.5389,1.5389,1.5389,1.5389,1.5389,1.5389,1.5389,1.5389,1.5389,1.5389,1.5389,1.5389,1.5389,1.5389,1.5389,1.5389,1.5389,1.5389,1.5389,1.5389,1.5389,1.5389,0.0,0.0,0.0,0.0,1.3319,0.0,0.0,0.0,1.3811,0.0,1.4116,1.434,1.434,1.4533,1.4675,1.4675,1.4868,0.0,1.5055,1.4817,0.0,0.0,1.4759,1.4752,1.5028,0.0,0.0,0.0,0.0,0.0,0.0,0.0,0.0,0.0,1.5291,0.0,1.5438,1.5712,1.5784,1.5784,1.5784,1.5784,1.5784,1.5784,0.0,1.5784,1.5784,1.5784,1.5784,1.5784,1.5784,1.5784,1.5784,1.5784,1.5784,1.5784,1.5784,1.5784,1.5784,1.5784,1.5784,1.5784,0.0,0.0,0.0,0.0,1.5037,0.0,0.0,0.0,0.0,0.0,0.0,1.509,1.5257,1.5389,1.5389,0.0,0.0,0.0,0.0,0.0,0.0,1.5389,1.5389,1.5389,1.5389,0.0,0.0,0.0,0.0,1.5389,1.5389,1.5389,1.5389,1.5389,1.5389,1.5389,1.5389,1.5389,1.5389,1.5389,1.5431,1.5431,1.5389,1.5431,1.5431,1.5465,1.5472,1.5465,1.5506,1.5506,1.5506,1.5423,1.5389,1.5389,1.3307,1.3649,1.397,0.0,1.3752,1.3547,0.0,0.0,0.0,0.0,1.4689,1.4956,1.5101,1.5332,1.5511,1.5511,1.5558,0.0,0.0,0.0,0.0,1.5605,1.5351,1.5238,1.5284,1.5122,0.0,1.5008,0.0,0.0,1.5015,0.0,0.0,0.0,0.0,0.0,1.5678,1.5751,1.5784,1.5784,1.5784,1.5784,0.0,0.0,1.5784,1.5784,1.5784,1.5784,1.5784,1.5784,1.5784,1.5784,1.5784,1.5784,1.5784,1.5784,1.5784,1.5784,1.5784,1.5784,1.5784,1.5784,1.5927,1.6055,0.0,0.0,0.0,0.0,0.0,0.0,0.0,0.0,0.0,1.509,1.5257,1.5389,0.0,0.0,0.0,0.0,0.0,0.0,0.0,0.0,1.5389,1.5389,1.5389,0.0,0.0,0.0,0.0,1.5389,1.5389,1.5389,1.5389,1.5389,1.5389,1.5389,1.5389,1.5389,1.5389,1.5389,1.5465,1.5616,1.5465,1.5458,1.5658,1.618,1.6378,1.6419,1.7074,1.7318,1.7196,1.5873,1.5389,1.5389,1.4465,0.0,0.0,1.5304,0.0,0.0,1.4513,0.0,0.0,1.4897,1.5219,0.0,1.5538,1.5732,1.5784,1.5784,1.5784,0.0,0.0,0.0,0.0,1.5784,1.5671,1.5585,1.5585,1.5424,0.0,1.5344,0.0,0.0,1.5344,0.0,0.0,0.0,0.0,1.5784,0.0,1.5784,1.5784,1.5784,1.5784,0.0,0.0,1.5784,1.5784,1.5784,1.5784,1.5784,1.5784,1.5784,1.5784,1.5784,1.5784,1.5879,1.5981,1.5981,1.6069,1.6163,1.6163,1.6163,1.6163,1.6163,1.6258,1.6359,1.6359,1.6258,1.6134,0.0,0.0,0.0,0.0,0.0,0.0,0.0,0.0,0.0,0.0,0.0,0.0,0.0,0.0,0.0,0.0,0.0,0.0,0.0,0.0,0.0,0.0,0.0,0.0,1.5389,1.5389,1.5389,1.5389,1.5506,1.5541,1.5541,1.5631,1.5722,1.5714,1.6072,1.6304,1.6412,1.6698,1.6854,1.7009,1.7293,1.7455,1.7568,1.806,1.8221,1.8029,1.7147,1.6706,1.6558,0.0,0.0,0.0,0.0,0.0,0.0,0.0,1.5257,0.0,1.5444,0.0,1.5885,1.5885,1.5919,1.5945,1.5945,0.0,1.5878,1.5885,1.5885,1.5872,1.5784,1.5784,1.5784,1.5784,1.5784,0.0,0.0,0.0,0.0,0.0,0.0,0.0,0.0,0.0,0.0,0.0,1.5832,1.5832,0.0,1.5879,1.592,1.592,1.592,1.592,1.592,1.592,1.5879,1.5832,1.5832,1.5832,1.5879,1.5879,1.6069,1.6265,1.6265,1.6407,1.6588,1.6588,1.6588,1.6588,1.6588,1.6636,1.6636,1.6636,1.6472,1.6281,1.6156,1.5885,0.0,0.0,0.0,0.0,0.0,0.0,0.0,0.0,0.0,0.0,0.0,0.0,0.0,0.0,0.0,0.0,0.0,0.0,0.0,0.0,0.0,0.0,0.0,1.5582,0.0,1.579,0.0,1.609,1.609,1.6312,1.6451,1.6443,1.7139,1.7496,1.7536,1.8284,1.8603,1.8643,1.8532,1.8691,1.8921,1.8921,1.885,1.87,1.889,1.874,1.8399,0.0,0.0,0.0,0.0,0.0,1.7558,1.5906,1.5518,1.5484,1.5718,1.6012,0.0,1.6192,1.6406,1.6553,1.6553,1.6553,0.0,0.0,0.0,0.0,1.5791,1.5784,1.5784,1.5784,1.5784,1.5784,0.0,0.0,0.0,0.0,0.0,0.0,0.0,0.0,0.0,1.5832,1.6028,0.0,1.617,1.6353,1.644,1.644,1.644,1.644,1.644,1.644,1.6163,1.5832,1.6076,1.613,1.617,1.64,1.6487,1.6541,1.6541,1.6541,1.6588,1.6588,1.6588,1.6588,1.6588,1.6784,1.6932,1.6932,1.7016,1.7018,1.679,1.6469,1.6402,1.6827,0.0,0.0,0.0,0.0,0.0,0.0,0.0,0.0,0.0,0.0,0.0,0.0,0.0,0.0,0.0,0.0,0.0,0.0,0.0,0.0,0.0,0.0,0.0,0.0,0.0,0.0,1.8083,1.8123,1.8172,1.8172,1.8324,1.8443,1.8621,1.8603,1.8683,1.8899,1.9413,2.006,2.076,2.076,2.0712,2.0683,2.0722,2.0683,2.044,0.0,0.0,0.0,0.0,0.0,0.0,0.0,1.7021,0.0,1.6155,1.6313,1.65,1.65,1.662,1.6707,1.6707,1.6707,1.6647,1.6506,1.65,1.6366,1.6072,1.6059,0.0,1.6028,1.6028,1.6028,1.6028,0.0,0.0,1.5784,0.0,0.0,0.0,0.0,1.6028,0.0,0.0,0.0,1.6407,1.6541,1.6588,1.6588,1.6588,1.6588,1.6588,1.6588,1.644,1.6204,1.6353,1.6407,1.6447,1.6541,1.6683,1.6831,1.6831,1.6871,1.6958,1.6958,1.6958,1.6958,1.6958,1.7052,1.7293,1.7792,1.8017,1.8149,1.8343,1.8073,1.7752,1.7631,1.7833,0.0,0.0,0.0,0.0,0.0,0.0,0.0,0.0,0.0,0.0,0.0,0.0,0.0,0.0,0.0,0.0,0.0,0.0,0.0,0.0,0.0,0.0,0.0,0.0,0.0,1.8771,1.889,1.897,1.897,1.9413,1.9659,1.9737,2.0129,2.0323,2.0411,2.0731,2.1021,2.1205,2.1436,2.1436,2.1359,2.1474,2.1502,2.1349,0.0,2.1125,0.0,0.0,2.0819,0.0,0.0,1.8977,1.8459,1.6645,1.662,1.68,1.68,1.6854,1.6894,1.6894,1.6894,1.6867,1.6807,1.7095,1.7016,1.6478,1.6988,1.6987,1.6415,1.6592,1.6557,0.0,0.0,0.0,0.0,0.0,0.0,0.0,0.0,0.0,0.0,0.0,1.6683,1.6683,1.673,1.677,1.677,1.677,1.677,1.677,1.677,1.677,1.677,1.677,1.673,1.6683,1.673,1.6871,1.7066,1.7066,1.72,1.7279,1.7279,1.7279,1.7326,1.7559,1.7598,1.7878,1.888,1.9109,1.9257,1.9775,1.9609,1.9099,1.8175,1.8318,0.0,0.0,0.0,0.0,0.0,0.0,0.0,0.0,0.0,0.0,0.0,0.0,0.0,0.0,0.0,0.0,0.0,0.0,0.0,0.0,0.0,0.0,1.9198,0.0,1.9532,0.0,1.9737,1.9816,1.9855,2.0498,2.0779,2.0818,2.1492,2.1807,2.1807,2.1807,2.1617,2.1359,2.1693,2.1693,2.1578,2.1731,2.1807,2.1769,0.0,0.0,0.0,0.0,0.0,0.0,0.0,2.0843,2.0367,1.7093,1.6978,1.7159,1.7159,1.7393,1.7502,1.7502,1.7502,1.7388,1.7179,1.8304,1.8369,1.7086,1.9182,1.9309,1.7064,1.7982,1.7834,0.0,0.0,0.0,0.0,0.0,0.0,0.0,0.0,0.0,0.0,1.6831,1.6979,1.6979,1.7145,1.7232,1.7232,1.7232,1.7232,1.7232,1.7232,1.7232,1.7232,1.7232,1.7106,1.6979,1.7192,1.7232,1.7286,1.7286,1.7286,1.7279,1.7279,1.7279,1.7512,1.8427,1.8657,1.8926,1.9869,2.0051,2.0087,2.0144,2.0236,1.9829,1.8264,1.9274,2.0089,0.0,0.0,0.0,0.0,0.0,0.0,0.0,0.0,0.0,0.0,0.0,0.0,0.0,0.0,0.0,0.0,0.0,0.0,1.962,0.0,2.045,2.1223,2.1415,0.0,2.153,2.1568,2.1568,2.1568,2.1645,2.1693,2.1683,2.1769,2.1807,2.1807,2.1807,2.1769,2.1769,2.1807,2.1807,2.1769,2.1807,2.1807,2.1807,0.0,0.0,0.0,0.0,0.0,0.0,0.0,2.2085,2.1761,1.9717,1.957,1.9602,1.9456,1.9802,1.9981,1.9842,1.9981,2.0023,1.9885,2.0378,2.0379,1.9594,2.05,2.0589,1.9582,1.9692,1.9515,0.0,0.0,0.0,0.0,0.0,0.0,0.0,0.0,1.8473,1.8603,1.8834,1.8926,1.8926,1.901,1.9055,1.8964,1.8419,1.8195,1.8102,1.7512,1.7279,1.7279,1.7279,1.7239,1.72,1.7286,1.7279,1.7279,1.7279,1.7279,1.7419,1.8064,1.8195,1.8427,1.9422,1.965,1.9923,2.0872,2.1105,2.1284,2.1819,2.1588,2.0936,1.9797,2.0245,2.0664,0.0,0.0,0.0,0.0,0.0,0.0,0.0,0.0,0.0,0.0,0.0,0.0,0.0,0.0,0.0,0.0,0.0,0.0,2.009,0.0,2.1328,2.1693,2.1769,2.1807,2.1807,2.1807,2.1807,2.1807,2.1807,2.1807,2.1807,2.1807,2.1807,2.1807,2.1807,2.1807,2.1807,2.1807,2.1807,2.1807,2.1807,2.1807,2.1807,2.3757,0.0,2.4206,0.0,2.4303,2.4143,2.3329,2.3361,2.3203,2.245,2.245,2.2139,2.1226,2.1456,2.1608,2.1422,2.1608,2.1702,2.1702,2.2055,2.2038,2.1478,2.2163,0.0,2.1445,2.1307,2.1057,2.0619,1.9418,0.0,0.0,0.0,0.0,0.0,1.984,1.9931,2.0022,2.015,2.0187,2.0187,2.0187,2.0187,2.0141,1.9467,1.9193,1.9109,1.8419,1.8149,1.8149,1.8149,1.8149,1.8102,1.7831,1.7917,1.8149,1.8149,1.8149,1.8334,1.901,1.9193,1.9422,2.0421,2.0638,2.0917,2.1872,2.2104,2.2259,2.2726,2.2271,2.1586,2.0908,2.0896,2.0984,0.0,0.0,0.0,0.0,0.0,0.0,0.0,0.0,2.1731,2.1807,0.0,0.0,0.0,0.0,0.0,0.0,0.0,0.0,0.0,0.0,0.0,0.0,2.1807,2.1807,2.1807,2.1807,2.1807,2.1807,2.1807,2.1807,2.1807,2.1807,2.1807,2.1807,2.1807,2.1807,2.1807,2.1807,2.1807,2.1807,2.1807,2.1807,2.1807,2.4864,2.4873,2.4883,2.4883,2.4883,2.4883,2.4883,2.4883,2.4883,2.4883,2.5088,2.4362,2.1954,2.1702,2.1702,2.1702,2.1702,2.1702,2.1702,2.2918,2.3185,0.0,0.0,2.4519,2.2016,2.2604,2.2312,2.089,0.0,0.0,1.978,0.0,1.9586,1.9894,1.9894,2.0022,2.0187,2.0187,2.0187,2.0187,2.0187,2.0187,2.0187,2.0187,2.0187,2.0187,2.0187,2.0141,2.0141,2.0141,2.0141,2.0005,1.9055,1.9422,2.0141,2.0141,2.0141,2.0187,2.0187,2.0187,2.0413,2.1418,2.1695,2.1926,2.2872,2.3091,2.29,2.231,2.1827,2.1461,2.1218,2.1205,2.1205,2.1205,0.0,0.0,0.0,0.0,0.0,0.0,2.1617,2.1578,2.1769,0.0,0.0,0.0,0.0,0.0,0.0,0.0,0.0,2.1769,2.1807,0.0,2.1807,2.1807,2.1807,2.1807,2.1807,2.1807,2.1807,2.1807,2.1807,2.1807,2.1807,2.1807,2.1807,2.1807,2.1807,2.1807,2.1807,2.1807,2.1807,2.1807,2.1807,2.1807,2.5186,2.5186,2.5186,2.5186,2.503,2.4883,2.4883,2.5088,2.5186,2.5186,2.5391,2.5274,2.451,2.4452,2.4353,0.0,2.4304,2.4452,0.0,2.4815,2.4922,2.4569,2.5284,2.5314,2.4519,2.4164,2.3726,2.327,0.0,0.0,0.0,2.1006,2.1389,2.2104,2.2104,2.2104,2.2183,2.2183,2.2183,2.2183,2.2183,2.2183,2.2094,2.1463,2.1239,2.1141,2.0466,2.0187,2.0187,2.0187,2.0647,2.115,2.0881,2.0512,2.0187,2.0187,2.0187,2.0367,2.1051,2.1239,2.1463,2.2413,2.2643,2.2775,2.3276,2.3265,2.3016,2.252,2.205,2.161,2.1247,2.132,2.1387,2.1387,0.0,0.0,0.0,0.0,0.0,0.0,0.0,2.1731,0.0,2.1731,0.0,0.0,0.0,0.0,0.0,0.0,0.0,0.0,2.1807,0.0,2.1807,2.1807,2.1807,2.1807,2.1807,2.1973,2.2273,2.2273,2.2449,2.2749,2.2749,2.2749,2.2749,2.2749,2.2563,2.2273,2.2273,2.2087,2.1807,2.1807,2.1807,2.1807,2.543,2.543,2.543,2.543,2.5333,2.5186,2.5186,2.5333,2.543,2.543,2.5586,2.5693,2.5693,2.5693,0.0,2.544,2.5586,0.0,2.5693,2.5693,2.5693,2.5693,2.5693,2.5693,2.5693,0.0,0.0,2.4414,2.2919,2.2236,2.2236,2.2236,2.2555,2.3091,2.3091,2.3091,2.3091,2.3091,2.3091,2.3091,2.3091,2.3091,2.3047,2.2467,2.2236,2.2148,2.1507,2.1275,2.1275,2.1275,2.1686,2.2236,2.2236,2.1784,2.1275,2.1275,2.1275,2.1418,2.2059,2.2236,2.2369,2.3091,2.3232,2.328,2.3381,2.313,2.2815,2.2443,2.1999,2.1644,2.1448,2.154,2.1617,2.1617,0.0,2.1807,0.0,0.0,0.0,0.0,0.0,0.0,0.0,2.1807,0.0,0.0,0.0,0.0,0.0,0.0,0.0,2.1807,2.1807,0.0,2.1807,2.1807,2.1807,2.1807,2.1983,2.2211,2.2501,2.2677,2.2915,2.3184,2.3184,2.3184,2.3184,2.3184,2.3018,2.2749,2.2749,2.247,2.2066,2.2066,2.1952,2.1807,2.5693,2.5693,0.0,0.0,2.5693,0.0,2.5693,2.5693,2.5693,2.5693,2.5693,2.5693,2.5693,2.5693,2.5693,2.5693,0.0,0.0,0.0,2.5693,2.5693,2.5693,2.5693,0.0,2.5693,2.4873,2.4385,2.4326,2.3481,2.3091,2.3091,2.3091,2.3091,2.3091,2.3091,2.3091,2.3091,2.3091,2.3091,2.3091,2.3091,2.3091,2.3091,2.3091,2.3091,2.3091,2.3091,2.3091,2.3144,2.3144,2.3144,2.3135,2.3135,2.3135,2.3135,2.3135,2.3144,2.3135,2.3135,2.3135,2.3232,2.346,2.3517,2.3431,2.3245,2.2866,2.2443,2.2168,2.1808,2.1578,2.1769,2.1807,2.1807,2.1807,2.1807,2.1807,2.1807,0.0,0.0,0.0,0.0,0.0,0.0,2.1807,2.1807,0.0,0.0,0.0,0.0,0.0,2.1807,2.1807,2.1807,2.1807,2.1807,2.1807,2.1828,2.1859,2.2294,2.2532,2.2604,2.3039,2.3256,2.3318,2.3318,2.3318,2.3318,2.3318,2.3307,2.3276,2.3276,2.2986,2.2582,2.2582,2.2312,2.1901,0.0,0.0,2.5693,2.5693,2.5693,2.5693,2.5693,2.5693,2.5693,2.5693,2.5693,2.5693,2.5693,2.5693,2.5693,2.5693,2.5693,2.5693,2.5693,2.5693,2.5693,2.5693,2.5693,2.5693,2.5693,2.4873,2.4046,2.3393,2.3198,2.3091,2.3091,2.3091,2.3091,2.3091,2.3091,2.3091,2.3091,2.3091,2.3091,2.3091,2.3091,2.3091,2.3091,2.3091,2.3091,2.3091,2.3091,2.3232,2.3416,2.3416,2.3493,2.3614,2.3614,2.3614,2.3624,2.345,2.3416,2.346,2.358,2.3614,2.3667,2.3711,2.3589,2.3487,2.3417,2.2951,2.2467,2.2433,2.2051,2.1731,2.1807,2.1807,2.1807,2.1807,2.1807,2.1807,2.1807,0.0,0.0,0.0,2.1807,2.1807,2.1807,2.1807,2.1807,0.0,0.0,0.0,0.0,0.0,2.1807,2.1807,2.1807,2.1807,2.1807,2.1807,2.1983,2.2335,2.2449,2.2873,2.3557,2.366,2.4013,2.4504,2.4504,2.4504,2.4493,2.4661,2.443,2.4001,2.4134,2.3808,2.3299,2.3427,2.3324,2.3131,2.5693,2.5693,2.5693,2.5693,2.5693,2.5693,2.5693,2.5859,2.6035,2.6035,2.6201,2.62,2.6055,2.6035,2.5908,2.5703,2.5693,2.5693,2.5693,2.5693,2.5693,2.5693,2.5693,2.5693,2.5693,2.5068,2.4297,2.3437,2.3198,2.3091,2.3091,2.3091,2.3091,2.3091,2.3091,2.3091,2.3101,2.3232,2.3276,2.3276,2.3406,2.3406,2.3406,2.3406,2.3406,2.3406,2.3406,2.3493,2.3634,2.3634,2.3711,2.3797,2.3797,2.3797,2.3797,2.3807,2.3721,2.3667,2.3754,2.3797,2.379,2.3685,2.3664,2.3587,2.3125,2.2773,2.2439,2.2221,2.1983,2.1807,2.1807,2.1807,2.1807,2.1807,2.1807,2.1807,2.1807,2.1807,0.0,2.1807,2.1807,2.1807,2.1807,2.1807,2.1807,2.1807,0.0,0.0,2.1807,2.1807,2.1807,2.1807,2.1807,2.1807,2.1807,2.2014,2.2281,2.2658,2.3085,2.3554,2.4054,2.4367,2.464,2.4903,2.4988,2.5031,2.5031,2.5158,2.4978,2.4671,2.4775,2.4448,2.3963,2.4064,2.3937,2.3646,2.5693,2.5693,2.5693,2.5693,2.5693,2.5713,2.5771,2.6152,2.6406,2.6475,2.6797,2.6855,2.6435,2.6387,2.6211,2.5723,2.5693,2.5693,2.5693,2.5693,2.5693,2.5693,2.5693,2.5693,2.5693,2.5234,2.458,2.3789,2.3305,2.3135,2.3144,2.3144,2.3188,2.3232,2.3232,2.3232,2.3222,2.345,2.3547,2.3547,2.3711,2.3797,2.3797,2.3797,2.3797,2.3797,2.3797,2.3841,2.3841,2.3841,2.3884,2.3927,2.3927,2.3927,2.3927,2.4196,2.4067,2.3927,2.3927,2.3877,2.3788,2.3614,2.3639,2.3463,2.2677,2.2439,2.2283,2.189,2.1807,2.1807,2.1807,2.1807,2.1807,2.1807,2.1807,2.1807,2.1807,0.0,2.1807,2.1845,2.1845,2.1921,2.2052,2.1949,2.1949,2.2052,2.1949,0.0,0.0,2.2052,2.2128,2.2231,2.1987,2.1845,2.1883,2.234,2.2728,2.2958,2.3831,2.4355,2.4554,2.5145,2.539,2.539,2.5558,2.5642,2.5642,2.5684,2.5684,2.5642,2.5684,2.5435,2.5066,2.5066,2.4805,2.4458,2.5693,2.5693,2.5693,2.5693,2.5693,2.581,2.623,2.6348,2.6514,2.6875,2.6973,2.6855,2.6435,2.6387,2.6211,2.5723,2.5693,2.5693,2.5693,2.5693,2.5693,2.5693,2.5693,2.5693,2.5693,2.4932,2.4277,2.3789,2.3305,2.3232,2.346,2.346,2.3537,2.3711,2.3711,2.3711,2.3711,2.3754,2.3754,2.3754,2.3797,2.3797,2.3797,2.3797,2.3797,2.3797,2.3797,2.3937,2.4153,2.4153,2.4239,2.4411,2.4411,2.4411,2.4411,2.4454,2.4411,2.4411,2.4411,2.4133,2.3876,2.3846,2.3287,2.2677,2.2532,2.219,2.189,2.1818,2.1807,2.1807,2.1807,2.1807,2.1807,2.1807,2.1807,2.1807,2.1807,0.0,2.1845,2.2025,2.2063,2.2354,2.3158,2.267,2.2569,2.3195,2.2681,2.2569,2.3195,2.3231,2.3562,2.4241,2.282,2.2149,2.2327,2.2755,2.3239,2.3642,2.4202,2.5062,2.6135,2.6243,2.676,2.7602,2.7654,2.7643,2.7643,2.7815,2.7815,2.7654,2.7815,2.7768,2.7566,2.7738,2.7639,2.7449,2.7305,2.7305,2.7305,2.7305,2.7305,2.7367,2.7585,2.7835,2.784,2.7521,2.7653,2.7442,2.6485,2.6387,2.626,2.5956,2.5917,2.5965,2.612,2.5878,2.5693,2.5693,2.5693,2.5693,2.5693,2.4967,2.451,2.4358,2.3776,2.3537,2.3667,2.3667,2.3711,2.3797,2.3797,2.3797,2.3797,2.3927,2.4024,2.4024,2.4143,2.4186,2.4186,2.4186,2.4186,2.4186,2.4186,2.4282,2.4368,2.4368,2.4411,2.4497,2.4497,2.4497,2.4497,2.4497,2.4497,2.4445,2.425,2.4033,2.3764,2.3256,2.2811,2.2428,2.218,2.1963,2.1807,2.1807,2.1807,2.1807,2.1807,2.1807,2.1807,2.1807,2.1807,0.0,0.0,2.1883,2.2128,2.2622,2.2771,2.3206,2.4049,2.3854,2.3781,2.4133,2.3806,2.3781,2.4122,2.4169,2.4302,2.4696,2.3916,2.3697,2.4078,2.4536,2.512,2.5723,2.6222,2.6777,2.7371,2.7493,2.7723,2.8096,2.8215,2.8255,2.8255,2.8347,2.8347,2.8255,2.8374,2.8347,2.8255,2.8386,2.8347,2.8255,2.8773,2.8773,2.8773,2.8855,2.8855,2.8899,2.9009,2.9208,2.9169,2.8623,2.8754,2.8499,2.7377,2.7239,2.7144,2.687,2.6887,2.6935,2.7183,2.6802,2.638,2.5927,2.5878,2.5878,2.5878,2.531,2.4993,2.4894,2.4295,2.3941,2.3884,2.3884,2.3927,2.397,2.4166,2.4133,2.397,2.4401,2.4572,2.4572,2.454,2.4743,2.5062,2.4861,2.4946,2.5073,2.4861,2.4946,2.5073,2.4861,2.4946,2.5115,2.5115,2.5115,2.5115,2.5115,2.5041,2.4756,2.4096,2.3722,2.3391,2.2677,2.2418,2.2242,2.189,2.1807,2.1835,2.2025,2.2063,2.2138,2.2317,2.2344,2.2344,2.2381,0.0,0.0,0.0,2.2596,2.292,2.3551,2.377,2.4169,2.5028,2.4933,2.4921,2.5063,2.4933,2.4921,2.5098,2.5098,2.5229,2.555,2.5171,2.5181,2.5656,2.6221,2.6868,2.7466,2.7965,2.8295,2.8493,2.8612,2.8743,2.877,2.8939,2.8978,2.8978,2.8978,2.8978,2.8978,2.8978,2.8978,2.8978,2.8978,2.8978,2.8978,2.8958,2.9004,2.905,2.9315,2.9361,2.946,2.986,2.9795,2.9851,3.0426,3.0273,3.006,2.9755,2.9747,2.9559,2.9176,2.9177,2.9177,2.9177,2.9131,2.8308,2.6544,2.6448,2.6448,2.6448,2.5976,2.5534,2.5178,2.4696,2.4341,2.4153,2.4153,2.4282,2.4497,2.5295,2.5221,2.4497,2.5337,2.5663,2.5621,2.4818,2.5474,2.6823,2.5986,2.6205,2.6823,2.5986,2.6235,2.6782,2.5997,2.6235,2.6905,2.6905,2.6905,2.6905,2.6905,2.6575,2.5851,2.4324,2.3256,2.2584,2.2511,2.217,2.1849,2.1818,2.1807,2.1987,2.2777,2.2927,2.3139,2.3793,2.3938,2.4,2.4192,0.0,0.0,2.4457,2.4481,2.4589,2.485,2.4886,2.5252,2.6195,2.5652,2.5546,2.6242,2.5652,2.5546,2.6242,2.6277,2.6848,2.8075,2.6562,2.5815,2.6045,2.7093,2.7623,2.7671,2.8162,2.8782,2.9575,2.9588,3.0024,3.0785,3.0785,3.0823,3.0823,3.0823,3.0823,3.0823,3.0823,3.0823,3.0823,3.0823,3.0823,3.0823,3.1092,3.1092,3.1137,3.1226,3.127,3.133,3.1487,3.1421,3.1221,3.0882,3.0721,3.041,2.9698,2.963,2.9643,2.9647,2.9624,2.9727,2.9886,2.9886,2.9418,2.8366,2.8319,2.8319,2.8319,2.7993,2.7617,2.7139,2.6834,2.6438,2.6008,2.6008,2.6049,2.6133,2.6453,2.6412,2.6133,2.6453,2.6607,2.6565,2.6257,2.6494,2.7069,2.673,2.6812,2.7069,2.6741,2.6812,2.7069,2.673,2.6823,2.711,2.711,2.711,2.7041,2.6691,2.6245,2.5659,2.4703,2.4194,2.3841,2.357,2.3349,2.3217,2.3217,2.3327,2.3511,2.3815,2.3986,2.4145,2.4421,2.4457,2.4493,2.4565,0.0,2.4601,2.4696,2.4815,2.5063,2.5615,2.5789,2.6195,2.7007,2.6837,2.6769,2.704,2.6837,2.6956,2.761,2.8018,2.842,2.8935,2.8641,2.848,2.8589,2.8984,2.9365,2.9745,2.9923,3.019,3.0508,3.0508,3.071,3.0986,3.0986,3.0986,3.0986,3.0986,3.0986,3.0986,3.0986,3.0986,3.0986,3.0986,3.0986,3.0986,3.2475,3.2475,3.2519,3.2605,3.2605,3.2605,3.2605,3.2562,3.2288,3.1669,3.1536,3.1247,3.0643,3.0553,3.0643,3.0822,3.0822,3.0911,3.1125,3.1125,3.0654,2.9692,2.9647,2.9647,2.9647,2.9511,2.918,2.8678,2.8359,2.7939,2.7392,2.719,2.711,2.711,2.7395,2.7395,2.711,2.7395,2.7557,2.7516,2.7232,2.7435,2.7931,2.7637,2.773,2.7891,2.7637,2.7718,2.7931,2.7678,2.7799,2.8039,2.8108,2.8148,2.8012,2.7489,2.6966,2.6469,2.5896,2.561,2.5251,2.4309,2.4156,2.4192,2.4192,2.4337,2.4541,2.4803,2.4957,2.5134,2.5392,2.5428,2.5428,2.5498,2.5533,2.5533,2.5556,2.5707,2.5963,2.6471,2.6654,2.6939,2.7456,2.7659,2.7798,2.7798,2.7968,2.8255,2.8669,2.9222,2.9549,2.9549,3.0098,3.0361,3.0361,3.0361,3.0594,3.0986,3.0986,3.0986,3.0986,3.0986,3.0986,3.0986,3.0986,3.0986,3.0986,3.0986,3.0986,3.0986,3.0986,3.0986,3.0986,3.0986,3.0986,3.0986,3.268,3.2711,3.281,3.3068,3.3124,3.3124,3.3124,3.2853,3.281,3.3081,3.2853,3.2797,3.3068,3.3124,3.3124,3.3124,3.3124,3.3124,3.3124,3.3124,3.2251,3.0306,3.0215,3.0215,3.0215,3.0215,3.0007,2.9533,2.8982,2.8487,2.8004,2.7392,2.711,2.7151,2.8091,2.8011,2.7191,2.8091,2.8502,2.8422,2.7516,2.8183,2.9714,2.8831,2.904,2.9675,2.8831,2.9079,2.9714,2.904,2.9404,3.0152,3.033,3.0406,3.0291,2.9702,2.9138,2.8562,2.7972,2.7434,2.6555,2.4624,2.4264,2.4409,2.4409,2.4576,2.4909,2.5673,2.5824,2.6045,2.6863,2.699,2.7079,2.7268,2.7315,2.7348,2.7503,2.7503,2.7503,2.7503,2.7503,2.7503,2.7503,2.8059,2.842,2.842,2.8983,2.9323,2.9323,2.9836,3.0113,3.0113,3.0699,3.0986,3.0986,3.0986,3.0986,3.0986,3.0986,3.0986,3.0986,3.0986,3.0986,3.0986,3.0986,3.0986,3.0986,3.0986,3.0986,3.0986,3.0986,3.0986,3.0986,3.0986,3.0986,3.0986,3.2982,3.2982,3.3025,3.3081,3.3124,3.3124,3.3124,3.3025,3.3025,3.3081,3.3025,3.3025,3.3081,3.3124,3.3124,3.3124,3.3124,3.3124,3.3124,3.3124,3.2853,3.2251,3.2208,3.2208,3.2208,3.2208,3.1938,3.1375,3.0849,3.0323,2.9808,2.9258,2.9,2.9013,2.93,2.9248,2.9,2.9287,2.9417,2.9378,2.9091,2.9339,2.9792,2.9677,2.9793,2.9998,2.9896,3.0011,3.0177,2.9973,3.0088,3.033,3.0368,3.0406,3.0291,2.9702,2.9383,2.9127,2.8587,2.8305,2.7857,2.6477,2.6186,2.622,2.622,2.638,2.6586,2.6803,2.6926,2.7074,2.7302,2.7335,2.7369,2.7436,2.7795,2.8103,2.8124,2.849,2.8752,2.8752,2.8752,2.8752,2.8752,2.8922,2.9048,2.9048,2.9549,2.9839,2.9839,3.0424,3.0725,3.0725,3.0895,3.0986,3.0986,3.0986,3.0986,3.0986,3.0986,3.0986,3.0986,3.0986,3.0986,3.0986,3.0986,3.0986,3.0986,3.0986,3.0986,3.0986,3.0986,3.0986,3.0986,3.0986,3.0986,3.0986,3.3124,3.3124,3.3124,3.3124,3.3124,3.3124,3.3124,3.3124,3.3124,3.3124,3.3124,3.3124,3.3124,3.3124,3.3124,3.3124,3.3124,3.3124,3.3124,3.3124,3.3124,3.3124,3.3124,3.3124,3.3124,3.3124,3.2905,3.2554,3.1775,3.1223,3.0909,3.0143,2.9792,2.9792,2.9792,2.9792,2.9792,2.9869,2.9934,2.9934,3.0011,3.0049,3.0049,3.019,3.0228,3.0228,3.0368,3.0406,3.0406,3.0482,3.0558,3.0634,3.0634,3.0634,3.0518,2.9925,2.9757,2.9641,2.906,2.8954,2.8786,2.8066,2.7851,2.7781,2.7781,2.7954,2.8092,2.8092,2.816,2.8216,2.8216,2.8216,2.8216,2.8216,2.8516,2.8773,2.8773,2.9087,2.931,2.931,2.931,2.931,2.931,2.9483,2.9706,2.9928,3.0281,3.0477,3.0477,3.079,3.0986,3.0986,3.1099,3.1099,3.0986,3.1099,3.1099,3.0986,3.0986,3.0986,3.0986,3.0986,3.0986,3.0986,3.0986,3.0986,3.0986,3.0986,3.0986,3.0986,3.0986,3.0986,3.0986,3.0986,3.0986,3.0986,3.3124,3.3124,3.3124,3.3124,3.3124,3.3124,3.3124,3.3124,3.3124,3.3124,3.3124,3.3124,3.3124,3.3124,3.3124,3.3124,3.3124,3.3124,3.3111,3.3111,3.3111,3.3111,3.3111,3.3111,3.3111,3.3124,3.3124,3.3124,3.2001,3.1436,3.1361,3.0383,2.9881,2.983,2.9869,2.9869,2.9869,3.0049,3.0113,3.0152,3.033,3.0406,3.0406,3.0406,3.0444,3.0444,3.0444,3.0444,3.0482,3.066,3.0849,3.0986,3.0986,3.0986,3.0882,3.0322,3.0179,3.0061,2.9575,2.9467,2.9467,2.9467,2.9311,2.9152,2.9061,2.9155,2.931,2.931,2.931,2.931,2.931,2.931,2.931,2.931,2.9327,2.9353,2.9353,2.9405,2.9467,2.9467,2.9467,2.9467,2.9467,2.9902,3.0424,3.1022,3.1024,3.1024,3.1061,3.1061,3.1061,3.1061,3.1248,3.1235,3.1061,3.1235,3.1248,3.1024,3.1024,3.1024,3.1061,3.1061,3.1061,3.1061,3.1061,3.1061,3.1061,3.1061,3.1061,3.1061,3.1061,3.1061,3.1061,3.1061,3.1061,3.1061,3.3124,3.3124,3.3124,3.3124,3.3124,3.3124,3.3124,3.3124,3.3124,3.3124,3.3124,3.3124,3.3124,3.3124,3.3124,3.3124,3.3124,3.3154,3.3313,3.3313,3.3313,3.3313,3.3313,3.3313,3.3313,3.3197,3.3124,3.3124,3.2378,3.1813,3.1373,3.088,3.0428,3.0049,3.019,3.0254,3.0254,3.033,3.033,3.033,3.0368,3.0406,3.0406,3.0571,3.0609,3.066,3.0798,3.0874,3.0874,3.0911,3.0949,3.0986,3.0986,3.0986,3.096,3.083,3.079,3.0777,3.0647,3.062,3.062,3.062,3.0607,3.0335,2.9435,2.9274,2.931,2.931,2.931,2.931,2.931,2.931,2.931,2.931,2.9653,2.9918,2.9918,3.0333,3.062,3.062,3.062,3.062,3.062,3.0725,3.1005,3.1447,3.1323,3.1323,3.1447,3.1447,3.1447,3.1447,3.1522,3.1522,3.1447,3.1522,3.1434,3.1235,3.1235,3.1323,3.1447,3.1447,3.1447,3.1447,3.1447,3.1447,3.1447,3.1447,3.1447,3.1447,3.1447,3.1447,3.1447,3.1447,3.1447,3.1447,3.3124,3.3124,3.3124,3.3124,3.3124,3.3124,3.3124,3.3124,3.3124,3.3124,3.3124,3.3154,3.324,3.324,3.3283,3.3398,3.3398,3.3441,3.3556,3.3556,3.3556,3.3556,3.3556,3.3556,3.3556,3.3441,3.3398,3.3398,3.2827,3.2396,3.2092,3.136,3.0904,3.0611,3.0484,3.0406,3.0406,3.0482,3.0533,3.0533,3.0634,3.0672,3.071,3.0798,3.0849,3.0836,3.0949,3.0986,3.0986,3.0986,3.0986,3.0986,3.0986,3.0986,3.0986,3.0986,3.0986,3.0986,3.0986,3.0986,3.0986,3.0986,3.0986,3.083,3.0228,3.0098,3.0098,3.0098,3.0098,3.0098,3.0098,3.0098,3.0098,3.0098,3.0346,3.0542,3.0542,3.079,3.1061,3.1123,3.1123,3.1174,3.1299,3.1299,3.1373,3.1559,3.1522,3.1485,3.1596,3.1609,3.1609,3.1609,3.1683,3.172,3.1609,3.172,3.1706,3.1582,3.1471,3.1485,3.1609,3.1609,3.1609,3.1609,3.1609,3.1609,3.1609,3.1609,3.1609,3.1609,3.1609,3.1609,3.1609,3.1609,3.1609,3.1609,3.3124,3.3124,3.3124,3.3124,3.3111,3.3154,3.3154,3.3197,3.3197,3.3197,3.3197,3.3283,3.3441,3.3441,3.3513,3.367,3.3713,3.3725,3.3768,3.3768,3.3768,3.3768,3.3768,3.3768,3.3768,3.3768,3.3768,3.3713,3.3251,3.2969,3.2895,3.1972,3.1433,3.1215,3.083,3.0572,3.052,3.0685,3.0736,3.0773,3.0911,3.0986,3.0986,3.0986,3.0986,3.0986,3.0986,3.0986,3.0986,3.0986,3.0986,3.0986,3.0986,3.0986,3.0986,3.0986,3.0986,3.0986,3.0986,3.0986,3.0986,3.0986,3.0986,3.0986,3.0986,3.0986,3.0986,3.0986,3.0986,3.0986,3.0986,3.0986,3.0986,3.0986,3.1024,3.1061,3.1061,3.1061,3.1174,3.1323,3.136,3.1434,3.1633,3.1609,3.1646,3.172,3.1683,3.1683,3.172,3.172,3.172,3.172,3.1853,3.1853,3.172,3.1853,3.1963,3.1963,3.178,3.172,3.172,3.172,3.172,3.172,3.172,3.172,3.172,3.172,3.172,3.172,3.172,3.172,3.172,3.172,3.172,3.172,3.3124,3.3124,3.3124,3.3124,3.324,3.3356,3.3356,3.3513,3.3641,3.3641,3.3641,3.3641,3.367,3.367,3.367,3.3713,3.3713,3.381,3.4034,3.4034,3.4034,3.4034,3.4034,3.4034,3.4034,3.4034,3.3937,3.3713,3.3636,3.3354,3.2908,3.2903,3.2378,3.1461,3.1552,3.1329,3.0911,3.0949,3.0949,3.0949,3.0986,3.0986,3.0986,3.0986,3.0986,3.0986,3.0986,3.0986,3.0986,3.0986,3.0986,3.0986,3.0986,3.0986,3.0986,3.0986,3.0986,3.0986,3.0986,3.0986,3.0986,3.0986,3.0986,3.0986,3.0986,3.0986,3.0986,3.0986,3.0986,3.0986,3.0986,3.0986,3.0986,3.0986,3.1161,3.1272,3.1272,3.1397,3.1535,3.1572,3.1572,3.1633,3.1853,3.172,3.1743,3.2109,3.1963,3.1927,3.2109,3.2109,3.2109,3.2109,3.2146,3.2146,3.2109,3.2146,3.2146,3.2146,3.2146,3.2109,3.2109,3.2109,3.2109,3.2109,3.2109,3.2109,3.2109,3.2109,3.2109,3.2109,3.2109,3.2109,3.2109,3.2109,3.2109,3.2109,3.3441,3.3441,3.3441,3.3441,3.3513,3.3556,3.3556,3.3641,3.3713,3.3713,3.3713,3.3768,3.3894,3.4021,3.4092,3.4092,3.4092,3.4147,3.4285,3.4285,3.4285,3.4285,3.4285,3.4285,3.4285,3.4285,3.4189,3.4092,3.4092,3.3975,3.3716,3.3513,3.3138,3.2658,3.2046,3.1667,3.1444,3.1117,3.0986,3.0986,3.0986,3.0986,3.0986,3.0986,3.0986,3.0986,3.0986,3.0986,3.0986,3.0986,3.0986,3.0986,3.0986,3.0986,3.1024,3.1123,3.1099,3.1024,3.1123,3.1099,3.1024,3.1123,3.1161,3.1211,3.1299,3.1336,3.1286,3.1211,3.1161,3.1161,3.1161,3.1161,3.1161,3.1161,3.1323,3.1485,3.1485,3.1522,3.1646,3.1743,3.1853,3.1963,3.2073,3.2,3.2,3.2182,3.2109,3.2109,3.2218,3.2218,3.2218,3.2218,3.2218,3.2218,3.2218,3.2218,3.2218,3.2218,3.2218,3.2218,3.2218,3.2218,3.2218,3.2218,3.2218,3.2218,3.2218,3.2218,3.2218,3.2218,3.2218,3.2218,3.2218,3.2218,3.2218,3.2218]}]]